[[{"header":{"parameterUnit":"m.s-1","parameterCategory":1,"la1":31.0,"la2":29.5877,"lo1":-88.7671,"lo2":-86.6584,"dy":0.0162,"dx":0.0185,"nx":115,"ny":88,"refTime":"2024-03-28T12:00:00:Z","depth":0,"parameterNumber":2,"parameterNumberName":"U-component_of_WINDS"},"data":[0.0,0.0,0.0,0.0,0.0,0.0,0.0,0.0,0.0,0.0,0.0,0.0,0.0,0.0,0.0,0.0,0.0,0.0,0.0,0.0,0.0,0.0,0.0,0.0,0.0,0.0,0.0,0.0,0.0,0.0,0.0,0.0,0.0,0.0,0.0,0.0,0.0,0.0,0.0,0.0,0.0,0.0,0.0,0.0,0.0,0.0,0.0,0.0,0.0,0.0,0.0,0.0,0.0,0.0,0.0,0.0,0.0,0.0,0.0,0.0,0.0,0.0,0.0,0.0,0.0,0.0,0.0,0.0,0.0,0.0,0.0,0.0,0.0,0.0,0.0,0.0,0.0,0.0,0.0,0.0,0.0,0.0,0.0,0.0,0.0,0.0,0.0,0.0,0.0,0.0,0.0,0.0,0.0,0.0,0.0,0.0,0.0,0.0,0.0,0.0,0.0,0.0,0.0,0.0,0.0,0.0,0.0,0.0,0.0,0.0,0.0,0.0,0.0,0.0,0.0,0.0,0.0,0.0,0.0,0.0,0.0,0.0,0.0,0.0,0.0,0.0,0.0,0.0,0.0,0.0,0.0,0.0,0.0,0.0,0.0,0.0,0.0,0.0,0.0,0.0,0.0,0.0,0.0,0.0,0.0,0.0,0.0,0.0,0.0,0.0,0.0,0.0,0.0,0.0,0.0,0.0,0.0,0.0,0.0,0.0,0.0,0.0,0.0,0.0,0.0,0.0,0.0,0.0,0.0,0.0,0.0,0.0,0.0,0.0,0.0,0.0,0.0,0.0,0.0,0.0,0.0,0.0,0.0,0.0,0.0,0.0,0.0,0.0,0.0,0.0,0.0,0.0,0.0,0.0,0.0,0.0,0.0,0.0,0.0,0.0,0.0,0.0,0.0,0.0,0.0,0.0,0.0,0.0,0.0,0.0,0.0,0.0,0.0,0.0,0.0,0.0,0.0,0.0,0.0,0.0,0.0,0.0,0.0,0.0,0.0,0.0,0.0,0.0,0.0,0.0,0.0,0.0,0.0,0.0,0.0,0.0,0.0,0.0,0.0,0.0,0.0,0.0,0.0,0.0,0.0,0.0,0.0,0.0,0.0,0.0,0.0,0.0,0.0,0.0,0.0,0.0,0.0,0.0,0.0,0.0,0.0,0.0,0.0,0.0,0.0,0.0,0.0,0.0,0.0,0.0,0.0,0.0,0.0,0.0,0.0,0.0,0.0,0.0,0.0,0.0,0.0,0.0,0.0,0.0,0.0,0.0,0.0,0.0,0.0,0.0,0.0,0.0,0.0,0.0,0.0,0.0,0.0,0.0,0.0,0.0,0.0,0.0,0.0,0.0,0.0,0.0,0.0,0.0,0.0,0.0,0.0,0.0,0.0,0.0,0.0,0.0,0.0,0.0,0.0,0.0,0.0,0.0,0.0,0.0,0.0,0.0,0.0,0.0,0.0,0.0,0.0,0.0,0.0,0.0,0.0,0.0,0.0,0.0,0.0,0.0,0.0,0.0,0.0,0.0,0.0,0.0,0.0,0.0,0.0,0.0,0.0,0.0,0.0,0.0,0.0,0.0,0.0,0.0,0.0,0.0,0.0,0.0,0.0,0.0,0.0,0.0,0.0,0.0,0.0,0.0,0.0,0.0,0.0,0.0,0.0,0.0,0.0,0.0,0.0,0.0,0.0,0.0,0.0,0.0,0.0,0.0,0.0,0.0,0.0,0.0,0.0,0.0,0.0,0.0,0.0,0.0,0.0,0.0,0.0,0.0,0.0,0.0,0.0,0.0,0.0,0.0,0.0,0.0,0.0,0.0,0.0,0.0,0.0,0.0,0.0,0.0,0.0,0.0,0.0,0.0,0.0,0.0,0.0,0.0,0.0,0.0,0.0,0.0,0.0,0.0,0.0,0.0,0.0,0.0,0.0,0.0,0.0,0.0,0.0,0.0,0.0,0.0,0.0,0.0,0.0,0.0,0.0,0.0,0.0,0.0,0.0,0.0,0.0,0.0,0.0,0.0,0.0,0.0,0.0,0.0,0.0,0.0,0.0,0.0,0.0,0.0,0.0,0.0,0.0,0.0,0.0,0.0,0.0,0.0,0.0,0.0,0.0,0.0,0.0,0.0,0.0,0.0,0.0,0.0,0.0,0.0,0.0,0.0,0.0,0.0,0.0,0.0,0.0,0.0,0.0,0.0,0.0,0.0,0.0,0.0,0.0,0.0,0.0,0.0,0.0,0.0,0.0,0.0,0.0,0.0,0.0,0.0,0.0,0.0,0.0,0.0,0.0,0.0,0.0,0.0,0.0,0.0,0.0,0.0,0.0,0.0,0.0,0.0,0.0,0.0,0.0,0.0,0.0,0.0,0.0,0.0,0.0,0.0,0.0,0.0,0.0,0.0,0.0,0.0,0.0,0.0,0.0,0.0,0.0,0.0,0.0,0.0,0.0,0.0,0.0,0.0,0.0,0.0,0.0,0.0,0.0,0.0,0.0,0.0,0.0,0.0,0.0,0.0,0.0,0.0,0.0,0.0,0.0,0.0,0.0,0.0,0.0,0.0,0.0,0.0,0.0,0.0,0.0,0.0,0.0,0.0,0.0,0.0,0.0,0.0,0.0,0.0,0.0,0.0,0.0,0.0,0.0,0.0,0.0,0.0,0.0,0.0,0.0,0.0,0.0,0.0,0.0,0.0,0.0,0.0,0.0,0.0,0.0,0.0,0.0,0.0,0.0,0.0,0.0,0.0,0.0,0.0,0.0,0.0,0.0,0.0,0.0,0.0,0.0,0.0,0.0,0.0,0.0,0.0,0.0,0.0,0.0,0.0,0.0,0.0,0.0,0.0,0.0,0.0,0.0,0.0,0.0,0.0,0.0,0.0,0.0,0.0,0.0,0.0,0.0,0.0,0.0,0.0,0.0,0.0,0.0,0.0,0.0,0.0,0.0,0.0,0.0,0.0,0.0,0.0,0.0,0.0,0.0,0.0,0.0,0.0,0.0,0.0,0.0,0.0,0.0,0.0,0.0,0.0,0.0,0.0,0.0,0.0,0.0,0.0,0.0,0.0,0.0,0.0,0.0,0.0,0.0,0.0,0.0,0.0,0.0,0.0,0.0,0.0,0.0,0.0,0.0,0.0,0.0,0.0,0.0,0.0,0.0,0.0,0.0,0.0,0.0,0.0,0.0,0.0,0.0,0.0,0.0,0.0,0.0,0.0,0.0,0.0,0.0,0.0,0.0,0.0,0.0,0.0,0.0,0.0,0.0,0.0,0.0,0.0,0.0,0.0,0.0,0.0,0.0,0.0,0.0,0.0,0.0,0.0,0.0,0.0,0.0,0.0,0.0,0.0,0.0,0.0,0.0,0.0,0.0,0.0,0.0,0.0,0.0,0.0,0.0,0.0,0.0,0.0,0.0,0.0,0.0,0.0,0.0,0.0,0.0,0.0,0.0,0.0,0.0,0.0,0.0,0.0,0.0,0.0,0.0,0.0,0.0,0.0,0.0,0.0,0.0,0.0,0.0,0.0,0.0,0.0,0.0,0.0,0.0,0.0,0.0,0.0,0.0,0.0,0.0,0.0,0.0,0.0,0.0,0.0,0.0,0.0,0.0,0.0,0.0,0.0,0.0,0.0,0.0,0.0,0.0,0.0,0.0,0.0,0.0,0.0,0.0,0.0,0.0,0.0,0.0,0.0,0.0,0.0,0.0,0.0,0.0,0.0,0.0,0.0,0.0,0.0,0.0,0.0,0.0,0.0,0.0,0.0,0.0,0.0,0.0,0.0,0.0,0.0,0.0,0.0,0.0,0.0,0.0,0.0,0.0,0.0,0.0,0.0,0.0,0.0,0.0,0.0,0.0,0.0,0.0,0.0,0.0,0.0,0.0,0.0,0.0,0.0,0.0,0.0,0.0,0.0,0.0,0.0,0.0,0.0,0.0,0.0,0.0,0.0,0.0,0.0,0.0,0.0,0.0,0.0,0.0,0.0,0.0,0.0,0.0,0.0,0.0,0.0,0.0,0.0,0.0,0.0,0.0,0.0,0.0,0.0,0.0,0.0,0.0,0.0,0.0,0.0,0.0,0.0,0.0,0.0,0.0,0.0,0.0,0.0,0.0,0.0,0.0,0.0,0.0,0.0,0.0,0.0,0.0,0.0,0.0,0.0,0.0,0.0,0.0,0.0,0.0,0.0,0.0,0.0,0.0,0.0,0.0,0.0,0.0,0.0,0.0,0.0,0.0,0.0,0.0,0.0,0.0,0.0,0.0,0.0,0.0,0.0,2.729,0.0,0.0,0.0,0.0,0.0,0.0,0.0,0.0,0.0,0.0,0.0,0.0,0.0,0.0,0.0,0.0,0.0,0.0,0.0,0.0,0.0,0.0,0.0,0.0,0.0,0.0,0.0,0.0,0.0,0.0,0.0,0.0,0.0,0.0,0.0,0.0,0.0,0.0,0.0,0.0,0.0,0.0,0.0,0.0,0.0,0.0,0.0,0.0,0.0,0.0,0.0,0.0,0.0,0.0,0.0,0.0,0.0,0.0,0.0,0.0,0.0,0.0,0.0,0.0,0.0,0.0,0.0,0.0,0.0,0.0,0.0,0.0,0.0,0.0,0.0,0.0,0.0,0.0,0.0,0.0,0.0,0.0,0.0,0.0,0.0,0.0,0.0,0.0,0.0,0.0,0.0,0.0,0.0,0.0,0.0,0.0,0.0,0.0,0.0,0.0,0.0,0.0,0.0,0.0,0.0,0.0,0.0,0.0,0.0,0.0,3.0729,2.9617,2.9805,2.9031,2.7119,0.0,0.0,0.0,0.0,0.0,0.0,0.0,0.0,0.0,0.0,0.0,0.0,0.0,0.0,0.0,0.0,0.0,0.0,0.0,0.0,0.0,0.0,0.0,0.0,0.0,0.0,0.0,0.0,0.0,0.0,0.0,0.0,0.0,0.0,0.0,0.0,0.0,0.0,0.0,0.0,0.0,0.0,0.0,0.0,0.0,0.0,0.0,0.0,0.0,0.0,0.0,0.0,0.0,0.0,0.0,0.0,0.0,0.0,0.0,0.0,0.0,0.0,0.0,0.0,0.0,0.0,0.0,0.0,0.0,0.0,0.0,0.0,0.0,0.0,0.0,0.0,0.0,0.0,0.0,0.0,0.0,0.0,0.0,0.0,0.0,0.0,0.0,0.0,0.0,0.0,0.0,0.0,0.0,0.0,0.0,0.0,0.0,0.0,0.0,0.0,0.0,0.0,0.0,0.0,0.0,0.0,0.0,0.0,0.0,0.0,0.0,0.0,3.0719,2.9731,2.8128,0.0,0.0,0.0,0.0,0.0,0.0,0.0,0.0,0.0,0.0,0.0,0.0,0.0,0.0,0.0,0.0,0.0,0.0,0.0,0.0,0.0,0.0,0.0,0.0,0.0,0.0,0.0,0.0,0.0,0.0,0.0,0.0,0.0,0.0,0.0,0.0,0.0,0.0,0.0,0.0,0.0,0.0,0.0,0.0,0.0,0.0,0.0,0.0,0.0,0.0,0.0,0.0,0.0,0.0,0.0,0.0,0.0,0.0,0.0,0.0,0.0,0.0,0.0,0.0,0.0,0.0,0.0,0.0,0.0,0.0,0.0,0.0,0.0,0.0,0.0,0.0,0.0,0.0,0.0,0.0,0.0,0.0,0.0,0.0,0.0,0.0,0.0,0.0,0.0,0.0,0.0,0.0,0.0,0.0,0.0,0.0,0.0,0.0,0.0,0.0,0.0,0.0,0.0,0.0,0.0,0.0,0.0,0.0,0.0,0.0,3.1817,3.53,3.4301,0.0,3.1499,0.0,0.0,0.0,0.0,0.0,0.0,0.0,0.0,0.0,0.0,0.0,0.0,0.0,0.0,0.0,0.0,0.0,0.0,0.0,0.0,0.0,0.0,0.0,0.0,0.0,0.0,0.0,0.0,0.0,0.0,0.0,0.0,0.0,0.0,0.0,0.0,0.0,0.0,0.0,0.0,0.0,0.0,0.0,0.0,0.0,0.0,0.0,0.0,0.0,0.0,0.0,0.0,0.0,0.0,0.0,0.0,0.0,0.0,0.0,0.0,0.0,0.0,0.0,0.0,0.0,0.0,0.0,0.0,0.0,0.0,0.0,0.0,0.0,0.0,0.0,0.0,0.0,0.0,0.0,0.0,0.0,0.0,0.0,0.0,0.0,0.0,0.0,0.0,0.0,0.0,0.0,0.0,0.0,0.0,0.0,0.0,0.0,0.0,0.0,0.0,0.0,0.0,0.0,0.0,0.0,0.0,0.0,0.0,0.0,0.0,3.231,3.5057,3.3471,3.1468,0.0,0.0,0.0,0.0,0.0,0.0,0.0,0.0,0.0,0.0,0.0,0.0,0.0,0.0,0.0,0.0,0.0,0.0,0.0,0.0,0.0,0.0,0.0,0.0,0.0,0.0,0.0,0.0,0.0,0.0,0.0,0.0,0.0,0.0,0.0,0.0,0.0,0.0,0.0,0.0,0.0,0.0,0.0,0.0,0.0,0.0,0.0,0.0,0.0,0.0,0.0,0.0,0.0,0.0,0.0,0.0,0.0,0.0,0.0,0.0,0.0,0.0,0.0,0.0,0.0,0.0,0.0,0.0,0.0,0.0,0.0,0.0,0.0,0.0,0.0,0.0,0.0,0.0,0.0,0.0,0.0,0.0,0.0,0.0,0.0,0.0,0.0,0.0,0.0,0.0,0.0,0.0,0.0,0.0,0.0,0.0,0.0,0.0,0.0,0.0,0.0,0.0,0.0,0.0,0.0,0.0,0.0,0.0,0.0,0.0,3.1965,3.2981,3.4981,3.282,3.0501,2.832,0.0,0.0,0.0,0.0,0.0,0.0,0.0,0.0,0.0,0.0,0.0,0.0,0.0,0.0,0.0,0.0,0.0,0.0,0.0,0.0,0.0,0.0,0.0,0.0,0.0,0.0,0.0,0.0,0.0,0.0,0.0,0.0,0.0,0.0,0.0,0.0,0.0,0.0,0.0,0.0,0.0,0.0,0.0,0.0,0.0,0.0,0.0,0.0,0.0,0.0,0.0,0.0,0.0,0.0,0.0,0.0,0.0,0.0,0.0,0.0,0.0,0.0,0.0,0.0,0.0,0.0,0.0,0.0,0.0,0.0,0.0,0.0,0.0,0.0,0.0,0.0,0.0,0.0,0.0,0.0,0.0,0.0,0.0,0.0,0.0,0.0,0.0,0.0,0.0,0.0,0.0,0.0,0.0,0.0,0.0,0.0,0.0,0.0,0.0,0.0,0.0,0.0,0.0,0.0,0.0,0.0,0.0,0.0,3.8132,3.4611,3.3977,3.6769,3.359,3.1519,0.0,0.0,0.0,0.0,0.0,0.0,0.0,0.0,0.0,0.0,0.0,0.0,0.0,0.0,0.0,0.0,0.0,0.0,0.0,0.0,0.0,0.0,0.0,0.0,0.0,0.0,0.0,0.0,0.0,0.0,0.0,0.0,0.0,0.0,0.0,0.0,0.0,0.0,0.0,0.0,0.0,0.0,0.0,0.0,0.0,0.0,0.0,0.0,0.0,0.0,0.0,0.0,0.0,0.0,0.0,0.0,0.0,0.0,0.0,0.0,0.0,0.0,0.0,0.0,0.0,0.0,0.0,0.0,0.0,0.0,0.0,0.0,0.0,0.0,0.0,0.0,0.0,0.0,0.0,0.0,0.0,0.0,0.0,0.0,0.0,0.0,0.0,0.0,0.0,0.0,0.0,0.0,0.0,0.0,0.0,0.0,0.0,0.0,0.0,0.0,0.0,0.0,0.0,0.0,0.0,0.0,0.0,0.0,0.0,3.0975,3.1934,3.3858,3.6569,3.3184,3.1296,0.0,0.0,0.0,0.0,0.0,0.0,0.0,0.0,0.0,0.0,0.0,0.0,0.0,0.0,0.0,0.0,0.0,0.0,0.0,0.0,0.0,0.0,0.0,0.0,0.0,0.0,0.0,0.0,0.0,0.0,0.0,0.0,0.0,0.0,0.0,0.0,0.0,0.0,0.0,0.0,0.0,0.0,0.0,0.0,0.0,0.0,0.0,0.0,0.0,0.0,0.0,0.0,0.0,0.0,0.0,0.0,0.0,0.0,0.0,0.0,0.0,0.0,0.0,0.0,0.0,0.0,0.0,0.0,0.0,0.0,0.0,0.0,0.0,0.0,0.0,0.0,0.0,0.0,0.0,0.0,0.0,0.0,0.0,0.0,0.0,0.0,0.0,0.0,0.0,0.0,0.0,0.0,0.0,0.0,0.0,0.0,0.0,0.0,0.0,0.0,0.0,0.0,0.0,0.0,0.0,0.0,0.0,0.0,0.0,2.9467,0.0,3.5919,3.6163,3.3364,3.1167,0.0,0.0,0.0,0.0,0.0,0.0,0.0,0.0,0.0,0.0,0.0,0.0,0.0,0.0,0.0,0.0,0.0,0.0,0.0,0.0,0.0,0.0,0.0,0.0,0.0,0.0,0.0,0.0,0.0,0.0,0.0,0.0,0.0,0.0,0.0,0.0,0.0,0.0,0.0,0.0,0.0,0.0,0.0,0.0,0.0,0.0,0.0,0.0,0.0,0.0,0.0,0.0,0.0,0.0,0.0,0.0,0.0,0.0,0.0,0.0,0.0,0.0,0.0,0.0,0.0,0.0,0.0,0.0,0.0,0.0,0.0,0.0,0.0,0.0,0.0,0.0,0.0,0.0,0.0,0.0,0.0,0.0,0.0,0.0,0.0,0.0,0.0,0.0,0.0,0.0,0.0,0.0,0.0,0.0,0.0,0.0,0.0,0.0,0.0,0.0,0.0,0.0,0.0,0.0,0.0,0.0,0.0,0.0,2.8687,3.5147,3.9792,3.9908,3.5773,3.4301,3.111,0.0,0.0,0.0,0.0,0.0,0.0,0.0,0.0,0.0,0.0,0.0,0.0,0.0,0.0,0.0,0.0,0.0,0.0,0.0,0.0,0.0,0.0,0.0,0.0,0.0,0.0,0.0,0.0,0.0,0.0,0.0,0.0,0.0,0.0,0.0,0.0,0.0,0.0,0.0,0.0,0.0,0.0,0.0,0.0,0.0,0.0,0.0,0.0,0.0,0.0,0.0,0.0,0.0,0.0,0.0,0.0,0.0,0.0,0.0,0.0,0.0,0.0,0.0,0.0,0.0,0.0,0.0,0.0,0.0,0.0,0.0,0.0,0.0,0.0,0.0,0.0,0.0,0.0,0.0,0.0,0.0,0.0,0.0,0.0,0.0,0.0,0.0,0.0,0.0,0.0,0.0,0.0,0.0,0.0,0.0,0.0,0.0,0.0,0.0,0.0,0.0,0.0,0.0,0.0,0.0,0.0,0.0,0.0,0.0,3.2637,3.5117,3.7653,3.9754,3.3898,3.1575,0.0,0.0,0.0,0.0,0.0,0.0,0.0,0.0,0.0,0.0,0.0,0.0,0.0,0.0,0.0,0.0,0.0,0.0,0.0,0.0,0.0,0.0,0.0,0.0,0.0,0.0,0.0,0.0,0.0,0.0,0.0,0.0,0.0,0.0,0.0,0.0,0.0,0.0,0.0,0.0,0.0,0.0,0.0,0.0,0.0,0.0,0.0,0.0,0.0,0.0,0.0,0.0,0.0,0.0,0.0,0.0,0.0,0.0,0.0,0.0,0.0,0.0,0.0,0.0,0.0,0.0,0.0,0.0,0.0,0.0,0.0,0.0,0.0,0.0,0.0,0.0,0.0,0.0,0.0,0.0,0.0,0.0,0.0,0.0,0.0,0.0,0.0,0.0,0.0,0.0,0.0,0.0,0.0,0.0,0.0,0.0,0.0,0.0,0.0,0.0,0.0,0.0,0.0,0.0,0.0,0.0,0.0,0.0,0.0,3.5308,3.6987,3.8716,4.0431,3.4795,3.2363,3.3587,0.0,0.0,0.0,0.0,0.0,0.0,0.0,0.0,0.0,0.0,0.0,0.0,0.0,0.0,0.0,0.0,0.0,0.0,0.0,0.0,0.0,0.0,0.0,0.0,0.0,0.0,0.0,0.0,0.0,0.0,0.0,0.0,0.0,0.0,0.0,0.0,0.0,0.0,0.0,0.0,0.0,0.0,0.0,0.0,0.0,0.0,0.0,0.0,0.0,0.0,0.0,0.0,0.0,0.0,0.0,0.0,0.0,0.0,0.0,0.0,0.0,0.0,0.0,0.0,0.0,0.0,0.0,0.0,0.0,0.0,0.0,0.0,0.0,0.0,0.0,0.0,0.0,0.0,0.0,0.0,0.0,0.0,0.0,0.0,0.0,0.0,0.0,0.0,0.0,0.0,0.0,0.0,0.0,0.0,0.0,0.0,0.0,0.0,0.0,0.0,0.0,0.0,0.0,0.0,0.0,0.0,0.0,0.0,4.1739,4.408,4.3073,3.8591,3.7024,3.3707,0.0,0.0,0.0,0.0,0.0,0.0,0.0,0.0,0.0,0.0,0.0,0.0,0.0,0.0,0.0,0.0,0.0,0.0,0.0,0.0,0.0,0.0,0.0,0.0,0.0,0.0,0.0,0.0,0.0,0.0,0.0,0.0,0.0,0.0,0.0,0.0,0.0,0.0,0.0,0.0,0.0,0.0,0.0,0.0,0.0,0.0,0.0,0.0,0.0,0.0,0.0,0.0,0.0,0.0,0.0,0.0,0.0,0.0,0.0,0.0,0.0,0.0,0.0,0.0,0.0,0.0,0.0,0.0,0.0,0.0,0.0,0.0,0.0,0.0,0.0,0.0,0.0,0.0,0.0,0.0,0.0,0.0,0.0,0.0,0.0,0.0,0.0,0.0,0.0,0.0,0.0,0.0,0.0,0.0,0.0,0.0,0.0,0.0,0.0,0.0,0.0,0.0,0.0,0.0,0.0,0.0,0.0,0.0,0.0,4.18,4.5799,4.7395,4.6205,4.0596,3.6816,0.0,0.0,0.0,0.0,0.0,0.0,0.0,0.0,0.0,0.0,0.0,0.0,0.0,0.0,0.0,0.0,0.0,0.0,0.0,0.0,0.0,0.0,0.0,0.0,0.0,0.0,0.0,0.0,0.0,0.0,0.0,0.0,0.0,0.0,0.0,0.0,0.0,0.0,0.0,0.0,0.0,0.0,0.0,0.0,0.0,0.0,0.0,0.0,0.0,0.0,0.0,0.0,0.0,0.0,0.0,0.0,0.0,0.0,0.0,0.0,0.0,0.0,0.0,0.0,0.0,0.0,0.0,0.0,0.0,0.0,0.0,0.0,0.0,0.0,0.0,0.0,0.0,0.0,0.0,0.0,0.0,0.0,0.0,0.0,0.0,0.0,0.0,0.0,0.0,0.0,0.0,0.0,0.0,0.0,0.0,0.0,0.0,0.0,0.0,0.0,0.0,0.0,0.0,0.0,0.0,0.0,0.0,0.0,4.0662,4.4932,4.8394,5.0279,5.0471,4.4633,3.9812,0.0,0.0,0.0,0.0,0.0,0.0,0.0,0.0,0.0,0.0,0.0,0.0,0.0,0.0,0.0,0.0,0.0,0.0,0.0,0.0,0.0,0.0,0.0,0.0,0.0,0.0,0.0,0.0,0.0,0.0,0.0,0.0,0.0,0.0,0.0,0.0,0.0,0.0,0.0,0.0,0.0,0.0,0.0,0.0,0.0,0.0,0.0,0.0,0.0,0.0,0.0,0.0,0.0,0.0,0.0,0.0,0.0,0.0,0.0,0.0,0.0,0.0,0.0,0.0,0.0,0.0,0.0,0.0,0.0,0.0,0.0,0.0,0.0,0.0,0.0,0.0,0.0,0.0,0.0,0.0,0.0,0.0,0.0,0.0,0.0,0.0,0.0,0.0,0.0,0.0,0.0,0.0,0.0,0.0,0.0,0.0,0.0,0.0,0.0,0.0,0.0,0.0,0.0,0.0,0.0,0.0,0.0,0.0,4.2777,4.9086,5.1183,5.2107,5.1933,4.8279,4.2468,0.0,0.0,0.0,0.0,0.0,0.0,0.0,0.0,0.0,0.0,0.0,0.0,0.0,0.0,0.0,0.0,0.0,0.0,0.0,0.0,0.0,0.0,0.0,0.0,0.0,0.0,0.0,0.0,0.0,0.0,0.0,0.0,0.0,0.0,0.0,0.0,0.0,0.0,0.0,0.0,0.0,0.0,0.0,0.0,0.0,0.0,0.0,0.0,0.0,0.0,0.0,0.0,0.0,0.0,0.0,0.0,0.0,0.0,0.0,0.0,0.0,0.0,0.0,0.0,0.0,0.0,0.0,0.0,0.0,0.0,0.0,0.0,0.0,0.0,0.0,0.0,0.0,0.0,0.0,0.0,0.0,0.0,0.0,0.0,0.0,0.0,0.0,0.0,0.0,0.0,0.0,0.0,0.0,0.0,0.0,0.0,0.0,0.0,0.0,0.0,0.0,0.0,0.0,0.0,0.0,0.0,0.0,0.0,4.4239,4.8317,5.203,5.3608,5.2933,4.826,4.3013,0.0,0.0,0.0,0.0,0.0,0.0,0.0,0.0,0.0,0.0,0.0,0.0,0.0,0.0,0.0,0.0,0.0,0.0,0.0,0.0,0.0,0.0,0.0,0.0,0.0,0.0,0.0,0.0,0.0,0.0,0.0,0.0,0.0,0.0,0.0,0.0,0.0,0.0,0.0,0.0,0.0,0.0,0.0,0.0,0.0,0.0,0.0,0.0,3.4147,0.0,0.0,0.0,0.0,0.0,0.0,0.0,0.0,0.0,0.0,0.0,0.0,0.0,0.0,0.0,0.0,0.0,0.0,0.0,0.0,0.0,0.0,0.0,0.0,0.0,0.0,0.0,0.0,0.0,0.0,0.0,0.0,0.0,0.0,0.0,0.0,0.0,0.0,0.0,0.0,0.0,0.0,0.0,0.0,0.0,0.0,0.0,0.0,0.0,0.0,0.0,0.0,0.0,0.0,0.0,0.0,0.0,0.0,0.0,4.5124,4.9202,5.1895,5.3241,5.3049,4.9009,4.4201,0.0,0.0,0.0,0.0,0.0,0.0,0.0,0.0,0.0,0.0,0.0,0.0,0.0,0.0,0.0,0.0,0.0,0.0,0.0,0.0,0.0,0.0,0.0,0.0,0.0,0.0,0.0,0.0,0.0,0.0,0.0,0.0,0.0,0.0,0.0,0.0,0.0,0.0,0.0,0.0,0.0,0.0,0.0,0.0,0.0,0.0,0.0,0.0,0.0,0.0,0.0,0.0,0.0,0.0,0.0,0.0,0.0,0.0,0.0,0.0,0.0,0.0,0.0,0.0,0.0,0.0,0.0,0.0,0.0,0.0,0.0,0.0,0.0,0.0,0.0,0.0,0.0,0.0,0.0,0.0,0.0,0.0,0.0,0.0,0.0,0.0,0.0,0.0,0.0,0.0,0.0,0.0,0.0,0.0,0.0,0.0,0.0,0.0,0.0,0.0,0.0,0.0,0.0,0.0,0.0,0.0,0.0,4.1618,4.5701,5.0471,5.1605,5.2315,5.2741,4.9894,4.547,3.9585,0.0,0.0,0.0,0.0,0.0,0.0,0.0,0.0,0.0,0.0,0.0,0.0,0.0,0.0,0.0,0.0,0.0,0.0,0.0,0.0,0.0,0.0,0.0,0.0,0.0,0.0,0.0,0.0,0.0,0.0,0.0,0.0,0.0,0.0,0.0,0.0,0.0,0.0,2.9864,3.2536,0.0,0.0,0.0,0.0,0.0,0.0,0.0,0.0,3.5751,0.0,0.0,0.0,0.0,0.0,0.0,0.0,0.0,0.0,0.0,0.0,0.0,0.0,0.0,0.0,0.0,0.0,0.0,0.0,0.0,0.0,0.0,0.0,0.0,0.0,0.0,0.0,0.0,0.0,0.0,0.0,0.0,0.0,0.0,0.0,0.0,0.0,0.0,0.0,0.0,0.0,0.0,0.0,0.0,0.0,0.0,0.0,0.0,0.0,0.0,0.0,0.0,0.0,0.0,0.0,0.0,4.1762,4.3345,4.624,5.0587,5.22,5.2392,5.1125,4.9875,4.6065,3.9623,0.0,0.0,0.0,0.0,0.0,0.0,0.0,0.0,0.0,0.0,0.0,0.0,0.0,0.0,0.0,0.0,0.0,0.0,0.0,0.0,0.0,0.0,0.0,0.0,0.0,0.0,0.0,0.0,0.0,0.0,0.0,0.0,0.0,0.0,0.0,0.0,0.0,0.0,0.0,3.5695,3.7221,0.0,0.0,0.0,0.0,0.0,0.0,0.0,0.0,3.5089,0.0,0.0,0.0,0.0,0.0,0.0,0.0,0.0,0.0,0.0,0.0,0.0,0.0,0.0,0.0,0.0,0.0,0.0,0.0,0.0,0.0,0.0,0.0,0.0,0.0,0.0,0.0,0.0,0.0,0.0,0.0,0.0,0.0,0.0,0.0,0.0,0.0,0.0,0.0,0.0,0.0,0.0,0.0,0.0,0.0,0.0,0.0,0.0,0.0,0.0,0.0,0.0,0.0,0.0,0.0,4.0385,4.3292,4.6666,5.0548,5.149,5.1528,5.0664,4.7752,4.3975,0.0,0.0,0.0,0.0,0.0,0.0,0.0,0.0,0.0,0.0,0.0,0.0,0.0,0.0,0.0,0.0,0.0,0.0,0.0,0.0,0.0,0.0,0.0,0.0,0.0,0.0,0.0,0.0,0.0,0.0,0.0,0.0,0.0,0.0,0.0,0.0,0.0,0.0,0.0,0.0,3.7838,3.9019,3.9863,0.0,0.0,0.0,0.0,0.0,0.0,3.6279,3.5241,0.0,0.0,0.0,0.0,0.0,0.0,0.0,0.0,0.0,0.0,0.0,0.0,0.0,0.0,0.0,0.0,0.0,0.0,0.0,0.0,0.0,0.0,0.0,0.0,0.0,0.0,0.0,0.0,0.0,0.0,0.0,0.0,0.0,0.0,0.0,0.0,0.0,0.0,0.0,0.0,0.0,0.0,0.0,0.0,0.0,0.0,0.0,0.0,0.0,0.0,0.0,0.0,0.0,0.0,0.0,3.8626,4.2747,4.6661,5.024,5.0433,5.0356,5.0087,4.5758,4.1991,0.0,0.0,0.0,0.0,0.0,0.0,0.0,0.0,0.0,0.0,0.0,0.0,0.0,0.0,0.0,0.0,0.0,0.0,0.0,0.0,0.0,0.0,0.0,0.0,0.0,0.0,0.0,0.0,0.0,0.0,0.0,0.0,0.0,0.0,0.0,0.0,0.0,0.0,0.0,0.0,0.0,4.0744,4.1075,4.0671,0.0,0.0,0.0,0.0,3.8872,3.7781,0.0,0.0,0.0,0.0,0.0,0.0,0.0,0.0,0.0,0.0,0.0,0.0,0.0,0.0,0.0,0.0,0.0,0.0,0.0,0.0,0.0,0.0,0.0,0.0,0.0,0.0,0.0,0.0,0.0,0.0,0.0,0.0,0.0,0.0,0.0,0.0,0.0,0.0,0.0,0.0,0.0,0.0,0.0,0.0,0.0,0.0,0.0,0.0,0.0,0.0,0.0,0.0,0.0,0.0,0.0,0.0,3.8588,4.2176,4.5819,4.9298,4.9567,4.9183,4.8394,4.5632,4.2294,0.0,0.0,0.0,0.0,0.0,0.0,0.0,0.0,0.0,0.0,0.0,0.0,0.0,0.0,0.0,0.0,0.0,0.0,0.0,0.0,0.0,0.0,0.0,0.0,0.0,0.0,0.0,0.0,0.0,0.0,0.0,0.0,0.0,0.0,0.0,0.0,0.0,0.0,0.0,0.0,0.0,4.258,4.1295,4.1662,4.1442,0.0,0.0,3.9662,4.0675,4.1754,0.0,0.0,0.0,0.0,0.0,0.0,0.0,0.0,0.0,0.0,0.0,0.0,0.0,0.0,0.0,0.0,0.0,0.0,0.0,0.0,0.0,0.0,0.0,0.0,0.0,0.0,0.0,0.0,0.0,0.0,0.0,0.0,0.0,0.0,0.0,0.0,0.0,0.0,0.0,0.0,0.0,0.0,0.0,0.0,0.0,0.0,0.0,0.0,0.0,0.0,0.0,0.0,0.0,0.0,0.0,3.5817,3.8588,4.21,4.5436,4.8529,4.8664,4.8279,4.7432,4.3564,4.0385,0.0,0.0,0.0,0.0,0.0,0.0,0.0,0.0,0.0,0.0,0.0,0.0,0.0,0.0,0.0,0.0,0.0,0.0,0.0,0.0,0.0,0.0,0.0,0.0,0.0,0.0,0.0,0.0,0.0,0.0,0.0,0.0,0.0,0.0,0.0,0.0,0.0,0.0,0.0,0.0,0.0,0.0,4.3167,4.3828,0.0,0.0,0.0,4.1674,4.2949,0.0,0.0,0.0,0.0,0.0,0.0,0.0,0.0,0.0,0.0,0.0,0.0,0.0,0.0,0.0,0.0,0.0,0.0,0.0,0.0,0.0,0.0,0.0,0.0,0.0,0.0,0.0,0.0,0.0,0.0,0.0,0.0,0.0,0.0,0.0,0.0,0.0,0.0,0.0,0.0,0.0,0.0,0.0,0.0,0.0,0.0,0.0,0.0,0.0,0.0,0.0,0.0,0.0,0.0,0.0,0.0,0.0,3.8264,4.1757,4.4939,4.7683,4.778,4.7511,4.6855,4.2146,0.0,0.0,0.0,0.0,0.0,0.0,0.0,0.0,0.0,0.0,0.0,0.0,0.0,0.0,0.0,0.0,0.0,0.0,0.0,0.0,0.0,0.0,0.0,0.0,0.0,0.0,0.0,2.5107,0.0,0.0,0.0,0.0,0.0,0.0,0.0,0.0,0.0,0.0,0.0,0.0,0.0,0.0,4.3938,4.4342,4.559,4.5993,0.0,0.0,4.3758,4.4563,4.4051,4.2915,0.0,0.0,0.0,0.0,0.0,0.0,0.0,0.0,0.0,0.0,0.0,0.0,0.0,0.0,0.0,0.0,0.0,0.0,0.0,0.0,0.0,0.0,0.0,0.0,0.0,0.0,0.0,0.0,0.0,0.0,0.0,0.0,0.0,0.0,0.0,0.0,0.0,0.0,0.0,0.0,0.0,0.0,0.0,0.0,0.0,0.0,0.0,0.0,0.0,0.0,0.0,0.0,0.0,0.0,0.0,3.743,4.086,4.4097,4.6876,4.6971,4.6952,4.6855,4.2694,3.9653,0.0,0.0,0.0,0.0,0.0,0.0,0.0,0.0,0.0,0.0,0.0,0.0,0.0,0.0,0.0,0.0,0.0,0.0,0.0,0.0,0.0,0.0,0.0,0.0,0.0,0.0,0.0,0.0,0.0,0.0,0.0,0.0,0.0,0.0,0.0,0.0,0.0,0.0,0.0,0.0,0.0,4.4378,4.3644,4.6177,4.7829,0.0,0.0,4.6324,4.4893,4.7752,4.7862,4.1082,0.0,0.0,0.0,0.0,0.0,0.0,0.0,0.0,0.0,0.0,0.0,0.0,0.0,0.0,0.0,0.0,0.0,0.0,0.0,0.0,0.0,0.0,0.0,0.0,0.0,0.0,0.0,0.0,0.0,0.0,0.0,0.0,0.0,0.0,0.0,0.0,0.0,0.0,0.0,0.0,0.0,0.0,0.0,0.0,0.0,0.0,0.0,0.0,0.0,0.0,0.0,0.0,0.0,3.5098,3.7296,4.0482,4.3422,4.597,4.6086,4.6086,4.6086,4.2964,4.0,0.0,0.0,0.0,0.0,0.0,0.0,0.0,0.0,0.0,0.0,0.0,0.0,0.0,0.0,0.0,0.0,0.0,0.0,0.0,0.0,0.0,0.0,0.0,0.0,0.0,0.0,0.0,0.0,2.7077,2.7504,2.9194,0.0,0.0,0.0,0.0,0.0,0.0,0.0,0.0,0.0,0.0,4.4378,4.5553,4.7645,0.0,0.0,4.7829,4.7609,4.6984,4.6984,4.592,4.263,4.1086,0.0,0.0,0.0,0.0,0.0,0.0,0.0,0.0,0.0,0.0,0.0,0.0,0.0,0.0,0.0,0.0,0.0,0.0,0.0,0.0,0.0,0.0,0.0,0.0,0.0,0.0,0.0,0.0,0.0,0.0,0.0,0.0,0.0,0.0,0.0,0.0,0.0,0.0,0.0,0.0,0.0,0.0,0.0,0.0,0.0,0.0,0.0,0.0,0.0,0.0,0.0,0.0,3.5094,3.7756,4.0185,4.2755,4.5509,4.5586,4.5586,4.5509,4.314,4.0331,0.0,0.0,0.0,0.0,0.0,0.0,0.0,0.0,0.0,0.0,0.0,0.0,0.0,0.0,0.0,0.0,0.0,0.0,0.0,0.0,0.0,0.0,0.0,0.0,0.0,0.0,0.0,0.0,2.8237,2.8803,3.1016,0.0,0.0,0.0,0.0,0.0,0.0,0.0,0.0,0.0,0.0,4.4745,4.6214,4.8416,4.9627,4.882,4.8453,4.8233,4.7974,4.6324,4.4527,4.303,0.0,0.0,0.0,0.0,0.0,0.0,0.0,0.0,0.0,0.0,0.0,0.0,0.0,0.0,0.0,0.0,0.0,0.0,0.0,0.0,0.0,0.0,0.0,0.0,0.0,0.0,0.0,0.0,0.0,0.0,0.0,0.0,0.0,0.0,0.0,0.0,0.0,0.0,0.0,0.0,0.0,0.0,0.0,0.0,0.0,0.0,0.0,0.0,0.0,0.0,0.0,0.0,0.0,3.4885,3.88,3.9961,4.2194,4.5432,4.5586,4.5586,4.5547,4.3129,4.0592,3.8007,0.0,0.0,0.0,0.0,0.0,0.0,0.0,0.0,0.0,0.0,0.0,0.0,0.0,0.0,0.0,0.0,0.0,0.0,0.0,0.0,0.0,0.0,0.0,0.0,0.0,0.0,3.102,3.1013,3.1202,0.0,0.0,0.0,0.0,0.0,0.0,0.0,0.0,0.0,0.0,4.2323,4.5553,4.4929,4.8196,5.0325,4.9591,4.882,4.8011,4.7238,4.6396,4.4816,0.0,0.0,0.0,0.0,0.0,0.0,0.0,0.0,0.0,0.0,0.0,0.0,0.0,0.0,0.0,0.0,0.0,0.0,0.0,0.0,0.0,0.0,0.0,0.0,0.0,0.0,0.0,3.166,3.1235,0.0,0.0,0.0,0.0,0.0,0.0,0.0,0.0,0.0,0.0,0.0,3.2891,3.2314,0.0,0.0,0.0,0.0,0.0,0.0,0.0,0.0,0.0,0.0,0.0,0.0,3.4616,3.7921,3.9653,4.1886,4.4645,4.5316,4.5586,4.5586,4.4222,4.1476,3.7238,0.0,0.0,0.0,0.0,0.0,0.0,0.0,0.0,0.0,0.0,0.0,0.0,0.0,0.0,0.0,0.0,0.0,0.0,0.0,0.0,0.0,0.0,0.0,0.0,0.0,3.0219,0.0,0.0,0.0,0.0,0.0,0.0,0.0,0.0,0.0,0.0,0.0,3.7477,3.9606,4.2433,4.4599,4.5369,4.7131,4.8233,0.0,0.0,0.0,0.0,0.0,0.0,0.0,0.0,0.0,0.0,0.0,0.0,0.0,0.0,4.2316,3.8585,3.79,3.8131,3.8962,0.0,0.0,0.0,0.0,0.0,0.0,0.0,0.0,0.0,0.0,0.0,0.0,0.0,0.0,0.0,0.0,3.2654,0.0,0.0,0.0,0.0,0.0,0.0,0.0,0.0,3.3532,3.4122,3.4622,3.4083,3.3776,0.0,3.384,3.2543,0.0,0.0,0.0,0.0,0.0,0.0,0.0,0.0,3.4798,3.7661,3.9569,4.1732,4.4166,4.5163,4.5586,4.5547,4.3876,4.0877,3.6416,3.2814,3.0737,0.0,0.0,0.0,0.0,0.0,0.0,0.0,0.0,0.0,0.0,0.0,0.0,0.0,0.0,0.0,0.0,0.0,0.0,0.0,0.0,0.0,0.0,0.0,3.1066,0.0,0.0,0.0,0.0,0.0,0.0,0.0,0.0,0.0,3.6608,3.7211,3.8542,4.1185,4.291,4.4268,4.5333,0.0,0.0,0.0,0.0,0.0,0.0,0.0,4.423,4.3936,4.3495,4.313,4.313,4.4232,4.4856,4.4048,0.0,0.0,4.0166,3.9365,3.9433,4.023,4.0561,4.0818,4.1075,4.1332,4.1442,0.0,0.0,0.0,0.0,0.0,0.0,0.0,0.0,3.0906,3.1801,0.0,3.2468,0.0,0.0,0.0,0.0,0.0,0.0,0.0,0.0,3.4891,3.5661,3.5699,3.5661,3.4737,3.3378,3.6293,3.57,3.1868,3.0078,0.0,0.0,0.0,0.0,0.0,0.0,3.5391,3.7892,3.9591,4.1694,4.4166,4.5086,4.5547,4.547,4.2277,3.9008,3.5776,3.4622,3.3006,3.0648,3.1879,0.0,0.0,0.0,0.0,0.0,0.0,0.0,0.0,0.0,0.0,0.0,0.0,0.0,0.0,0.0,0.0,0.0,0.0,0.0,0.0,3.1386,0.0,0.0,0.0,0.0,0.0,0.0,0.0,0.0,0.0,0.0,3.7577,3.8962,4.0565,4.2286,0.0,0.0,0.0,0.0,4.7021,4.702,4.7093,4.7311,4.8011,4.6874,4.5626,4.4851,0.0,0.0,4.4856,4.548,4.57,4.4892,4.4156,4.3569,4.3458,4.2616,4.2396,4.3094,4.2727,4.2653,4.324,4.2873,4.2249,3.7522,0.0,0.0,0.0,0.0,3.5442,3.5367,3.5095,3.5018,3.4557,3.389,3.3711,0.0,0.0,0.0,0.0,0.0,0.0,3.5762,3.6584,3.77,3.8507,3.9046,3.8469,3.7969,3.7454,3.6598,3.5584,3.4361,3.2097,3.1364,3.217,0.0,0.0,0.0,0.0,3.4507,3.7007,3.8768,4.087,4.3393,4.4261,4.4645,4.468,4.1947,3.9469,3.7353,3.4699,3.2968,3.2199,3.0917,0.0,0.0,0.0,0.0,0.0,0.0,0.0,0.0,0.0,0.0,0.0,0.0,0.0,0.0,0.0,0.0,0.0,0.0,0.0,3.2428,3.2684,3.3327,0.0,0.0,0.0,0.0,0.0,0.0,0.0,0.0,0.0,3.9926,4.0459,4.1989,0.0,0.0,4.4488,4.6177,4.5847,4.559,4.614,0.0,0.0,0.0,4.6212,4.5845,4.5589,4.6506,4.7278,4.7278,4.7462,4.7168,4.581,4.5097,4.4564,4.3931,4.3018,4.2433,4.2653,4.3351,4.4048,4.4268,4.4158,4.3975,4.0521,3.8398,3.6836,3.6258,3.6431,3.6844,3.679,3.6454,3.6392,3.5944,3.5239,3.5046,3.4262,3.3142,3.3441,0.0,0.0,0.0,3.6839,3.8046,3.8892,3.97,4.0446,4.0008,3.9431,3.8747,3.7584,3.6479,3.5499,3.3942,3.3442,3.3853,0.0,0.0,3.2429,3.3083,3.4507,3.6661,3.8407,4.0369,4.2524,4.3393,4.3662,4.3272,4.1793,4.0085,3.8046,3.5699,3.393,3.2929,3.1775,3.1121,0.0,0.0,0.0,0.0,0.0,0.0,0.0,0.0,0.0,0.0,0.0,2.9292,2.8778,0.0,0.0,0.0,3.0505,3.1934,3.3063,3.3317,0.0,0.0,0.0,0.0,0.0,0.0,0.0,3.8266,3.884,3.979,4.135,4.2145,4.3569,4.6287,4.5369,4.5112,4.6874,0.0,4.548,4.625,4.6361,4.6471,4.6801,4.6835,4.6832,4.6832,4.7642,4.8306,4.8306,4.8306,4.7829,4.6691,4.5978,4.5403,4.4628,4.4022,4.3606,4.3532,4.4636,4.5626,4.5663,4.5663,4.559,4.3134,4.2383,3.9883,3.8281,3.7383,3.7346,3.6871,3.61,3.6138,3.6434,3.6935,3.6291,3.6337,3.689,3.6352,0.0,0.0,3.6421,3.757,3.82,3.9008,3.9815,4.06,4.0546,3.9662,3.8108,3.8869,3.7945,3.5685,3.5534,3.5457,3.5339,3.3083,3.1891,3.1968,3.343,3.5007,3.6699,3.833,4.0038,4.1786,4.2563,4.2601,4.1709,4.1639,4.0431,3.8007,3.7046,3.5468,3.3083,3.366,3.2981,3.0737,0.0,0.0,0.0,0.0,0.0,0.0,0.0,0.0,0.0,0.0,0.0,0.0,0.0,0.0,0.0,3.032,0.0,3.2372,3.3509,0.0,0.0,0.0,3.6995,3.7562,3.7546,3.7911,3.9091,0.0,0.0,0.0,0.0,4.4967,4.57,4.5847,4.625,4.7205,4.6581,4.6287,4.7095,4.7168,4.7463,4.8012,4.8157,4.8157,4.8157,4.8343,4.8416,4.8343,4.8306,4.8012,4.7058,4.6641,4.6062,4.5287,4.5387,4.5735,4.5363,4.6287,4.7095,4.7131,4.6948,4.6581,4.4387,4.4258,4.2969,4.1133,3.918,3.9791,3.9535,3.8719,3.8684,3.8442,3.7928,3.7204,3.6638,3.628,3.6757,3.6771,3.6495,3.8209,3.93,3.9892,4.0123,4.0662,4.1431,4.0816,3.9969,3.9008,3.8507,3.7647,3.644,3.5815,3.5147,3.4505,3.3916,3.3622,3.3622,3.4007,3.5007,3.6699,3.7777,3.9431,4.1716,4.2002,4.1694,4.0831,4.0215,3.8984,3.7084,3.6238,3.4891,3.3045,3.3082,3.2671,3.1492,3.2774,0.0,0.0,0.0,0.0,0.0,0.0,0.0,0.0,0.0,3.087,3.0246,0.0,3.1718,0.0,3.142,3.2921,3.4527,3.4424,0.0,0.0,3.7046,3.7993,3.8792,3.9725,4.0327,4.0392,4.1398,4.2149,4.2292,4.3684,4.4782,4.5002,4.5516,4.6617,4.86,4.7755,4.7095,4.7829,4.7976,4.8086,4.8233,4.8306,4.8306,4.8306,4.8857,4.9077,4.8416,4.8306,4.7865,4.6507,4.6089,4.5631,4.489,4.5533,4.6253,4.6532,4.7122,4.764,4.7904,4.7058,4.614,4.5414,4.5547,4.5078,4.375,4.207,4.2187,4.1675,4.0863,4.0851,4.0106,3.8883,3.807,3.7528,3.7187,3.7656,3.7985,3.8222,3.9187,3.9915,4.0469,4.0508,4.0777,4.12,4.0739,4.0085,3.9277,3.8815,3.8123,3.7291,3.6815,3.6378,3.5902,3.5493,3.5315,3.5276,3.4584,3.543,3.7815,3.87,3.9815,4.1162,4.087,4.0639,4.0485,3.933,3.8291,3.7315,3.6469,3.543,3.416,3.4404,3.4044,3.2928,3.3891,3.4199,0.0,0.0,0.0,0.0,0.0,0.0,0.0,0.0,0.0,0.0,0.0,3.2999,0.0,3.3412,0.0,3.6281,3.6089,3.6262,3.7199,3.8046,3.8738,3.9238,4.0488,4.1284,4.1329,4.221,4.2835,4.2837,4.3903,4.4856,4.5186,4.592,4.6948,4.8122,4.7939,4.7792,4.8233,4.8306,4.8306,4.8306,4.8306,4.8306,4.8343,4.871,4.8857,4.8379,4.8012,4.7352,4.6213,4.5854,4.5553,4.4813,4.5331,4.6075,4.6391,4.6676,4.7068,4.7611,4.6764,4.581,4.6191,4.6289,4.6289,4.5859,4.5117,4.4336,4.3476,4.2539,4.2578,4.1641,4.0,3.9146,3.8828,3.8945,3.8945,3.9242,3.9785,3.9805,4.0031,4.0508,4.0546,4.0508,4.0508,4.0508,4.0046,3.9315,3.9315,3.883,3.8026,3.7983,3.8007,3.7954,3.7108,3.6776,3.6776,3.5199,3.593,3.9084,4.0023,4.0546,4.0623,3.9877,3.9723,4.0239,3.8715,3.7777,3.7661,3.6969,3.6161,3.543,3.61,3.5843,3.434,3.502,3.5147,0.0,3.4466,0.0,0.0,0.0,0.0,0.0,0.0,0.0,0.0,3.3044,3.4031,3.5837,3.5675,3.6086,3.7521,3.784,3.8046,3.8161,3.8815,3.9354,3.9623,4.0764,4.1701,4.2155,4.2645,4.3193,4.3453,4.4121,4.4819,4.5369,4.625,4.6838,4.7058,4.7719,4.8269,4.8306,4.8306,4.8306,4.8306,4.8306,4.8306,4.8306,4.8343,4.8306,4.8343,4.7572,4.6728,4.6066,4.5642,4.5283,4.4712,4.5137,4.5589,4.5824,4.5786,4.5961,4.6648,4.6287,4.5517,4.6191,4.6289,4.6289,4.6211,4.6055,4.5898,4.4883,4.3476,4.3437,4.2851,4.1836,4.1047,4.0656,4.0703,4.0703,4.0702,4.0732,4.0726,4.0716,4.0639,4.0677,4.06,4.0508,4.0508,4.01,3.9315,3.9315,3.8869,3.7983,3.8007,3.7993,3.7947,3.7147,3.7046,3.7623,0.0,0.0,0.0,3.9738,4.0816,4.1508,4.07,4.0008,3.9508,3.7839,0.0,3.6007,3.5815,3.5353,3.4545,3.5249,0.0,0.0,0.0,0.0,0.0,0.0,0.0,0.0,0.0,0.0,0.0,3.5889,3.4701,3.3423,3.4131,3.5242,3.6412,3.7087,3.7578,3.7886,3.7993,3.8277,3.8969,3.92,3.9815,4.1162,4.2168,4.2814,4.3037,4.3755,4.4083,4.3594,4.3644,4.3791,4.4121,4.5223,4.6067,4.6177,4.7425,4.8269,4.8306,4.8306,4.8306,4.8306,4.8306,4.8306,4.8306,4.8306,4.8306,4.8233,4.7058,4.6177,4.5883,4.5078,4.4458,4.4546,4.4919,4.5344,4.5698,4.5281,4.5087,4.5914,4.548,4.4893,4.6265,0.0,4.6289,4.6289,0.0,4.6289,4.582,4.4961,4.4531,4.3612,4.233,4.1941,4.1523,4.1094,4.1172,4.1133,4.1016,4.1446,4.151,4.139,4.1778,4.1639,4.1123,4.1162,4.07,3.9892,3.9908,3.9662,3.9238,3.9238,3.9223,3.9208,3.8377,3.82,3.8584,3.7392,3.7161,3.8007,3.9662,4.07,4.1085,4.0323,3.99,3.9854,0.0,0.0,0.0,0.0,0.0,0.0,0.0,0.0,0.0,0.0,0.0,3.6766,3.7123,3.7324,3.7333,3.7496,3.7636,3.7775,3.7271,3.631,3.4964,3.5343,3.6315,3.7832,3.8392,3.883,3.92,3.9238,3.9392,3.9854,4.0277,4.0893,4.1777,4.2931,4.3636,4.3627,4.4308,4.4584,4.3818,4.3744,4.3862,4.4121,4.5112,4.603,4.6507,4.7535,4.8306,4.8306,4.7937,4.7862,4.8194,4.8306,4.8306,4.8306,4.8306,4.8306,4.8306,4.6985,4.5883,4.5809,4.4864,4.4125,4.4524,4.4876,4.5118,4.5202,4.519,4.5148,4.5326,4.4672,4.4121,4.6289,4.6289,4.6289,4.6289,4.6289,4.6289,4.6289,4.625,0.0,0.0,0.0,4.2279,4.175,4.1016,4.1133,4.1133,4.1094,4.1758,4.2073,4.205,4.2724,4.2585,4.1816,4.197,4.1508,4.0508,4.0662,4.0623,4.0508,4.0508,4.0508,4.0431,3.97,3.92,3.9046,3.8507,3.8315,3.8507,3.9777,4.0662,4.0931,4.0175,4.006,4.07,3.9123,3.8507,3.9046,3.8392,3.8007,3.8007,3.8681,3.8758,3.8084,3.8667,3.8772,3.805,3.8137,3.8223,3.8216,3.8142,3.8142,3.8223,3.8238,3.7753,3.6613,3.6711,3.7517,3.9154,3.9431,3.9831,4.0623,4.0739,4.0777,4.0931,4.1585,4.2085,4.2316,4.3431,4.4172,4.4128,4.4684,4.4802,4.4095,4.3985,4.4118,4.4488,4.5112,4.6067,4.6948,4.7792,4.8233,4.8014,4.7534,4.7386,4.7901,4.8049,4.8122,4.8269,4.8306,4.8306,4.8086,4.7095,4.6177,4.592,4.4909,4.4358,4.4461,4.4749,4.4876,4.457,4.5043,4.5444,4.481,4.4048,4.3608,4.6289,4.6289,4.6289,4.6289,4.6289,4.6289,4.6289,4.6172,4.4521,4.3656,4.3335,4.1851,4.1107,4.1016,4.1133,4.1211,4.1172,4.1289,4.1612,0.0,4.2193,4.2074,4.1854,4.2585,4.2085,4.0623,4.1239,4.1239,4.0546,4.0508,4.0508,4.0392,3.97,3.8931,3.8277,3.8815,3.9469,4.0123,4.0392,4.1239,4.2662,4.1899,4.1476,4.1546,4.0031,3.88,3.82,3.8123,3.8007,3.8007,3.8099,3.8137,3.8007,3.817,3.8116,3.804,3.8708,3.9092,3.9169,3.9707,3.9838,3.92,3.9123,3.8635,3.7546,3.8338,3.8977,3.9323,3.9931,4.0662,4.147,4.1585,4.1893,4.2585,4.2816,4.3162,4.3778,4.4124,4.4497,4.4836,4.5011,4.4827,4.4204,4.4082,4.4002,4.3862,4.4524,4.5406,4.6764,4.7792,4.794,4.7426,4.7206,4.7168,4.7423,4.7277,4.7645,4.8196,4.8306,4.8306,4.8306,4.7498,4.6691,4.603,4.5184,4.4552,4.4284,4.44,4.4571,4.4321,4.4743,4.4922,4.4849,4.4268,4.3864,4.6289,4.6289,4.6289,4.6289,4.6289,4.6289,4.6289,4.6172,4.4798,4.3918,4.3489,4.3134,4.2482,4.1671,4.2223,4.25,4.2578,4.3047,4.3354,4.3582,4.3956,4.382,4.3338,4.3585,4.3124,4.197,4.1816,4.1585,4.1239,4.12,4.12,4.1162,4.0816,4.0008,3.8854,4.0008,4.0623,4.0508,4.0969,4.1816,4.3047,4.2722,4.2492,4.247,4.1723,4.1184,4.0777,4.0777,4.0354,3.9392,3.9792,3.9653,3.8792,3.9554,4.0092,4.0069,4.0877,4.1377,4.1338,4.17,4.1546,4.0739,4.0662,4.0444,3.9945,3.9522,3.9484,3.9931,4.0723,4.1338,4.1777,4.2239,4.2662,4.3047,4.347,4.3893,4.4278,4.4739,4.5089,4.5323,4.5341,4.5163,4.4653,4.4578,4.437,4.3966,4.4331,4.5186,4.6324,4.7168,4.7682,4.7683,4.7427,4.7316,4.7644,4.7754,4.7939,4.8269,4.8306,4.8306,4.8269,4.7645,4.7021,4.6581,4.559,4.4881,4.4835,4.4731,4.4711,4.5086,4.5514,4.5866,4.5912,4.57,4.5333,4.625,4.625,4.6289,4.6289,4.6289,4.6289,4.6289,4.6211,4.5339,4.4494,4.3836,4.4174,4.3631,4.2558,4.3261,4.3633,4.3789,4.4375,4.4726,4.4883,4.5364,4.5224,4.4568,4.4547,4.4047,4.3162,4.2585,4.2277,4.2124,4.2085,4.2124,4.2085,4.1931,4.1239,4.02,4.1239,4.1662,4.1393,4.2047,4.2701,4.3316,4.3355,4.3355,4.3355,4.3355,4.3316,4.3124,4.3085,4.247,4.12,4.1732,4.1463,4.0308,4.1393,4.2069,4.214,4.2739,4.3107,4.3085,4.3085,4.2816,4.2162,4.2085,4.2085,4.197,4.0947,4.0423,4.1046,4.1723,4.2184,4.247,4.297,4.3431,4.3624,4.4201,4.4586,4.4662,4.5201,4.5586,4.5586,4.5586,4.547,4.5207,4.5082,4.4775,4.4197,4.4549,4.5223,4.5847,4.6617,4.7388,4.7865,4.7647,4.7353,4.7939,4.7937,4.8049,4.8233,4.8306,4.8306,4.8233,4.7755,4.7315,4.7021,4.5957,4.5324,4.5641,4.5321,4.5197,4.5641,4.6271,4.684,4.6651,4.7021,4.6874,4.6133,4.6133,4.625,4.6289,4.6289,4.6289,4.6289,4.625,4.593,4.5336,4.4564,4.3717,4.3404,4.3294,4.3539,4.3711,4.3789,4.3789,4.4219,4.4766,4.478,4.4718,4.4624,4.5163,4.4624,4.3393,4.3722,4.3568,4.3008,4.297,4.297,4.2893,4.22,4.2124,4.2585,4.2124,4.2508,4.3932,4.4047,4.4085,4.4162,4.4179,4.4179,4.4201,4.4184,4.3838,4.3239,4.3085,4.3047,4.2893,4.2893,4.2909,4.2733,4.2887,4.297,4.2996,4.309,4.3107,4.3124,4.3085,4.3124,4.3008,4.297,4.297,4.297,4.2816,4.2739,4.2876,4.2931,4.3278,4.3932,4.4124,4.447,4.5047,4.5278,4.547,4.5432,4.5547,4.5586,4.5586,4.5586,4.547,4.5222,4.517,4.4867,4.43,4.5068,4.5698,4.5773,4.6581,4.7278,4.7865,4.7609,4.7204,4.7386,4.7239,4.7644,4.8196,4.8306,4.8306,4.8269,4.8196,4.8012,4.7352,4.6471,4.5918,4.5934,4.5767,4.5762,4.6166,4.6666,4.6907,4.6426,4.7168,4.7572,4.6125,4.6094,4.625,4.6289,4.6289,4.6289,4.6289,4.625,4.6008,4.5723,4.5389,4.4833,4.4465,4.4229,4.4712,4.5051,4.5234,4.5234,4.5391,4.5664,4.5501,4.5386,4.5351,4.547,4.5201,4.4586,4.4414,4.4145,4.3855,4.3816,4.3816,4.3778,4.3431,4.3239,4.3124,4.3239,4.3624,4.4278,4.4778,4.5086,4.5047,4.5064,4.5064,4.5047,4.5086,4.4932,4.4624,4.4586,4.4316,4.3855,4.3816,4.3585,4.3124,4.3564,4.3816,4.3859,4.4299,4.4586,4.4586,4.4586,4.4355,4.3855,4.3816,4.3816,4.3816,4.3833,4.4025,4.4432,4.4107,4.3953,4.4316,4.4739,4.5201,4.5547,4.5586,4.5586,4.5586,4.5586,4.5586,4.5586,4.5586,4.5547,4.5491,4.5649,4.5565,4.5221,4.5749,4.6052,4.5478,4.6287,4.6947,4.702,4.7314,4.7791,4.7827,4.7791,4.7976,4.8196,4.8306,4.8306,4.8306,4.8306,4.8159,4.7829,4.7095,4.6726,4.6991,4.6525,4.6315,4.6873,4.7604,4.7975,4.7427,4.7829,4.8049,4.6057,4.6075,4.621,4.6289,4.6289,4.6289,4.6289,4.625,4.6008,4.5879,4.589,4.5719,4.5372,4.5147,4.5653,4.6025,4.6289,4.6289,4.6289,4.6289,4.605,4.5929,4.5885,4.5757,4.5624,4.5509,4.4953,4.4684,4.4662,4.4662,4.4662,4.4624,4.4432,4.4124,4.3855,4.4201,4.4432,4.4701,4.5316,4.5586,4.5624,4.5834,4.5834,4.5624,4.5586,4.5586,4.5586,4.5586,4.5316,4.4701,4.4662,4.4393,4.3876,4.4355,4.4662,4.4722,4.524,4.5586,4.5586,4.5586,4.5316,4.4739,4.4662,4.4662,4.4624,4.4641,4.491,4.5393,4.503,4.4645,4.4739,4.524,4.5547,4.5586,4.5586,4.5586,4.5586,4.5586,4.5586,4.5586,4.5586,4.5586,4.5683,4.6146,4.6404,4.5926,4.6339,4.655,4.5733,4.6397,4.6947,4.6616,4.7607,4.8196,4.8306,4.8269,4.8306,4.8306,4.8306,4.8306,4.8306,4.8306,4.8306,4.8012,4.7498,4.7353,4.7568,4.7218,4.7154,4.8134,4.8731,4.8949,4.8753,4.8642,4.8453,4.5891,4.5959,4.62,4.6289,4.6289,4.6289,4.6289,4.6289,4.6014,4.5891,4.5868,4.5719,4.5642,4.5714,4.5863,4.6059,4.6289,4.6289,4.6289,4.6289,4.6133,4.6034,4.5907,4.5834,4.5719,4.5586,4.5509,4.5432,4.547,4.5509,4.5547,4.547,4.4739,4.4701,4.5163,4.4662,4.4739,4.5393,4.5624,4.5624,4.5757,4.6429,4.6467,4.5834,4.5624,4.5701,4.5663,4.5624,4.5586,4.5547,4.547,4.547,4.5432,4.547,4.547,4.5509,4.5547,4.5586,4.5586,4.5586,4.5547,4.5509,4.5432,4.5509,4.5393,4.5411,4.5488,4.5586,4.5509,4.5432,4.5432,4.5509,4.5586,4.5586,4.5586,4.5586,4.5586,4.5586,4.5586,4.5586,4.5663,4.5817,4.574,4.6679,4.6884,4.6581,4.6956,4.7471,4.7091,4.7059,4.7463,4.7868,4.8198,4.8306,4.8306,4.8306,4.8306,4.8306,4.8306,4.8306,4.8306,4.8306,4.8306,4.8196,4.7719,4.7609,4.7979,4.8252,4.8362,4.8834,4.9181,4.937,4.9819,4.8975,4.886,4.6007,4.615,4.6248,4.6289,4.6289,4.6289,4.6289,4.625,4.6122,4.6005,4.5918,4.5796,4.5757,4.5796,4.5866,4.5987,4.6172,4.625,4.6289,4.6289,4.6172,4.6015,4.5914,4.5812,4.5719,4.5586,4.5586,4.5586,4.5586,4.5586,4.5586,4.5547,4.5316,4.5316,4.547,4.5316,4.5316,4.5624,4.6124,4.6432,4.6509,4.7255,4.7524,4.7201,4.7201,4.7201,4.7201,4.6701,4.6432,4.6432,4.5932,4.5586,4.5586,4.5586,4.5586,4.5586,4.5586,4.5586,4.5586,4.5586,4.5586,4.5586,4.5586,4.5586,4.5586,4.5586,4.5586,4.5586,4.5586,4.5586,4.5586,4.5586,4.5586,4.5586,4.5586,4.5586,4.5586,4.5586,4.5586,4.5663,4.6047,4.6606,4.7163,4.8087,4.8433,4.7958,4.8596,4.8683,4.819,4.829,4.8525,4.8385,4.8527,4.8678,4.8674,4.8421,4.8306,4.8306,4.8306,4.8343,4.8343,4.8416,4.8416,4.8489,4.8012,4.7976,4.8458,4.8721,4.8964,4.9556,4.9844,5.0159,5.0844,5.0192,5.0083,4.6026,4.6211,4.6289,4.6289,4.6289,4.6289,4.6289,4.6289,4.6172,4.6025,4.5905,4.5825,4.5796,4.5757,4.5873,4.5944,4.6072,4.6211,4.6289,4.6289,4.6211,4.6072,4.5909,4.5834,4.5757,4.5663,4.5893,4.5893,4.5663,4.5893,4.5855,4.5624,4.5586,4.5586,4.5586,4.5586,4.5701,4.6047,4.6624,4.7009,4.7355,4.8084,4.8508,4.8548,4.8779,4.8625,4.8163,4.7586,4.7163,4.6855,4.6317,4.5893,4.5624,4.5586,4.5586,4.5586,4.5586,4.5586,4.5586,4.5586,4.5586,4.5586,4.5586,4.5586,4.5624,4.5817,4.5855,4.574,4.5893,4.6009,4.6009,4.6047,4.5893,4.5663,4.5586,4.5586,4.5586,4.5586,4.574,4.6124,4.678,4.7491,4.8066,4.8856,4.906,4.8871,4.9377,4.9302,4.8937,4.8853,4.9277,4.9097,4.9243,4.9524,4.9709,4.9639,4.8785,4.86,4.8857,4.8746,4.86,4.86,4.871,4.871,4.871,4.871,4.8827,4.9108,4.9646,5.0278,5.0578,5.0794,5.126,5.1551,5.1343,4.5981,4.6133,4.625,4.6289,4.6289,4.6289,4.6289,4.6289,4.6172,4.6023,4.5901,4.5819,4.5757,4.568,4.5834,4.5916,4.5952,4.6198,4.6289,4.6289,4.6289,4.6144,4.5909,4.5873,4.5873,4.5757,4.6471,4.6432,4.5932,4.6509,4.6509,4.5778,4.574,4.5701,4.5586,4.5701,4.6086,4.6701,4.7009,4.7432,4.8125,4.8951,4.9413,4.9471,5.0125,4.9779,4.8317,4.8163,4.7817,4.7163,4.6971,4.6471,4.5855,4.5624,4.5624,4.5719,4.5663,4.5624,4.574,4.5778,4.5893,4.574,4.5663,4.574,4.5855,4.6278,4.6394,4.6009,4.6355,4.6817,4.6817,4.6855,4.6624,4.5855,4.5893,4.5893,4.5817,4.5701,4.597,4.6894,4.7664,4.8087,4.8337,4.9048,4.9391,4.9197,4.9167,4.9425,4.9629,4.9386,4.9353,5.0241,5.0538,5.0491,5.0775,5.097,4.9857,4.9001,4.9407,4.9517,4.926,4.9224,4.9517,4.9554,4.9556,4.9556,4.9599,4.9881,5.0282,5.0837,5.1092,5.1668,5.2278,5.2623,5.2197,4.5948,4.6094,4.6133,4.6211,4.6289,4.6289,4.6289,4.6289,4.625,4.6094,4.5939,4.5858,4.5757,4.568,4.5796,4.5902,4.5927,4.6172,4.6289,4.6328,4.6292,4.6183,4.5969,4.5911,4.6103,4.6467,4.674,4.7068,4.7318,4.7568,4.7278,4.6642,4.6527,4.6163,4.5701,4.6163,4.6663,4.6971,4.8048,4.874,4.9048,4.9875,5.0298,5.0317,5.0548,5.0394,4.9894,4.9317,4.8894,4.8586,4.8048,4.7355,4.6586,4.5932,4.5911,4.6429,4.6488,4.6778,4.724,4.7278,4.7009,4.6663,4.6509,4.6509,4.6394,4.624,4.6278,4.6394,4.6778,4.6894,4.6971,4.7432,4.7586,4.7355,4.7317,4.724,4.7201,4.7296,4.7758,4.8432,4.8837,4.9221,4.974,5.0202,5.0124,5.0064,5.0061,5.0303,5.0833,5.0803,5.1178,5.2188,5.1852,5.1537,5.1952,5.201,5.1222,5.0401,5.0398,5.0215,4.9958,5.0031,5.0288,5.0398,5.0401,5.0404,5.0411,5.0528,5.0867,5.1752,5.2408,5.3104,5.3805,5.3624,5.3051,4.5893,4.6008,4.6087,4.6133,4.6211,4.6289,4.6289,4.6289,4.6289,4.6133,4.5948,4.5896,4.5796,4.568,4.5796,4.5916,4.5935,4.6172,4.6484,4.668,4.6404,4.6316,4.6319,4.6298,4.6642,4.7314,4.7681,4.7914,4.8087,4.8414,4.8163,4.7471,4.7355,4.7124,4.6586,4.7048,4.7471,4.7971,4.9163,5.001,5.0433,5.1164,5.1645,5.1587,5.1318,5.1318,5.1471,5.051,4.9702,4.9317,4.8586,4.7855,4.7355,4.6855,4.6796,4.7199,4.7373,4.7568,4.8029,4.7991,4.7932,4.7471,4.7355,4.7355,4.7317,4.6971,4.724,4.7278,4.7702,4.7817,4.7932,4.824,4.8702,4.9048,4.8394,4.8163,4.8125,4.8412,4.872,4.9259,4.9663,5.0125,5.051,5.0702,5.0702,5.0702,5.0971,5.1241,5.1856,5.2144,5.2818,5.3255,5.3068,5.2954,5.3156,5.296,5.2557,5.2026,5.1573,5.1059,5.0618,5.0949,5.1242,5.1206,5.1246,5.1242,5.125,5.0919,5.1083,5.2292,5.3434,5.3456,5.3631,5.3965,5.3571,4.5796,4.5819,4.602,4.6094,4.6133,4.6211,4.6289,4.6289,4.6289,4.6147,4.5948,4.5896,4.5796,4.568,4.5796,4.5902,4.5935,4.6172,4.6836,4.7226,4.6955,4.6726,4.719,4.7101,4.7489,4.8374,4.9067,4.9144,4.9029,4.9413,4.9106,4.8472,4.826,4.8086,4.7932,4.8086,4.8509,4.9202,5.024,5.1087,5.1721,5.2587,5.3069,5.301,5.2395,5.2279,5.2626,5.1664,5.051,4.9625,4.8933,4.8452,4.8279,4.8183,4.7971,4.8141,4.8182,4.8298,4.8279,4.8529,4.8394,4.8202,4.8202,4.8163,4.822,4.8451,4.8509,4.826,4.8779,4.924,4.9202,4.9433,4.9779,5.0279,4.9356,4.8586,4.8394,4.9067,4.949,4.9682,5.0164,5.0702,5.0702,5.0741,5.0818,5.0856,5.1395,5.1972,5.2241,5.2818,5.3587,5.3925,5.4135,5.4397,5.4544,5.481,5.4409,5.3899,5.3293,5.2655,5.2018,5.227,5.2417,5.2344,5.2348,5.227,5.227,5.2165,5.2201,5.308,5.3535,5.3275,5.3609,5.4167,5.4429,4.5719,4.583,4.5877,4.5952,4.6094,4.6133,4.6211,4.6289,4.6289,4.6147,4.5939,4.5896,4.5796,4.5642,4.5796,4.5902,4.5957,4.6211,4.7148,4.8242,4.7678,4.761,4.8013,4.7927,4.8586,4.9875,5.0298,5.0894,5.1759,5.1336,5.0779,4.999,4.9375,4.8779,4.8279,4.8779,4.9125,4.9605,5.0894,5.1682,5.2046,5.2836,5.3203,5.3164,5.299,5.2951,5.3203,5.2818,5.2164,5.1279,5.0471,5.001,4.9933,4.8971,4.8644,4.9105,4.9182,4.9394,4.9875,5.001,4.974,4.9125,4.9163,4.9086,4.9009,4.8663,4.8702,4.8894,4.9317,4.9433,4.951,4.9971,5.0433,5.0587,5.0125,4.9856,4.9933,5.0164,5.0375,5.0394,5.0587,5.0741,5.0856,5.1202,5.1356,5.1202,5.1895,5.2856,5.301,5.3587,5.4434,5.5126,5.55,5.5746,5.6038,5.6384,5.6311,5.577,5.5243,5.4781,5.428,5.4106,5.4106,5.3995,5.4044,5.3965,5.4117,5.416,5.4344,5.4075,5.4219,5.4351,5.4651,5.5137,5.5315,4.5624,4.5719,4.5757,4.5866,4.5988,4.6083,4.6133,4.6211,4.6289,4.6147,4.5948,4.5896,4.5834,4.5719,4.5834,4.5928,4.6019,4.6608,4.7617,4.875,4.9042,4.9097,4.9118,4.9086,4.9933,5.1125,5.1587,5.2279,5.2933,5.2664,5.201,5.1241,5.0702,5.001,4.9356,4.9625,5.0125,5.0625,5.1779,5.2587,5.3028,5.3797,5.4203,5.4164,5.3951,5.3643,5.3356,5.3857,5.3703,5.2664,5.201,5.1761,5.1702,5.0836,5.049,5.0991,5.101,5.1279,5.1625,5.1741,5.1356,5.0664,5.0433,5.024,4.9971,4.9433,4.951,4.9856,4.9933,4.9933,5.001,5.0433,5.0664,5.0664,5.0702,5.0702,5.0702,5.0625,5.0664,5.0741,5.0971,5.1202,5.1221,5.1913,5.2125,5.2164,5.2933,5.351,5.3857,5.4549,5.5241,5.5895,5.6494,5.6759,5.7276,5.7709,5.7412,5.6983,5.6509,5.6195,5.5845,5.5551,5.5244,5.514,5.5441,5.5631,5.5558,5.5367,5.514,5.5,5.5221,5.5303,5.5492,5.5832,5.5997,4.5586,4.5586,4.5719,4.5796,4.5827,4.5995,4.6055,4.6094,4.6172,4.6123,4.5929,4.592,4.5834,4.5796,4.5857,4.5973,4.6113,4.7025,4.8125,4.9219,5.0102,5.061,5.026,5.051,5.1279,5.2241,5.301,5.3395,5.3626,5.351,5.2856,5.2202,5.201,5.1471,5.0702,5.0818,5.1318,5.1779,5.2761,5.3608,5.4203,5.4934,5.5318,5.5318,5.5164,5.4605,5.4395,5.4895,5.5203,5.3857,5.3531,5.3241,5.328,5.3223,5.3031,5.2915,5.2779,5.2895,5.3105,5.2933,5.2818,5.2087,5.1972,5.1702,5.101,5.0702,5.0702,5.0779,5.0818,5.0894,5.1087,5.1048,5.1164,5.1241,5.1125,5.101,5.0933,5.0818,5.0702,5.0856,5.151,5.1836,5.2239,5.2721,5.328,5.2741,5.3587,5.4241,5.4664,5.5241,5.5934,5.6626,5.7148,5.7649,5.8335,5.9042,5.8498,5.797,5.7486,5.7075,5.67,5.6381,5.6029,5.5985,5.6316,5.6389,5.6235,5.6043,5.5823,5.5757,5.5902,5.5815,5.5845,5.6344,5.6625,4.5586,4.5586,4.5624,4.5719,4.5791,4.5834,4.5897,4.5942,4.5988,4.5939,4.5834,4.583,4.5757,4.5659,4.5827,4.5919,4.6095,4.7148,4.8398,4.9922,5.0725,5.1463,5.1587,5.1741,5.251,5.3549,5.4049,5.4511,5.4857,5.4374,5.3759,5.3049,5.2856,5.2202,5.1125,5.1933,5.2318,5.2318,5.3415,5.4203,5.4626,5.5357,5.5818,5.5895,5.6203,5.6357,5.628,5.6511,5.6857,5.6665,5.5412,5.4434,5.4241,5.3682,5.3413,5.3395,5.3318,5.328,5.3241,5.3356,5.3164,5.301,5.2895,5.2587,5.1779,5.1625,5.1664,5.1664,5.1664,5.1895,5.2356,5.2607,5.2492,5.2433,5.2472,5.251,5.2433,5.151,5.1183,5.153,5.1876,5.2144,5.2871,5.3682,5.3895,5.3587,5.4087,5.4934,5.5472,5.5934,5.6626,5.7357,5.8033,5.8534,5.9111,5.9681,5.9409,5.8821,5.8315,5.8029,5.7612,5.7228,5.6867,5.6932,5.7226,5.7143,5.6923,5.6785,5.6528,5.6528,5.6528,5.6528,5.6638,5.7005,5.7389,4.5586,4.5586,4.5586,4.5624,4.5719,4.5796,4.5812,4.5854,4.5919,4.5849,4.5791,4.5796,4.5757,4.568,4.58,4.5919,4.6353,4.7578,4.9141,5.0586,5.1488,5.2221,5.2911,5.3167,5.378,5.4549,5.4895,5.5318,5.5472,5.5241,5.4605,5.3874,5.3818,5.3164,5.2049,5.2779,5.3164,5.3318,5.3954,5.4647,5.5126,5.5857,5.6609,5.6857,5.7357,5.7588,5.7588,5.7588,5.7857,5.7857,5.7027,5.6028,5.5588,5.4874,5.4413,5.4357,5.4395,5.4357,5.4395,5.4357,5.4241,5.3857,5.3818,5.3318,5.2779,5.2492,5.2492,5.251,5.2528,5.2721,5.3126,5.3164,5.3203,5.3203,5.3203,5.3203,5.3087,5.2395,5.1991,5.2512,5.2915,5.3318,5.3913,5.4528,5.4818,5.4626,5.4741,5.5549,5.6165,5.6665,5.7434,5.8165,5.888,5.9457,5.9919,6.0242,6.0234,5.9674,5.9046,5.8877,5.8653,5.8211,5.774,5.774,5.7666,5.7776,5.7593,5.7455,5.7308,5.7299,5.7336,5.7373,5.7463,5.7671,5.8136,4.5586,4.5586,4.5586,4.5586,4.5624,4.5719,4.5757,4.5774,4.5834,4.5791,4.5796,4.5757,4.5757,4.5757,4.5813,4.5997,4.6914,4.8008,4.9648,5.1211,5.2031,5.2773,5.3491,5.4104,5.4608,5.4724,5.528,5.5665,5.5665,5.5626,5.5126,5.4605,5.4643,5.3972,5.3356,5.3549,5.3895,5.4241,5.4839,5.534,5.5955,5.6725,5.7495,5.7934,5.8357,5.8473,5.8473,5.8473,5.8588,5.8665,5.8473,5.7973,5.7396,5.6609,5.6109,5.6088,5.6088,5.6088,5.6088,5.6049,5.578,5.4972,5.4895,5.4357,5.3703,5.3377,5.3377,5.3472,5.3528,5.3699,5.3587,5.3818,5.378,5.3703,5.3664,5.3587,5.3587,5.3587,5.3569,5.3455,5.3743,5.4087,5.4605,5.5164,5.5472,5.5742,5.5857,5.6126,5.6742,5.7473,5.8242,5.8858,5.9534,5.9958,6.0358,6.055,6.058,6.0391,5.983,5.9757,5.9587,5.9255,5.8787,5.8033,5.7923,5.8033,5.8033,5.7776,5.7776,5.796,5.7923,5.774,5.7921,5.8332,5.8791,4.5586,4.5586,4.5586,4.5586,4.5586,4.5624,4.5624,4.5642,4.568,4.5642,4.5624,4.5624,4.5642,4.568,4.5757,4.6646,4.7851,4.875,4.9766,5.1328,5.2266,5.3086,5.3623,5.4532,5.5049,5.5434,5.5665,5.5703,5.5703,5.5665,5.5318,5.4797,5.5126,5.4741,5.4126,5.4434,5.4818,5.4818,5.5588,5.634,5.6763,5.755,5.8204,5.8588,5.905,5.9281,5.9319,5.9358,5.9627,6.0165,5.905,5.8742,5.8742,5.8248,5.7863,5.7649,5.761,5.7533,5.7572,5.7703,5.7357,5.6819,5.6511,5.5703,5.4741,5.4318,5.4357,5.4434,5.478,5.5203,5.528,5.5049,5.5203,5.5241,5.5126,5.5126,5.5203,5.5049,5.4916,5.459,5.4647,5.4818,5.5395,5.5818,5.6049,5.6395,5.6665,5.6896,5.7357,5.8204,5.9088,5.9627,6.0089,6.0435,6.0742,6.0781,6.0873,6.0904,6.0599,6.061,6.0453,6.029,5.9799,5.9108,5.8492,5.8364,5.829,5.8253,5.829,5.8547,5.829,5.8033,5.8473,5.8836,5.8967,4.5323,4.5381,4.5532,4.5586,4.5586,4.5586,4.5586,4.5586,4.5586,4.5586,4.5586,4.5586,4.5586,4.5624,4.568,4.6771,4.8242,4.8826,4.9813,5.1273,5.2608,5.33,5.37,5.4746,5.5378,5.5665,5.5703,5.5703,5.5703,5.5703,5.5511,5.5357,5.5549,5.5241,5.4818,5.5203,5.5472,5.5434,5.5972,5.6665,5.7165,5.8219,5.9027,5.9627,5.9858,6.0127,6.0165,6.0165,6.0358,6.055,6.005,5.9896,5.9935,5.9804,5.921,5.8572,5.838,5.8319,5.8319,5.828,5.7857,5.7165,5.7357,5.6819,5.578,5.5434,5.5511,5.5318,5.5318,5.5703,5.5626,5.5742,5.5895,5.6165,5.6049,5.6011,5.6126,5.5972,5.5801,5.563,5.5532,5.5703,5.6181,5.6527,5.6665,5.6973,5.7396,5.7742,5.805,5.8858,5.9742,6.0165,6.055,6.0781,6.1127,6.1373,6.1411,6.1453,6.1573,6.1597,6.1495,6.1379,6.089,6.0203,5.962,5.9348,5.9291,5.9475,5.9328,5.9108,5.8914,5.8841,5.9081,5.9309,5.9478,4.4988,4.5011,4.5381,4.5475,4.5494,4.5568,4.5586,4.5586,4.5586,4.5719,4.5834,4.568,4.5719,4.5873,4.61,4.6868,4.8448,4.8868,4.994,5.1266,5.2877,5.3587,5.3933,5.4895,5.5818,5.5703,5.6049,5.5857,5.5703,5.5703,5.5818,5.5972,5.5972,5.6088,5.6242,5.6434,5.6242,5.6242,5.6434,5.6874,5.7889,5.9042,6.0065,6.0704,6.0781,6.0742,6.0704,6.0973,6.105,6.1127,6.105,6.1151,6.1243,6.1127,6.0419,5.9303,5.8934,5.8819,5.8858,5.8896,5.8704,5.7934,5.8242,5.7588,5.6819,5.6571,5.6609,5.6126,5.6011,5.6203,5.6434,5.628,5.6626,5.6896,5.6742,5.6434,5.6857,5.6956,5.6879,5.6686,5.6456,5.6665,5.7181,5.7297,5.7434,5.7703,5.8127,5.8511,5.8896,5.9435,6.0165,6.0589,6.0935,6.1127,6.1488,6.2079,6.218,6.231,6.2595,6.2775,6.2656,6.256,6.2142,6.1885,6.1471,6.12,6.0987,6.0467,6.0015,5.9758,5.9612,5.9612,5.9732,5.9872,6.0004,4.4676,4.4701,4.5011,4.5159,4.5201,4.5457,4.5586,4.5586,4.5586,4.6065,4.6583,4.6026,4.6065,4.6604,4.676,4.7372,4.8373,4.9264,5.014,5.1266,5.2779,5.3528,5.3703,5.5126,5.578,5.5934,5.6511,5.6319,5.6011,5.5818,5.6203,5.6681,5.6819,5.7126,5.7588,5.7588,5.8011,5.805,5.8588,5.9281,5.9973,6.0396,6.0627,6.0742,6.0858,6.0935,6.1089,6.1512,6.1897,6.1935,6.192,6.2305,6.2728,6.2267,6.2021,6.1458,6.1035,6.0473,6.0358,6.0204,5.9819,5.9088,5.9242,5.8819,5.8088,5.728,5.7049,5.6934,5.6857,5.7088,5.755,5.7835,5.805,5.8011,5.7857,5.7819,5.805,5.7665,5.761,5.794,5.7726,5.7896,5.828,5.8219,5.8219,5.8511,5.8858,5.9281,5.9627,6.0089,6.0627,6.1074,6.142,6.1627,6.2142,6.2694,6.3194,6.332,6.3789,6.4197,6.4476,6.4537,6.4292,6.4004,6.3519,6.2632,6.1982,6.136,6.0713,6.0444,6.0493,6.0382,6.0309,6.0461,6.0646,4.4085,4.4296,4.4662,4.4825,4.4872,4.518,4.5303,4.5361,4.5532,4.6065,4.6737,4.6565,4.6778,4.7355,4.7222,4.7756,4.8894,4.9591,5.0225,5.1208,5.255,5.3433,5.3741,5.4934,5.5857,5.6434,5.6742,5.6819,5.6511,5.6549,5.6896,5.7489,5.728,5.7357,5.8396,5.8319,5.828,5.8473,5.9011,5.9627,6.0089,6.0512,6.0781,6.0819,6.1243,6.1473,6.1704,6.232,6.2743,6.2781,6.2743,6.2921,6.3152,6.2935,6.2704,6.2344,6.2041,6.1478,6.0902,6.0834,6.0358,5.9973,5.9858,5.9819,5.905,5.8242,5.7742,5.7726,5.7742,5.8011,5.8242,5.828,5.8627,5.8742,5.8742,5.8819,5.8781,5.8396,5.8303,5.8649,5.8995,5.9127,5.9204,5.9088,5.9204,5.9588,5.9781,6.0012,6.0242,6.0473,6.1035,6.1574,6.1882,6.219,6.2834,6.3501,6.4372,6.4782,6.5551,6.6011,6.6604,6.6695,6.6215,6.5755,6.5272,6.4316,6.3147,6.2463,6.2034,6.1704,6.141,6.152,6.163,6.1202,6.155,4.3642,4.3928,4.4288,4.4428,4.4482,4.4811,4.5011,4.5159,4.5342,4.6127,4.7066,4.7412,4.7778,4.8009,4.7875,4.8394,4.949,4.9856,5.0317,5.1241,5.2356,5.3203,5.3741,5.4857,5.6165,5.7049,5.7319,5.7357,5.7412,5.7588,5.7934,5.828,5.7703,5.8088,5.8704,5.9088,5.9127,5.9204,5.9627,5.9935,6.0089,6.0512,6.0742,6.105,6.155,6.2127,6.2243,6.3166,6.3589,6.3628,6.3628,6.3782,6.4051,6.368,6.3294,6.2978,6.2749,6.2144,6.1431,6.1027,6.0622,6.0488,6.0242,6.0319,5.9511,5.8896,5.8627,5.8588,5.8588,5.8704,5.8896,5.9011,5.9358,5.9511,5.9435,5.955,5.9588,5.9319,5.9242,5.9588,5.9919,6.005,6.0089,5.9973,6.0165,6.0589,6.0781,6.0781,6.0896,6.0935,6.1458,6.2036,6.2844,6.319,6.3705,6.4411,6.5295,6.6128,6.6936,6.7641,6.8147,6.8033,6.7496,6.7125,6.6845,6.582,6.4635,6.3996,6.3429,6.3319,6.3209,6.3135,6.3025,6.2511,6.2788,4.3497,4.3566,4.3881,4.4028,4.4095,4.4455,4.48,4.4988,4.5137,4.6242,4.7874,4.872,4.8663,4.8471,4.8817,4.9125,4.951,5.024,5.0548,5.1241,5.2279,5.301,5.3703,5.4818,5.6203,5.7126,5.7819,5.8204,5.8357,5.8704,5.8665,5.8357,5.828,5.9242,5.9935,6.0165,6.0204,6.0242,6.0473,6.055,6.055,6.0742,6.0819,6.1089,6.1642,6.2142,6.2243,6.3705,6.4743,6.4782,6.4743,6.5089,6.5397,6.4795,6.4314,6.4037,6.3631,6.3066,6.2447,6.1749,6.1524,6.153,6.1281,6.0627,5.9796,5.9588,5.9435,5.9412,5.9435,5.9742,6.0165,6.0589,6.0358,6.0281,6.0127,6.0204,6.0319,6.0358,6.0358,6.0589,6.0666,6.0627,6.0589,6.0396,6.0358,6.0742,6.0819,6.0858,6.1243,6.1435,6.192,6.2613,6.3792,6.4345,6.4666,6.5513,6.6628,6.7282,6.7936,6.8744,6.9525,6.9155,6.877,6.8536,6.8148,6.7105,6.626,6.5743,6.5372,6.522,6.4971,6.4457,6.4237,6.3906,6.4483,4.3497,4.3495,4.3627,4.3693,4.3726,4.4095,4.4318,4.4508,4.4919,4.624,4.8163,4.8971,4.951,4.9586,4.9337,4.974,5.0164,5.0471,5.0664,5.101,5.1818,5.2626,5.351,5.4895,5.6395,5.7665,5.8588,5.9027,5.9104,5.9473,5.9335,5.9104,5.9011,5.9704,6.0435,6.0781,6.0781,6.0781,6.0781,6.0781,6.0781,6.0819,6.105,6.1627,6.2397,6.3411,6.4359,6.5013,6.5936,6.6474,6.6282,6.6654,6.7,6.6282,6.579,6.546,6.4949,6.4487,6.391,6.2967,6.2194,6.1953,6.1704,6.1243,6.0473,6.0319,6.0281,6.0319,6.0319,6.0589,6.0666,6.0781,6.0704,6.0781,6.0819,6.0896,6.0781,6.0781,6.0781,6.0742,6.0742,6.0742,6.0742,6.0742,6.0742,6.0781,6.0858,6.0973,6.1435,6.205,6.2613,6.3383,6.4537,6.5436,6.5795,6.6872,6.8025,6.8475,6.8898,6.9783,7.0552,7.0448,7.0076,6.9878,6.9505,6.8625,6.7942,6.7518,6.6925,6.6103,6.5543,6.5176,6.5066,6.5139,6.5693,4.3497,4.3497,4.3497,4.3497,4.3529,4.3758,4.3912,4.4125,4.4799,4.6329,4.8316,4.9106,4.9875,5.0317,5.0144,5.0067,5.051,5.0664,5.0664,5.1125,5.1856,5.2549,5.3664,5.5126,5.6896,5.8204,5.905,5.9473,5.945,5.9719,5.9681,5.9604,5.9796,6.0319,6.0589,6.0781,6.0781,6.0781,6.0781,6.0781,6.0781,6.0819,6.1204,6.2012,6.2781,6.4051,6.5243,6.6051,6.6859,6.7552,6.7782,6.7808,6.7885,6.7784,6.7237,6.6751,6.6256,6.5865,6.5336,6.4482,6.2985,6.2437,6.2449,6.2089,6.1689,6.1343,6.1189,6.1189,6.1204,6.1204,6.1204,6.1512,6.1512,6.1589,6.1435,6.1358,6.0935,6.0781,6.0781,6.0781,6.0819,6.0935,6.1512,6.155,6.1281,6.1281,6.132,6.1512,6.1897,6.2589,6.3498,6.4345,6.5384,6.6244,6.6961,6.8025,6.891,6.9321,6.986,7.0821,7.1398,7.1398,7.1601,7.1628,7.1121,7.0193,6.9482,6.8855,6.7679,6.6512,6.6276,6.6276,6.6459,6.6586,6.6316,4.3497,4.3497,4.3497,4.3497,4.3461,4.3495,4.3693,4.4085,4.4901,4.6561,4.8594,4.9238,4.9894,5.051,5.051,5.0587,5.0625,5.0702,5.0702,5.101,5.201,5.2895,5.3972,5.5395,5.6934,5.8165,5.8934,5.9319,5.9504,5.9988,5.9988,5.9988,6.0281,6.0666,6.0781,6.0781,6.0781,6.0781,6.0781,6.0781,6.0781,6.0819,6.1281,6.2281,6.2911,6.4141,6.6051,6.6628,6.7475,6.859,6.859,6.8552,6.8667,6.7883,6.7349,6.7119,6.6198,6.5683,6.5396,6.5085,6.4367,6.335,6.3526,6.332,6.3099,6.2637,6.2113,6.2151,6.205,6.2065,6.232,6.2589,6.2397,6.2281,6.2127,6.182,6.1396,6.1089,6.1166,6.0973,6.0973,6.1166,6.1973,6.2435,6.2012,6.1897,6.1858,6.2089,6.2512,6.3397,6.4422,6.5461,6.65,6.7487,6.8345,6.9036,6.9756,7.0167,7.0783,7.1706,7.2399,7.2629,7.287,7.3197,7.2493,7.1401,7.0646,7.0041,6.9,6.8054,6.7797,6.776,6.789,6.7871,6.7516,4.3497,4.3497,4.3497,4.3497,4.3497,4.3497,4.3563,4.3906,4.511,4.6819,4.8586,4.9238,4.9894,5.0471,5.0702,5.0702,5.0702,5.0702,5.0702,5.0856,5.1972,5.2626,5.3664,5.5164,5.6665,5.7473,5.828,5.9104,5.9504,5.995,6.0258,6.0396,6.0589,6.0742,6.0781,6.0781,6.0781,6.0781,6.0781,6.0781,6.0781,6.0858,6.1435,6.2743,6.318,6.4603,6.7051,6.7359,6.8052,6.9475,6.9552,6.9475,6.9744,6.9152,6.8745,6.8558,6.7937,6.7696,6.731,6.6976,6.6402,6.5601,6.4967,6.482,6.4229,6.3984,6.3498,6.3089,6.3065,6.3026,6.3051,6.3128,6.3012,6.2974,6.2781,6.2435,6.205,6.182,6.1666,6.132,6.1166,6.195,6.2796,6.3397,6.3166,6.3012,6.3051,6.3281,6.3666,6.4589,6.5628,6.6692,6.7731,6.8794,6.969,7.0333,7.114,7.1783,7.2052,7.2514,7.3091,7.363,7.387,7.4072,7.3338,7.2537,7.1635,7.0879,7.0472,6.9871,6.9522,6.9009,6.8807,6.8697,6.8512,4.3497,4.3497,4.3497,4.3497,4.3534,4.3791,4.4195,4.481,4.5843,4.7261,4.8808,4.9329,4.9894,5.0471,5.0702,5.0702,5.0702,5.0702,5.0702,5.0856,5.1895,5.2664,5.3703,5.5126,5.6742,5.7396,5.8011,5.8796,5.995,5.9681,5.9988,6.055,6.0781,6.0781,6.0781,6.0781,6.0781,6.0781,6.0781,6.0781,6.0781,6.1012,6.1627,6.2757,6.3718,6.4808,6.7179,6.8282,6.8552,7.0052,7.0591,7.0514,7.0898,7.0613,7.0319,7.0308,7.0177,6.9891,6.9506,6.9247,6.8935,6.8727,6.7563,6.6564,6.582,6.5422,6.5089,6.4705,6.4334,6.4257,6.4243,6.4243,6.432,6.432,6.3782,6.3435,6.2858,6.2627,6.2435,6.2074,6.2113,6.2872,6.3655,6.4064,6.4359,6.432,6.4243,6.4512,6.4782,6.5667,6.6551,6.75,6.8693,6.9794,7.0717,7.1486,7.2332,7.3322,7.3476,7.3437,7.3976,7.4514,7.4745,7.4861,7.4205,7.3423,7.2381,7.1648,7.1209,7.1157,7.1138,7.0587,6.9834,6.9559,6.9339,4.3497,4.3497,4.3497,4.3497,4.3608,4.4268,4.5443,4.6838,4.6862,4.7778,4.9372,4.9302,4.9855,5.0548,5.0702,5.0702,5.0702,5.0702,5.0702,5.1087,5.2049,5.2779,5.3857,5.5395,5.6511,5.7588,5.8242,5.8642,6.0319,6.0142,6.0219,6.0627,6.0781,6.0781,6.0781,6.0781,6.0781,6.0781,6.0781,6.0781,6.0781,6.0858,6.1743,6.2757,6.3565,6.5257,6.7179,6.8398,6.936,7.036,7.0975,7.1514,7.1514,7.0909,7.1525,7.1918,7.196,7.156,7.156,7.1286,7.1506,7.1216,6.997,6.8998,6.8052,6.7205,6.6705,6.6487,6.623,6.6064,6.5974,6.6128,6.6282,6.5782,6.5128,6.4512,6.3782,6.3474,6.3358,6.3267,6.3383,6.3998,6.4859,6.532,6.5705,6.5667,6.559,6.5551,6.5897,6.6513,6.7321,6.7936,6.9244,7.0679,7.164,7.2409,7.3293,7.4245,7.4284,7.4361,7.4899,7.5284,7.5399,7.5361,7.5033,7.4236,7.3,7.2335,7.1968,7.1945,7.1982,7.1541,7.066,7.033,7.0146,4.3497,4.3497,4.3497,4.3497,4.3608,4.4342,4.5002,4.5368,4.5642,4.6794,4.8654,4.8881,4.9597,5.0664,5.0702,5.0702,5.0702,5.0702,5.0702,5.1202,5.1972,5.2626,5.3549,5.4741,5.5703,5.6511,5.722,5.8104,5.9127,5.9604,6.0435,6.0781,6.0781,6.0781,6.0781,6.0781,6.0781,6.0781,6.0781,6.0781,6.0781,6.0781,6.1858,6.282,6.3271,6.5257,6.7487,6.8436,6.959,7.1321,7.1745,7.2245,7.2927,7.2706,7.2986,7.2957,7.251,7.205,7.2745,7.2563,7.2635,7.3207,7.2304,7.1409,7.036,6.9256,6.8448,6.8256,6.7845,6.7564,6.7448,6.759,6.759,6.709,6.6551,6.6128,6.5436,6.5089,6.4897,6.4282,6.4422,6.5243,6.6064,6.6782,6.7128,6.7077,6.6962,6.6821,6.6974,6.759,6.8205,6.8859,7.0167,7.1783,7.2524,7.3293,7.4207,7.4976,7.4976,7.513,7.5592,7.5899,7.5976,7.5955,7.5801,7.4829,7.3457,7.3097,7.3112,7.248,7.2386,7.1982,7.1541,7.1211,7.0954,4.3497,4.3497,4.3497,4.3497,4.3571,4.4011,4.4232,4.4375,4.5259,4.6555,4.7786,4.8542,4.9319,5.0106,5.0471,5.0702,5.0702,5.0702,5.0702,5.0971,5.1818,5.2626,5.3433,5.4395,5.5588,5.6165,5.6819,5.778,5.8781,5.9935,6.0781,6.0781,6.0781,6.0781,6.0781,6.0781,6.0781,6.0781,6.0781,6.0781,6.0819,6.0858,6.1858,6.2911,6.3271,6.5308,6.7975,6.8552,7.0129,7.1937,7.236,7.3091,7.3899,7.4207,7.413,7.4178,7.442,7.421,7.4559,7.4657,7.4528,7.435,7.4168,7.3437,7.2283,7.1091,7.0475,6.9986,6.9371,6.8883,6.891,6.8898,6.8629,6.8359,6.8129,6.7859,6.7398,6.6974,6.6244,6.5436,6.5743,6.6564,6.7333,6.8025,6.8321,6.7948,6.7898,6.8052,6.8167,6.8629,6.9283,6.9898,7.1398,7.2937,7.3553,7.4063,7.4899,7.5476,7.5515,7.5745,7.6245,7.6592,7.6784,7.6792,7.6717,7.5694,7.4778,7.4573,7.4438,7.3757,7.323,7.3083,7.2679,7.2092,7.1872,4.3424,4.3497,4.3497,4.3497,4.3497,4.3534,4.3534,4.3713,4.5263,4.6487,4.7078,4.8289,4.9029,4.9663,5.0279,5.0664,5.0702,5.0702,5.0856,5.0856,5.2049,5.2933,5.378,5.478,5.5549,5.6456,5.7341,5.811,5.9435,6.0358,6.0781,6.0781,6.0781,6.0781,6.0781,6.0781,6.0781,6.0781,6.0781,6.0781,6.0858,6.105,6.1627,6.3012,6.3886,6.5154,6.7756,6.9398,7.0552,7.1975,7.3129,7.3976,7.4784,7.5322,7.5207,7.5515,7.6002,7.6233,7.6254,7.6348,7.6301,7.5908,7.5322,7.4822,7.3822,7.214,7.1332,7.1091,7.0448,6.991,6.9756,6.9744,6.959,6.9398,6.9167,6.8859,6.8475,6.8013,6.7398,6.6898,6.7321,6.8025,6.8152,6.8794,6.9167,6.8756,6.8833,6.9167,6.9475,6.9783,7.036,7.1052,7.2426,7.3735,7.4284,7.4861,7.5515,7.5899,7.5899,7.6284,7.6746,7.7207,7.7669,7.7527,7.7367,7.7151,7.6511,7.6102,7.5527,7.4916,7.4478,7.4368,7.3891,7.323,7.2789,4.2951,4.3497,4.3497,4.3497,4.3497,4.3497,4.3497,4.3497,4.3965,4.4972,4.6204,4.7666,4.8753,4.9336,5.0279,5.0702,5.0702,5.0856,5.1087,5.1471,5.2318,5.3318,5.3972,5.4741,5.5434,5.6225,5.7324,5.8787,6.005,6.0666,6.0781,6.0781,6.0781,6.0781,6.0781,6.0781,6.0781,6.0781,6.0781,6.0858,6.0973,6.1612,6.2344,6.3474,6.4424,6.6,6.8256,6.9898,7.1437,7.2976,7.3937,7.4822,7.5668,7.5899,7.6245,7.6698,7.7092,7.7438,7.7523,7.7485,7.7323,7.6899,7.6284,7.5899,7.4899,7.3024,7.1948,7.1794,7.1475,7.0975,7.0629,7.0591,7.0629,7.0437,7.0206,6.986,6.9475,6.8975,6.8475,6.8629,6.8936,6.909,6.914,6.9371,6.9744,7.0014,7.0244,7.0514,7.0744,7.1091,7.1591,7.2322,7.3388,7.4466,7.4976,7.5322,7.5822,7.6092,7.6092,7.6592,7.7246,7.8015,7.8639,7.8218,7.7941,7.795,7.7751,7.7043,7.6499,7.6027,7.561,7.5411,7.5051,7.4441,7.3964,4.3096,4.3461,4.3497,4.3597,4.366,4.3563,4.3497,4.3497,4.3497,4.4045,4.5181,4.6862,4.8112,4.889,5.0028,5.0702,5.0779,5.1125,5.1433,5.1856,5.2702,5.3626,5.4318,5.4857,5.5703,5.6533,5.8033,5.9496,6.0627,6.0781,6.0781,6.0781,6.0781,6.0781,6.0781,6.0781,6.0781,6.0781,6.0819,6.105,6.1281,6.1959,6.2805,6.3897,6.5231,6.6807,6.8525,7.0244,7.2014,7.3707,7.4938,7.5899,7.663,7.7015,7.716,7.7468,7.7823,7.8292,7.8185,7.8177,7.8092,7.7707,7.7053,7.6592,7.6284,7.4524,7.3178,7.2937,7.2091,7.1541,7.1514,7.1448,7.1898,7.1937,7.1475,7.1014,7.0514,7.0014,6.9513,6.9206,6.9513,6.9821,6.9871,7.0025,7.036,7.0591,7.0937,7.1437,7.1783,7.236,7.286,7.3437,7.4427,7.5043,7.5476,7.5707,7.5899,7.6092,7.6399,7.7361,7.8323,7.9131,7.9607,7.9325,7.922,7.9301,7.8904,7.8258,7.7722,7.7356,7.6818,7.638,7.5963,7.5616,7.5322,4.3309,4.3557,4.3627,4.3791,4.3943,4.3693,4.3529,4.3497,4.3497,4.3627,4.4302,4.6234,4.7176,4.8213,4.9698,5.0317,5.0818,5.1125,5.1548,5.2472,5.351,5.4164,5.4741,5.5357,5.6165,5.7165,5.8473,5.9665,6.0742,6.0781,6.0781,6.0781,6.0781,6.0781,6.0781,6.0819,6.0858,6.1089,6.1281,6.1666,6.1997,6.2344,6.3267,6.4359,6.5718,6.6922,6.8717,7.0744,7.2552,7.4053,7.5659,7.6813,7.7438,7.7861,7.8006,7.8237,7.8823,7.8869,7.8685,7.91,7.9015,7.8669,7.79,7.7323,7.6976,7.6169,7.4822,7.3745,7.2927,7.2426,7.2399,7.2447,7.2899,7.3129,7.2552,7.2129,7.1629,7.1091,7.0552,7.0052,7.0206,7.0552,7.0744,7.0898,7.1014,7.1245,7.1591,7.2091,7.2668,7.3437,7.4091,7.4514,7.513,7.5668,7.6053,7.6207,7.6361,7.6861,7.7361,7.84,7.9285,7.9939,8.0439,8.0746,8.0645,8.035,8.0131,7.9664,7.916,7.8443,7.7809,7.7162,7.6677,7.6423,7.657,4.2506,4.3933,4.4233,4.4233,4.4028,4.3906,4.3721,4.3495,4.3495,4.3529,4.4198,4.596,4.729,4.7716,4.9757,5.0664,5.0779,5.1164,5.2049,5.301,5.3664,5.4472,5.5203,5.5742,5.6703,5.7703,5.8627,5.9396,6.055,6.0781,6.0781,6.0781,6.0781,6.0819,6.0819,6.0935,6.1204,6.155,6.2012,6.2435,6.3397,6.3666,6.3666,6.5013,6.6782,6.7705,6.9206,7.1629,7.2899,7.4207,7.589,7.7391,7.8207,7.86,7.8784,7.9015,7.9669,7.9823,7.9792,7.9831,7.9708,7.9554,7.8784,7.8054,7.7669,7.7246,7.5976,7.4755,7.4014,7.3476,7.337,7.3283,7.3514,7.3514,7.3168,7.3091,7.2822,7.2283,7.1772,7.136,7.1206,7.1514,7.1783,7.186,7.1822,7.2052,7.2322,7.286,7.3707,7.4514,7.5245,7.563,7.5976,7.6399,7.6861,7.6899,7.7053,7.763,7.8207,7.9015,7.9785,8.0477,8.0939,8.1054,8.1093,8.0869,8.069,8.0471,7.9896,7.9114,7.8521,7.7942,7.7408,7.7047,7.7047]},{"header":{"parameterUnit":"m.s-1","parameterCategory":1,"la1":31.0,"la2":29.5877,"lo1":-88.7671,"lo2":-86.6584,"dy":0.0162,"dx":0.0185,"nx":115,"ny":88,"refTime":"2024-03-28T12:00:00:Z","depth":0,"parameterNumber":3,"parameterNumberName":"V-component_of_WINDS"},"data":[0.0,0.0,0.0,0.0,0.0,0.0,0.0,0.0,0.0,0.0,0.0,0.0,0.0,0.0,0.0,0.0,0.0,0.0,0.0,0.0,0.0,0.0,0.0,0.0,0.0,0.0,0.0,0.0,0.0,0.0,0.0,0.0,0.0,0.0,0.0,0.0,0.0,0.0,0.0,0.0,0.0,0.0,0.0,0.0,0.0,0.0,0.0,0.0,0.0,0.0,0.0,0.0,0.0,0.0,0.0,0.0,0.0,0.0,0.0,0.0,0.0,0.0,0.0,0.0,0.0,0.0,0.0,0.0,0.0,0.0,0.0,0.0,0.0,0.0,0.0,0.0,0.0,0.0,0.0,0.0,0.0,0.0,0.0,0.0,0.0,0.0,0.0,0.0,0.0,0.0,0.0,0.0,0.0,0.0,0.0,0.0,0.0,0.0,0.0,0.0,0.0,0.0,0.0,0.0,0.0,0.0,0.0,0.0,0.0,0.0,0.0,0.0,0.0,0.0,0.0,0.0,0.0,0.0,0.0,0.0,0.0,0.0,0.0,0.0,0.0,0.0,0.0,0.0,0.0,0.0,0.0,0.0,0.0,0.0,0.0,0.0,0.0,0.0,0.0,0.0,0.0,0.0,0.0,0.0,0.0,0.0,0.0,0.0,0.0,0.0,0.0,0.0,0.0,0.0,0.0,0.0,0.0,0.0,0.0,0.0,0.0,0.0,0.0,0.0,0.0,0.0,0.0,0.0,0.0,0.0,0.0,0.0,0.0,0.0,0.0,0.0,0.0,0.0,0.0,0.0,0.0,0.0,0.0,0.0,0.0,0.0,0.0,0.0,0.0,0.0,0.0,0.0,0.0,0.0,0.0,0.0,0.0,0.0,0.0,0.0,0.0,0.0,0.0,0.0,0.0,0.0,0.0,0.0,0.0,0.0,0.0,0.0,0.0,0.0,0.0,0.0,0.0,0.0,0.0,0.0,0.0,0.0,0.0,0.0,0.0,0.0,0.0,0.0,0.0,0.0,0.0,0.0,0.0,0.0,0.0,0.0,0.0,0.0,0.0,0.0,0.0,0.0,0.0,0.0,0.0,0.0,0.0,0.0,0.0,0.0,0.0,0.0,0.0,0.0,0.0,0.0,0.0,0.0,0.0,0.0,0.0,0.0,0.0,0.0,0.0,0.0,0.0,0.0,0.0,0.0,0.0,0.0,0.0,0.0,0.0,0.0,0.0,0.0,0.0,0.0,0.0,0.0,0.0,0.0,0.0,0.0,0.0,0.0,0.0,0.0,0.0,0.0,0.0,0.0,0.0,0.0,0.0,0.0,0.0,0.0,0.0,0.0,0.0,0.0,0.0,0.0,0.0,0.0,0.0,0.0,0.0,0.0,0.0,0.0,0.0,0.0,0.0,0.0,0.0,0.0,0.0,0.0,0.0,0.0,0.0,0.0,0.0,0.0,0.0,0.0,0.0,0.0,0.0,0.0,0.0,0.0,0.0,0.0,0.0,0.0,0.0,0.0,0.0,0.0,0.0,0.0,0.0,0.0,0.0,0.0,0.0,0.0,0.0,0.0,0.0,0.0,0.0,0.0,0.0,0.0,0.0,0.0,0.0,0.0,0.0,0.0,0.0,0.0,0.0,0.0,0.0,0.0,0.0,0.0,0.0,0.0,0.0,0.0,0.0,0.0,0.0,0.0,0.0,0.0,0.0,0.0,0.0,0.0,0.0,0.0,0.0,0.0,0.0,0.0,0.0,0.0,0.0,0.0,0.0,0.0,0.0,0.0,0.0,0.0,0.0,0.0,0.0,0.0,0.0,0.0,0.0,0.0,0.0,0.0,0.0,0.0,0.0,0.0,0.0,0.0,0.0,0.0,0.0,0.0,0.0,0.0,0.0,0.0,0.0,0.0,0.0,0.0,0.0,0.0,0.0,0.0,0.0,0.0,0.0,0.0,0.0,0.0,0.0,0.0,0.0,0.0,0.0,0.0,0.0,0.0,0.0,0.0,0.0,0.0,0.0,0.0,0.0,0.0,0.0,0.0,0.0,0.0,0.0,0.0,0.0,0.0,0.0,0.0,0.0,0.0,0.0,0.0,0.0,0.0,0.0,0.0,0.0,0.0,0.0,0.0,0.0,0.0,0.0,0.0,0.0,0.0,0.0,0.0,0.0,0.0,0.0,0.0,0.0,0.0,0.0,0.0,0.0,0.0,0.0,0.0,0.0,0.0,0.0,0.0,0.0,0.0,0.0,0.0,0.0,0.0,0.0,0.0,0.0,0.0,0.0,0.0,0.0,0.0,0.0,0.0,0.0,0.0,0.0,0.0,0.0,0.0,0.0,0.0,0.0,0.0,0.0,0.0,0.0,0.0,0.0,0.0,0.0,0.0,0.0,0.0,0.0,0.0,0.0,0.0,0.0,0.0,0.0,0.0,0.0,0.0,0.0,0.0,0.0,0.0,0.0,0.0,0.0,0.0,0.0,0.0,0.0,0.0,0.0,0.0,0.0,0.0,0.0,0.0,0.0,0.0,0.0,0.0,0.0,0.0,0.0,0.0,0.0,0.0,0.0,0.0,0.0,0.0,0.0,0.0,0.0,0.0,0.0,0.0,0.0,0.0,0.0,0.0,0.0,0.0,0.0,0.0,0.0,0.0,0.0,0.0,0.0,0.0,0.0,0.0,0.0,0.0,0.0,0.0,0.0,0.0,0.0,0.0,0.0,0.0,0.0,0.0,0.0,0.0,0.0,0.0,0.0,0.0,0.0,0.0,0.0,0.0,0.0,0.0,0.0,0.0,0.0,0.0,0.0,0.0,0.0,0.0,0.0,0.0,0.0,0.0,0.0,0.0,0.0,0.0,0.0,0.0,0.0,0.0,0.0,0.0,0.0,0.0,0.0,0.0,0.0,0.0,0.0,0.0,0.0,0.0,0.0,0.0,0.0,0.0,0.0,0.0,0.0,0.0,0.0,0.0,0.0,0.0,0.0,0.0,0.0,0.0,0.0,0.0,0.0,0.0,0.0,0.0,0.0,0.0,0.0,0.0,0.0,0.0,0.0,0.0,0.0,0.0,0.0,0.0,0.0,0.0,0.0,0.0,0.0,0.0,0.0,0.0,0.0,0.0,0.0,0.0,0.0,0.0,0.0,0.0,0.0,0.0,0.0,0.0,0.0,0.0,0.0,0.0,0.0,0.0,0.0,0.0,0.0,0.0,0.0,0.0,0.0,0.0,0.0,0.0,0.0,0.0,0.0,0.0,0.0,0.0,0.0,0.0,0.0,0.0,0.0,0.0,0.0,0.0,0.0,0.0,0.0,0.0,0.0,0.0,0.0,0.0,0.0,0.0,0.0,0.0,0.0,0.0,0.0,0.0,0.0,0.0,0.0,0.0,0.0,0.0,0.0,0.0,0.0,0.0,0.0,0.0,0.0,0.0,0.0,0.0,0.0,0.0,0.0,0.0,0.0,0.0,0.0,0.0,0.0,0.0,0.0,0.0,0.0,0.0,0.0,0.0,0.0,0.0,0.0,0.0,0.0,0.0,0.0,0.0,0.0,0.0,0.0,0.0,0.0,0.0,0.0,0.0,0.0,0.0,0.0,0.0,0.0,0.0,0.0,0.0,0.0,0.0,0.0,0.0,0.0,0.0,0.0,0.0,0.0,0.0,0.0,0.0,0.0,0.0,0.0,0.0,0.0,0.0,0.0,0.0,0.0,0.0,0.0,0.0,0.0,0.0,0.0,0.0,0.0,0.0,0.0,0.0,0.0,0.0,0.0,0.0,0.0,0.0,0.0,0.0,0.0,0.0,0.0,0.0,0.0,0.0,0.0,0.0,0.0,0.0,0.0,0.0,0.0,0.0,0.0,0.0,0.0,0.0,0.0,0.0,0.0,0.0,0.0,0.0,0.0,0.0,0.0,0.0,0.0,0.0,0.0,0.0,0.0,0.0,0.0,0.0,0.0,0.0,0.0,0.0,0.0,0.0,0.0,0.0,0.0,0.0,0.0,0.0,0.0,0.0,0.0,0.0,0.0,0.0,0.0,0.0,0.0,0.0,0.0,0.0,0.0,0.0,0.0,0.0,0.0,0.0,0.0,0.0,0.0,0.0,0.0,0.0,0.0,0.0,0.0,0.0,0.0,0.0,0.0,0.0,0.0,0.0,0.0,0.0,0.0,0.0,0.0,0.0,0.0,0.0,0.0,0.0,0.0,0.0,0.0,0.0,0.0,0.0,0.0,0.0,0.0,0.0,0.0,0.0,0.0,0.0,0.0,0.0,0.0,0.0,-0.7568,0.0,0.0,0.0,0.0,0.0,0.0,0.0,0.0,0.0,0.0,0.0,0.0,0.0,0.0,0.0,0.0,0.0,0.0,0.0,0.0,0.0,0.0,0.0,0.0,0.0,0.0,0.0,0.0,0.0,0.0,0.0,0.0,0.0,0.0,0.0,0.0,0.0,0.0,0.0,0.0,0.0,0.0,0.0,0.0,0.0,0.0,0.0,0.0,0.0,0.0,0.0,0.0,0.0,0.0,0.0,0.0,0.0,0.0,0.0,0.0,0.0,0.0,0.0,0.0,0.0,0.0,0.0,0.0,0.0,0.0,0.0,0.0,0.0,0.0,0.0,0.0,0.0,0.0,0.0,0.0,0.0,0.0,0.0,0.0,0.0,0.0,0.0,0.0,0.0,0.0,0.0,0.0,0.0,0.0,0.0,0.0,0.0,0.0,0.0,0.0,0.0,0.0,0.0,0.0,0.0,0.0,0.0,0.0,0.0,0.0,-0.6672,-0.9338,-0.99,-0.9503,-0.8162,0.0,0.0,0.0,0.0,0.0,0.0,0.0,0.0,0.0,0.0,0.0,0.0,0.0,0.0,0.0,0.0,0.0,0.0,0.0,0.0,0.0,0.0,0.0,0.0,0.0,0.0,0.0,0.0,0.0,0.0,0.0,0.0,0.0,0.0,0.0,0.0,0.0,0.0,0.0,0.0,0.0,0.0,0.0,0.0,0.0,0.0,0.0,0.0,0.0,0.0,0.0,0.0,0.0,0.0,0.0,0.0,0.0,0.0,0.0,0.0,0.0,0.0,0.0,0.0,0.0,0.0,0.0,0.0,0.0,0.0,0.0,0.0,0.0,0.0,0.0,0.0,0.0,0.0,0.0,0.0,0.0,0.0,0.0,0.0,0.0,0.0,0.0,0.0,0.0,0.0,0.0,0.0,0.0,0.0,0.0,0.0,0.0,0.0,0.0,0.0,0.0,0.0,0.0,0.0,0.0,0.0,0.0,0.0,0.0,0.0,0.0,0.0,-0.9612,-0.9876,-0.8734,0.0,0.0,0.0,0.0,0.0,0.0,0.0,0.0,0.0,0.0,0.0,0.0,0.0,0.0,0.0,0.0,0.0,0.0,0.0,0.0,0.0,0.0,0.0,0.0,0.0,0.0,0.0,0.0,0.0,0.0,0.0,0.0,0.0,0.0,0.0,0.0,0.0,0.0,0.0,0.0,0.0,0.0,0.0,0.0,0.0,0.0,0.0,0.0,0.0,0.0,0.0,0.0,0.0,0.0,0.0,0.0,0.0,0.0,0.0,0.0,0.0,0.0,0.0,0.0,0.0,0.0,0.0,0.0,0.0,0.0,0.0,0.0,0.0,0.0,0.0,0.0,0.0,0.0,0.0,0.0,0.0,0.0,0.0,0.0,0.0,0.0,0.0,0.0,0.0,0.0,0.0,0.0,0.0,0.0,0.0,0.0,0.0,0.0,0.0,0.0,0.0,0.0,0.0,0.0,0.0,0.0,0.0,0.0,0.0,0.0,-0.7859,-0.8069,-1.098,0.0,-0.933,0.0,0.0,0.0,0.0,0.0,0.0,0.0,0.0,0.0,0.0,0.0,0.0,0.0,0.0,0.0,0.0,0.0,0.0,0.0,0.0,0.0,0.0,0.0,0.0,0.0,0.0,0.0,0.0,0.0,0.0,0.0,0.0,0.0,0.0,0.0,0.0,0.0,0.0,0.0,0.0,0.0,0.0,0.0,0.0,0.0,0.0,0.0,0.0,0.0,0.0,0.0,0.0,0.0,0.0,0.0,0.0,0.0,0.0,0.0,0.0,0.0,0.0,0.0,0.0,0.0,0.0,0.0,0.0,0.0,0.0,0.0,0.0,0.0,0.0,0.0,0.0,0.0,0.0,0.0,0.0,0.0,0.0,0.0,0.0,0.0,0.0,0.0,0.0,0.0,0.0,0.0,0.0,0.0,0.0,0.0,0.0,0.0,0.0,0.0,0.0,0.0,0.0,0.0,0.0,0.0,0.0,0.0,0.0,0.0,0.0,-0.9341,-1.156,-1.1853,-1.0835,0.0,0.0,0.0,0.0,0.0,0.0,0.0,0.0,0.0,0.0,0.0,0.0,0.0,0.0,0.0,0.0,0.0,0.0,0.0,0.0,0.0,0.0,0.0,0.0,0.0,0.0,0.0,0.0,0.0,0.0,0.0,0.0,0.0,0.0,0.0,0.0,0.0,0.0,0.0,0.0,0.0,0.0,0.0,0.0,0.0,0.0,0.0,0.0,0.0,0.0,0.0,0.0,0.0,0.0,0.0,0.0,0.0,0.0,0.0,0.0,0.0,0.0,0.0,0.0,0.0,0.0,0.0,0.0,0.0,0.0,0.0,0.0,0.0,0.0,0.0,0.0,0.0,0.0,0.0,0.0,0.0,0.0,0.0,0.0,0.0,0.0,0.0,0.0,0.0,0.0,0.0,0.0,0.0,0.0,0.0,0.0,0.0,0.0,0.0,0.0,0.0,0.0,0.0,0.0,0.0,0.0,0.0,0.0,0.0,0.0,-0.7233,-0.9691,-1.2732,-1.1703,-0.991,-0.7654,0.0,0.0,0.0,0.0,0.0,0.0,0.0,0.0,0.0,0.0,0.0,0.0,0.0,0.0,0.0,0.0,0.0,0.0,0.0,0.0,0.0,0.0,0.0,0.0,0.0,0.0,0.0,0.0,0.0,0.0,0.0,0.0,0.0,0.0,0.0,0.0,0.0,0.0,0.0,0.0,0.0,0.0,0.0,0.0,0.0,0.0,0.0,0.0,0.0,0.0,0.0,0.0,0.0,0.0,0.0,0.0,0.0,0.0,0.0,0.0,0.0,0.0,0.0,0.0,0.0,0.0,0.0,0.0,0.0,0.0,0.0,0.0,0.0,0.0,0.0,0.0,0.0,0.0,0.0,0.0,0.0,0.0,0.0,0.0,0.0,0.0,0.0,0.0,0.0,0.0,0.0,0.0,0.0,0.0,0.0,0.0,0.0,0.0,0.0,0.0,0.0,0.0,0.0,0.0,0.0,0.0,0.0,0.0,-0.5954,-0.6806,-0.8236,-1.037,-1.0109,-0.9262,0.0,0.0,0.0,0.0,0.0,0.0,0.0,0.0,0.0,0.0,0.0,0.0,0.0,0.0,0.0,0.0,0.0,0.0,0.0,0.0,0.0,0.0,0.0,0.0,0.0,0.0,0.0,0.0,0.0,0.0,0.0,0.0,0.0,0.0,0.0,0.0,0.0,0.0,0.0,0.0,0.0,0.0,0.0,0.0,0.0,0.0,0.0,0.0,0.0,0.0,0.0,0.0,0.0,0.0,0.0,0.0,0.0,0.0,0.0,0.0,0.0,0.0,0.0,0.0,0.0,0.0,0.0,0.0,0.0,0.0,0.0,0.0,0.0,0.0,0.0,0.0,0.0,0.0,0.0,0.0,0.0,0.0,0.0,0.0,0.0,0.0,0.0,0.0,0.0,0.0,0.0,0.0,0.0,0.0,0.0,0.0,0.0,0.0,0.0,0.0,0.0,0.0,0.0,0.0,0.0,0.0,0.0,0.0,0.0,-0.5184,-0.8036,-1.0029,-1.0919,-0.983,-0.9048,0.0,0.0,0.0,0.0,0.0,0.0,0.0,0.0,0.0,0.0,0.0,0.0,0.0,0.0,0.0,0.0,0.0,0.0,0.0,0.0,0.0,0.0,0.0,0.0,0.0,0.0,0.0,0.0,0.0,0.0,0.0,0.0,0.0,0.0,0.0,0.0,0.0,0.0,0.0,0.0,0.0,0.0,0.0,0.0,0.0,0.0,0.0,0.0,0.0,0.0,0.0,0.0,0.0,0.0,0.0,0.0,0.0,0.0,0.0,0.0,0.0,0.0,0.0,0.0,0.0,0.0,0.0,0.0,0.0,0.0,0.0,0.0,0.0,0.0,0.0,0.0,0.0,0.0,0.0,0.0,0.0,0.0,0.0,0.0,0.0,0.0,0.0,0.0,0.0,0.0,0.0,0.0,0.0,0.0,0.0,0.0,0.0,0.0,0.0,0.0,0.0,0.0,0.0,0.0,0.0,0.0,0.0,0.0,0.0,-0.5196,0.0,-1.0215,-0.9775,-0.9488,-0.879,0.0,0.0,0.0,0.0,0.0,0.0,0.0,0.0,0.0,0.0,0.0,0.0,0.0,0.0,0.0,0.0,0.0,0.0,0.0,0.0,0.0,0.0,0.0,0.0,0.0,0.0,0.0,0.0,0.0,0.0,0.0,0.0,0.0,0.0,0.0,0.0,0.0,0.0,0.0,0.0,0.0,0.0,0.0,0.0,0.0,0.0,0.0,0.0,0.0,0.0,0.0,0.0,0.0,0.0,0.0,0.0,0.0,0.0,0.0,0.0,0.0,0.0,0.0,0.0,0.0,0.0,0.0,0.0,0.0,0.0,0.0,0.0,0.0,0.0,0.0,0.0,0.0,0.0,0.0,0.0,0.0,0.0,0.0,0.0,0.0,0.0,0.0,0.0,0.0,0.0,0.0,0.0,0.0,0.0,0.0,0.0,0.0,0.0,0.0,0.0,0.0,0.0,0.0,0.0,0.0,0.0,0.0,0.0,-0.5123,-0.6276,-0.8186,-0.8392,-0.6549,-0.8871,-0.8409,0.0,0.0,0.0,0.0,0.0,0.0,0.0,0.0,0.0,0.0,0.0,0.0,0.0,0.0,0.0,0.0,0.0,0.0,0.0,0.0,0.0,0.0,0.0,0.0,0.0,0.0,0.0,0.0,0.0,0.0,0.0,0.0,0.0,0.0,0.0,0.0,0.0,0.0,0.0,0.0,0.0,0.0,0.0,0.0,0.0,0.0,0.0,0.0,0.0,0.0,0.0,0.0,0.0,0.0,0.0,0.0,0.0,0.0,0.0,0.0,0.0,0.0,0.0,0.0,0.0,0.0,0.0,0.0,0.0,0.0,0.0,0.0,0.0,0.0,0.0,0.0,0.0,0.0,0.0,0.0,0.0,0.0,0.0,0.0,0.0,0.0,0.0,0.0,0.0,0.0,0.0,0.0,0.0,0.0,0.0,0.0,0.0,0.0,0.0,0.0,0.0,0.0,0.0,0.0,0.0,0.0,0.0,0.0,0.0,-0.6714,-0.7065,-0.7918,-0.9269,-0.736,-0.664,0.0,0.0,0.0,0.0,0.0,0.0,0.0,0.0,0.0,0.0,0.0,0.0,0.0,0.0,0.0,0.0,0.0,0.0,0.0,0.0,0.0,0.0,0.0,0.0,0.0,0.0,0.0,0.0,0.0,0.0,0.0,0.0,0.0,0.0,0.0,0.0,0.0,0.0,0.0,0.0,0.0,0.0,0.0,0.0,0.0,0.0,0.0,0.0,0.0,0.0,0.0,0.0,0.0,0.0,0.0,0.0,0.0,0.0,0.0,0.0,0.0,0.0,0.0,0.0,0.0,0.0,0.0,0.0,0.0,0.0,0.0,0.0,0.0,0.0,0.0,0.0,0.0,0.0,0.0,0.0,0.0,0.0,0.0,0.0,0.0,0.0,0.0,0.0,0.0,0.0,0.0,0.0,0.0,0.0,0.0,0.0,0.0,0.0,0.0,0.0,0.0,0.0,0.0,0.0,0.0,0.0,0.0,0.0,0.0,-0.7103,-0.6855,-0.7789,-0.98,-0.7079,-0.6291,-0.7677,0.0,0.0,0.0,0.0,0.0,0.0,0.0,0.0,0.0,0.0,0.0,0.0,0.0,0.0,0.0,0.0,0.0,0.0,0.0,0.0,0.0,0.0,0.0,0.0,0.0,0.0,0.0,0.0,0.0,0.0,0.0,0.0,0.0,0.0,0.0,0.0,0.0,0.0,0.0,0.0,0.0,0.0,0.0,0.0,0.0,0.0,0.0,0.0,0.0,0.0,0.0,0.0,0.0,0.0,0.0,0.0,0.0,0.0,0.0,0.0,0.0,0.0,0.0,0.0,0.0,0.0,0.0,0.0,0.0,0.0,0.0,0.0,0.0,0.0,0.0,0.0,0.0,0.0,0.0,0.0,0.0,0.0,0.0,0.0,0.0,0.0,0.0,0.0,0.0,0.0,0.0,0.0,0.0,0.0,0.0,0.0,0.0,0.0,0.0,0.0,0.0,0.0,0.0,0.0,0.0,0.0,0.0,0.0,-0.736,-0.7574,-0.7886,-0.8203,-0.787,-0.7318,0.0,0.0,0.0,0.0,0.0,0.0,0.0,0.0,0.0,0.0,0.0,0.0,0.0,0.0,0.0,0.0,0.0,0.0,0.0,0.0,0.0,0.0,0.0,0.0,0.0,0.0,0.0,0.0,0.0,0.0,0.0,0.0,0.0,0.0,0.0,0.0,0.0,0.0,0.0,0.0,0.0,0.0,0.0,0.0,0.0,0.0,0.0,0.0,0.0,0.0,0.0,0.0,0.0,0.0,0.0,0.0,0.0,0.0,0.0,0.0,0.0,0.0,0.0,0.0,0.0,0.0,0.0,0.0,0.0,0.0,0.0,0.0,0.0,0.0,0.0,0.0,0.0,0.0,0.0,0.0,0.0,0.0,0.0,0.0,0.0,0.0,0.0,0.0,0.0,0.0,0.0,0.0,0.0,0.0,0.0,0.0,0.0,0.0,0.0,0.0,0.0,0.0,0.0,0.0,0.0,0.0,0.0,0.0,0.0,-0.7464,-0.8179,-0.857,-0.8564,-0.8537,-0.7909,0.0,0.0,0.0,0.0,0.0,0.0,0.0,0.0,0.0,0.0,0.0,0.0,0.0,0.0,0.0,0.0,0.0,0.0,0.0,0.0,0.0,0.0,0.0,0.0,0.0,0.0,0.0,0.0,0.0,0.0,0.0,0.0,0.0,0.0,0.0,0.0,0.0,0.0,0.0,0.0,0.0,0.0,0.0,0.0,0.0,0.0,0.0,0.0,0.0,0.0,0.0,0.0,0.0,0.0,0.0,0.0,0.0,0.0,0.0,0.0,0.0,0.0,0.0,0.0,0.0,0.0,0.0,0.0,0.0,0.0,0.0,0.0,0.0,0.0,0.0,0.0,0.0,0.0,0.0,0.0,0.0,0.0,0.0,0.0,0.0,0.0,0.0,0.0,0.0,0.0,0.0,0.0,0.0,0.0,0.0,0.0,0.0,0.0,0.0,0.0,0.0,0.0,0.0,0.0,0.0,0.0,0.0,0.0,-0.717,-0.7923,-0.8533,-0.8866,-0.8899,-0.8878,-0.8281,0.0,0.0,0.0,0.0,0.0,0.0,0.0,0.0,0.0,0.0,0.0,0.0,0.0,0.0,0.0,0.0,0.0,0.0,0.0,0.0,0.0,0.0,0.0,0.0,0.0,0.0,0.0,0.0,0.0,0.0,0.0,0.0,0.0,0.0,0.0,0.0,0.0,0.0,0.0,0.0,0.0,0.0,0.0,0.0,0.0,0.0,0.0,0.0,0.0,0.0,0.0,0.0,0.0,0.0,0.0,0.0,0.0,0.0,0.0,0.0,0.0,0.0,0.0,0.0,0.0,0.0,0.0,0.0,0.0,0.0,0.0,0.0,0.0,0.0,0.0,0.0,0.0,0.0,0.0,0.0,0.0,0.0,0.0,0.0,0.0,0.0,0.0,0.0,0.0,0.0,0.0,0.0,0.0,0.0,0.0,0.0,0.0,0.0,0.0,0.0,0.0,0.0,0.0,0.0,0.0,0.0,0.0,0.0,-0.7543,-0.8655,-0.891,-0.9071,-0.9157,-0.8948,-0.8351,0.0,0.0,0.0,0.0,0.0,0.0,0.0,0.0,0.0,0.0,0.0,0.0,0.0,0.0,0.0,0.0,0.0,0.0,0.0,0.0,0.0,0.0,0.0,0.0,0.0,0.0,0.0,0.0,0.0,0.0,0.0,0.0,0.0,0.0,0.0,0.0,0.0,0.0,0.0,0.0,0.0,0.0,0.0,0.0,0.0,0.0,0.0,0.0,0.0,0.0,0.0,0.0,0.0,0.0,0.0,0.0,0.0,0.0,0.0,0.0,0.0,0.0,0.0,0.0,0.0,0.0,0.0,0.0,0.0,0.0,0.0,0.0,0.0,0.0,0.0,0.0,0.0,0.0,0.0,0.0,0.0,0.0,0.0,0.0,0.0,0.0,0.0,0.0,0.0,0.0,0.0,0.0,0.0,0.0,0.0,0.0,0.0,0.0,0.0,0.0,0.0,0.0,0.0,0.0,0.0,0.0,0.0,0.0,-0.7801,-0.852,-0.9057,-0.9332,-0.9334,-0.8618,-0.7778,0.0,0.0,0.0,0.0,0.0,0.0,0.0,0.0,0.0,0.0,0.0,0.0,0.0,0.0,0.0,0.0,0.0,0.0,0.0,0.0,0.0,0.0,0.0,0.0,0.0,0.0,0.0,0.0,0.0,0.0,0.0,0.0,0.0,0.0,0.0,0.0,0.0,0.0,0.0,0.0,0.0,0.0,0.0,0.0,0.0,0.0,0.0,0.0,-1.2513,0.0,0.0,0.0,0.0,0.0,0.0,0.0,0.0,0.0,0.0,0.0,0.0,0.0,0.0,0.0,0.0,0.0,0.0,0.0,0.0,0.0,0.0,0.0,0.0,0.0,0.0,0.0,0.0,0.0,0.0,0.0,0.0,0.0,0.0,0.0,0.0,0.0,0.0,0.0,0.0,0.0,0.0,0.0,0.0,0.0,0.0,0.0,0.0,0.0,0.0,0.0,0.0,0.0,0.0,0.0,0.0,0.0,0.0,0.0,-0.7957,-0.8676,-0.915,-0.9388,-0.9354,-0.8642,-0.7794,0.0,0.0,0.0,0.0,0.0,0.0,0.0,0.0,0.0,0.0,0.0,0.0,0.0,0.0,0.0,0.0,0.0,0.0,0.0,0.0,0.0,0.0,0.0,0.0,0.0,0.0,0.0,0.0,0.0,0.0,0.0,0.0,0.0,0.0,0.0,0.0,0.0,0.0,0.0,0.0,0.0,0.0,0.0,0.0,0.0,0.0,0.0,0.0,0.0,0.0,0.0,0.0,0.0,0.0,0.0,0.0,0.0,0.0,0.0,0.0,0.0,0.0,0.0,0.0,0.0,0.0,0.0,0.0,0.0,0.0,0.0,0.0,0.0,0.0,0.0,0.0,0.0,0.0,0.0,0.0,0.0,0.0,0.0,0.0,0.0,0.0,0.0,0.0,0.0,0.0,0.0,0.0,0.0,0.0,0.0,0.0,0.0,0.0,0.0,0.0,0.0,0.0,0.0,0.0,0.0,0.0,0.0,-0.7807,-0.8058,-0.8899,-0.9216,-0.946,-0.93,-0.8798,-0.8018,-0.698,0.0,0.0,0.0,0.0,0.0,0.0,0.0,0.0,0.0,0.0,0.0,0.0,0.0,0.0,0.0,0.0,0.0,0.0,0.0,0.0,0.0,0.0,0.0,0.0,0.0,0.0,0.0,0.0,0.0,0.0,0.0,0.0,0.0,0.0,0.0,0.0,0.0,0.0,-1.3688,-1.2899,0.0,0.0,0.0,0.0,0.0,0.0,0.0,0.0,-1.3903,0.0,0.0,0.0,0.0,0.0,0.0,0.0,0.0,0.0,0.0,0.0,0.0,0.0,0.0,0.0,0.0,0.0,0.0,0.0,0.0,0.0,0.0,0.0,0.0,0.0,0.0,0.0,0.0,0.0,0.0,0.0,0.0,0.0,0.0,0.0,0.0,0.0,0.0,0.0,0.0,0.0,0.0,0.0,0.0,0.0,0.0,0.0,0.0,0.0,0.0,0.0,0.0,0.0,0.0,0.0,0.0,-0.8687,-0.8131,-0.8153,-0.892,-0.9439,-0.9474,-0.9015,-0.8682,-0.8019,-0.6987,0.0,0.0,0.0,0.0,0.0,0.0,0.0,0.0,0.0,0.0,0.0,0.0,0.0,0.0,0.0,0.0,0.0,0.0,0.0,0.0,0.0,0.0,0.0,0.0,0.0,0.0,0.0,0.0,0.0,0.0,0.0,0.0,0.0,0.0,0.0,0.0,0.0,0.0,0.0,-1.3613,-1.3547,0.0,0.0,0.0,0.0,0.0,0.0,0.0,0.0,-1.3557,0.0,0.0,0.0,0.0,0.0,0.0,0.0,0.0,0.0,0.0,0.0,0.0,0.0,0.0,0.0,0.0,0.0,0.0,0.0,0.0,0.0,0.0,0.0,0.0,0.0,0.0,0.0,0.0,0.0,0.0,0.0,0.0,0.0,0.0,0.0,0.0,0.0,0.0,0.0,0.0,0.0,0.0,0.0,0.0,0.0,0.0,0.0,0.0,0.0,0.0,0.0,0.0,0.0,0.0,0.0,-0.9138,-0.9005,-0.886,-0.8913,-0.9195,-0.9202,-0.8933,-0.7884,-0.726,0.0,0.0,0.0,0.0,0.0,0.0,0.0,0.0,0.0,0.0,0.0,0.0,0.0,0.0,0.0,0.0,0.0,0.0,0.0,0.0,0.0,0.0,0.0,0.0,0.0,0.0,0.0,0.0,0.0,0.0,0.0,0.0,0.0,0.0,0.0,0.0,0.0,0.0,0.0,0.0,-1.4241,-1.4202,-1.4509,0.0,0.0,0.0,0.0,0.0,0.0,-1.3836,-1.3705,0.0,0.0,0.0,0.0,0.0,0.0,0.0,0.0,0.0,0.0,0.0,0.0,0.0,0.0,0.0,0.0,0.0,0.0,0.0,0.0,0.0,0.0,0.0,0.0,0.0,0.0,0.0,0.0,0.0,0.0,0.0,0.0,0.0,0.0,0.0,0.0,0.0,0.0,0.0,0.0,0.0,0.0,0.0,0.0,0.0,0.0,0.0,0.0,0.0,0.0,0.0,0.0,0.0,0.0,0.0,-0.9452,-0.9673,-0.9493,-0.8859,-0.8893,-0.8879,-0.8832,-0.7247,-0.6557,0.0,0.0,0.0,0.0,0.0,0.0,0.0,0.0,0.0,0.0,0.0,0.0,0.0,0.0,0.0,0.0,0.0,0.0,0.0,0.0,0.0,0.0,0.0,0.0,0.0,0.0,0.0,0.0,0.0,0.0,0.0,0.0,0.0,0.0,0.0,0.0,0.0,0.0,0.0,0.0,0.0,-1.483,-1.495,-1.4803,0.0,0.0,0.0,0.0,-1.4148,-1.4503,0.0,0.0,0.0,0.0,0.0,0.0,0.0,0.0,0.0,0.0,0.0,0.0,0.0,0.0,0.0,0.0,0.0,0.0,0.0,0.0,0.0,0.0,0.0,0.0,0.0,0.0,0.0,0.0,0.0,0.0,0.0,0.0,0.0,0.0,0.0,0.0,0.0,0.0,0.0,0.0,0.0,0.0,0.0,0.0,0.0,0.0,0.0,0.0,0.0,0.0,0.0,0.0,0.0,0.0,0.0,0.0,-0.9442,-0.9543,-0.9322,-0.8804,-0.8852,-0.8783,-0.8533,-0.7534,-0.6888,0.0,0.0,0.0,0.0,0.0,0.0,0.0,0.0,0.0,0.0,0.0,0.0,0.0,0.0,0.0,0.0,0.0,0.0,0.0,0.0,0.0,0.0,0.0,0.0,0.0,0.0,0.0,0.0,0.0,0.0,0.0,0.0,0.0,0.0,0.0,0.0,0.0,0.0,0.0,0.0,0.0,-1.5498,-1.503,-1.5164,-1.5084,0.0,0.0,-1.4829,-1.4905,-1.5923,0.0,0.0,0.0,0.0,0.0,0.0,0.0,0.0,0.0,0.0,0.0,0.0,0.0,0.0,0.0,0.0,0.0,0.0,0.0,0.0,0.0,0.0,0.0,0.0,0.0,0.0,0.0,0.0,0.0,0.0,0.0,0.0,0.0,0.0,0.0,0.0,0.0,0.0,0.0,0.0,0.0,0.0,0.0,0.0,0.0,0.0,0.0,0.0,0.0,0.0,0.0,0.0,0.0,0.0,0.0,-0.8434,-0.9442,-0.9526,-0.9244,-0.8666,-0.88,-0.873,-0.8364,-0.7583,-0.6939,0.0,0.0,0.0,0.0,0.0,0.0,0.0,0.0,0.0,0.0,0.0,0.0,0.0,0.0,0.0,0.0,0.0,0.0,0.0,0.0,0.0,0.0,0.0,0.0,0.0,0.0,0.0,0.0,0.0,0.0,0.0,0.0,0.0,0.0,0.0,0.0,0.0,0.0,0.0,0.0,0.0,0.0,-1.5712,-1.5952,0.0,0.0,0.0,-1.5581,-1.5738,0.0,0.0,0.0,0.0,0.0,0.0,0.0,0.0,0.0,0.0,0.0,0.0,0.0,0.0,0.0,0.0,0.0,0.0,0.0,0.0,0.0,0.0,0.0,0.0,0.0,0.0,0.0,0.0,0.0,0.0,0.0,0.0,0.0,0.0,0.0,0.0,0.0,0.0,0.0,0.0,0.0,0.0,0.0,0.0,0.0,0.0,0.0,0.0,0.0,0.0,0.0,0.0,0.0,0.0,0.0,0.0,0.0,-0.9452,-0.9449,-0.9143,-0.8515,-0.864,-0.8591,-0.8262,-0.7526,0.0,0.0,0.0,0.0,0.0,0.0,0.0,0.0,0.0,0.0,0.0,0.0,0.0,0.0,0.0,0.0,0.0,0.0,0.0,0.0,0.0,0.0,0.0,0.0,0.0,0.0,0.0,-0.7796,0.0,0.0,0.0,0.0,0.0,0.0,0.0,0.0,0.0,0.0,0.0,0.0,0.0,0.0,-1.5992,-1.6139,-1.6593,-1.674,0.0,0.0,-1.6143,-1.633,-1.6251,-1.5832,0.0,0.0,0.0,0.0,0.0,0.0,0.0,0.0,0.0,0.0,0.0,0.0,0.0,0.0,0.0,0.0,0.0,0.0,0.0,0.0,0.0,0.0,0.0,0.0,0.0,0.0,0.0,0.0,0.0,0.0,0.0,0.0,0.0,0.0,0.0,0.0,0.0,0.0,0.0,0.0,0.0,0.0,0.0,0.0,0.0,0.0,0.0,0.0,0.0,0.0,0.0,0.0,0.0,0.0,0.0,-0.9246,-0.9339,-0.8972,-0.8371,-0.8282,-0.8385,-0.8262,-0.7336,-0.6814,0.0,0.0,0.0,0.0,0.0,0.0,0.0,0.0,0.0,0.0,0.0,0.0,0.0,0.0,0.0,0.0,0.0,0.0,0.0,0.0,0.0,0.0,0.0,0.0,0.0,0.0,0.0,0.0,0.0,0.0,0.0,0.0,0.0,0.0,0.0,0.0,0.0,0.0,0.0,0.0,0.0,-1.6152,-1.5885,-1.6807,-1.7408,0.0,0.0,-1.6746,-1.6451,-1.7617,-1.7657,-1.5156,0.0,0.0,0.0,0.0,0.0,0.0,0.0,0.0,0.0,0.0,0.0,0.0,0.0,0.0,0.0,0.0,0.0,0.0,0.0,0.0,0.0,0.0,0.0,0.0,0.0,0.0,0.0,0.0,0.0,0.0,0.0,0.0,0.0,0.0,0.0,0.0,0.0,0.0,0.0,0.0,0.0,0.0,0.0,0.0,0.0,0.0,0.0,0.0,0.0,0.0,0.0,0.0,0.0,-0.754,-0.9299,-0.8512,-0.8146,-0.8106,-0.8126,-0.8126,-0.8126,-0.7383,-0.6873,0.0,0.0,0.0,0.0,0.0,0.0,0.0,0.0,0.0,0.0,0.0,0.0,0.0,0.0,0.0,0.0,0.0,0.0,0.0,0.0,0.0,0.0,0.0,0.0,0.0,0.0,0.0,0.0,-0.6003,-0.6413,-0.8302,0.0,0.0,0.0,0.0,0.0,0.0,0.0,0.0,0.0,0.0,-1.6152,-1.658,-1.7341,0.0,0.0,-1.7408,-1.7328,-1.7217,-1.7217,-1.7055,-1.6258,-1.5259,0.0,0.0,0.0,0.0,0.0,0.0,0.0,0.0,0.0,0.0,0.0,0.0,0.0,0.0,0.0,0.0,0.0,0.0,0.0,0.0,0.0,0.0,0.0,0.0,0.0,0.0,0.0,0.0,0.0,0.0,0.0,0.0,0.0,0.0,0.0,0.0,0.0,0.0,0.0,0.0,0.0,0.0,0.0,0.0,0.0,0.0,0.0,0.0,0.0,0.0,0.0,0.0,-0.6981,-0.889,-0.7811,-0.7443,-0.8024,-0.8038,-0.8038,-0.8024,-0.751,-0.7021,0.0,0.0,0.0,0.0,0.0,0.0,0.0,0.0,0.0,0.0,0.0,0.0,0.0,0.0,0.0,0.0,0.0,0.0,0.0,0.0,0.0,0.0,0.0,0.0,0.0,0.0,0.0,0.0,-0.5809,-0.6517,-0.8456,0.0,0.0,0.0,0.0,0.0,0.0,0.0,0.0,0.0,0.0,-1.6286,-1.682,-1.7622,-1.8063,-1.7769,-1.7635,-1.7555,-1.758,-1.6975,-1.6427,-1.6195,0.0,0.0,0.0,0.0,0.0,0.0,0.0,0.0,0.0,0.0,0.0,0.0,0.0,0.0,0.0,0.0,0.0,0.0,0.0,0.0,0.0,0.0,0.0,0.0,0.0,0.0,0.0,0.0,0.0,0.0,0.0,0.0,0.0,0.0,0.0,0.0,0.0,0.0,0.0,0.0,0.0,0.0,0.0,0.0,0.0,0.0,0.0,0.0,0.0,0.0,0.0,0.0,0.0,-0.6623,-0.8159,-0.7316,-0.725,-0.8011,-0.8038,-0.8038,-0.8031,-0.7799,-0.734,-0.6702,0.0,0.0,0.0,0.0,0.0,0.0,0.0,0.0,0.0,0.0,0.0,0.0,0.0,0.0,0.0,0.0,0.0,0.0,0.0,0.0,0.0,0.0,0.0,0.0,0.0,0.0,-0.5609,-0.7017,-0.8215,0.0,0.0,0.0,0.0,0.0,0.0,0.0,0.0,0.0,0.0,-1.5404,-1.658,-1.6353,-1.7542,-1.8317,-1.805,-1.7769,-1.7593,-1.7544,-1.7117,-1.6091,0.0,0.0,0.0,0.0,0.0,0.0,0.0,0.0,0.0,0.0,0.0,0.0,0.0,0.0,0.0,0.0,0.0,0.0,0.0,0.0,0.0,0.0,0.0,0.0,0.0,0.0,0.0,-0.1936,-0.1842,0.0,0.0,0.0,0.0,0.0,0.0,0.0,0.0,0.0,0.0,0.0,-0.58,-0.5698,0.0,0.0,0.0,0.0,0.0,0.0,0.0,0.0,0.0,0.0,0.0,0.0,-0.6572,-0.7974,-0.726,-0.7197,-0.7973,-0.7991,-0.8038,-0.8038,-0.7897,-0.75,-0.6566,0.0,0.0,0.0,0.0,0.0,0.0,0.0,0.0,0.0,0.0,0.0,0.0,0.0,0.0,0.0,0.0,0.0,0.0,0.0,0.0,0.0,0.0,0.0,0.0,0.0,-0.7325,0.0,0.0,0.0,0.0,0.0,0.0,0.0,0.0,0.0,0.0,0.0,-1.3641,-1.4416,-1.5444,-1.6233,-1.6513,-1.7154,-1.7555,0.0,0.0,0.0,0.0,0.0,0.0,0.0,0.0,0.0,0.0,0.0,0.0,0.0,0.0,-1.5193,-1.4139,-1.4076,-1.4351,-1.447,0.0,0.0,0.0,0.0,0.0,0.0,0.0,0.0,0.0,0.0,0.0,0.0,0.0,0.0,0.0,0.0,-0.3937,0.0,0.0,0.0,0.0,0.0,0.0,0.0,0.0,-0.5988,-0.6017,-0.6105,-0.601,-0.5956,0.0,-0.5815,-0.5519,0.0,0.0,0.0,0.0,0.0,0.0,0.0,0.0,-0.6449,-0.7491,-0.7066,-0.7171,-0.7987,-0.7963,-0.8038,-0.8031,-0.7835,-0.73,-0.6503,-0.5786,-0.542,0.0,0.0,0.0,0.0,0.0,0.0,0.0,0.0,0.0,0.0,0.0,0.0,0.0,0.0,0.0,0.0,0.0,0.0,0.0,0.0,0.0,0.0,0.0,-0.6958,0.0,0.0,0.0,0.0,0.0,0.0,0.0,0.0,0.0,-1.3961,-1.3913,-1.4028,-1.499,-1.5618,-1.6112,-1.65,0.0,0.0,0.0,0.0,0.0,0.0,0.0,-1.5989,-1.5883,-1.5724,-1.5698,-1.5698,-1.6099,-1.6326,-1.6032,0.0,0.0,-1.4818,-1.462,-1.4548,-1.4643,-1.4763,-1.4856,-1.495,-1.5044,-1.5084,0.0,0.0,0.0,0.0,0.0,0.0,0.0,0.0,-0.5798,-0.611,0.0,-0.5725,0.0,0.0,0.0,0.0,0.0,0.0,0.0,0.0,-0.6152,-0.6288,-0.6295,-0.6288,-0.6125,-0.5735,-0.5829,-0.5575,-0.5047,-0.5101,0.0,0.0,0.0,0.0,0.0,0.0,-0.624,-0.6681,-0.6714,-0.7164,-0.7987,-0.795,-0.8031,-0.8018,-0.7455,-0.6878,-0.6308,-0.6105,-0.582,-0.5473,-0.5908,0.0,0.0,0.0,0.0,0.0,0.0,0.0,0.0,0.0,0.0,0.0,0.0,0.0,0.0,0.0,0.0,0.0,0.0,0.0,0.0,-0.7971,0.0,0.0,0.0,0.0,0.0,0.0,0.0,0.0,0.0,0.0,-1.4049,-1.447,-1.4865,-1.5391,0.0,0.0,0.0,0.0,-1.7114,-1.723,-1.7373,-1.7571,-1.7593,-1.7061,-1.6494,-1.5993,0.0,0.0,-1.6326,-1.6553,-1.6633,-1.6339,-1.5963,-1.575,-1.571,-1.5511,-1.5431,-1.5685,-1.5551,-1.5524,-1.5738,-1.5605,-1.5378,-0.2049,0.0,0.0,0.0,0.0,-0.5455,-0.5681,-0.6346,-0.6332,-0.6249,-0.6205,-0.6096,0.0,0.0,0.0,0.0,0.0,0.0,-0.6386,-0.6451,-0.6647,-0.679,-0.6885,-0.6783,-0.6695,-0.6688,-0.6371,-0.6274,-0.6446,-0.5804,-0.546,-0.5383,0.0,0.0,0.0,0.0,-0.6084,-0.6525,-0.6662,-0.7115,-0.7651,-0.7904,-0.7973,-0.7778,-0.7302,-0.6959,-0.6586,-0.6118,-0.5813,-0.5677,-0.5521,0.0,0.0,0.0,0.0,0.0,0.0,0.0,0.0,0.0,0.0,0.0,0.0,0.0,0.0,0.0,0.0,0.0,0.0,0.0,-0.8311,-0.6873,-0.6026,0.0,0.0,0.0,0.0,0.0,0.0,0.0,0.0,0.0,-1.5127,-1.4926,-1.5179,0.0,0.0,-1.6192,-1.6807,-1.6687,-1.6593,-1.6794,0.0,0.0,0.0,-1.7163,-1.7255,-1.7158,-1.7157,-1.7208,-1.7208,-1.7275,-1.7168,-1.6673,-1.5528,-1.4911,-1.5665,-1.5551,-1.5444,-1.5524,-1.5778,-1.6032,-1.6112,-1.6072,-1.6005,-0.2301,0.0,0.0,-0.1504,-0.3909,-0.5589,-0.6404,-0.651,-0.6417,-0.6257,-0.5976,-0.5943,-0.4891,-0.3045,-0.3589,0.0,0.0,0.0,-0.6579,-0.6709,-0.6858,-0.7,-0.7041,-0.7054,-0.6953,-0.7007,-0.6627,-0.6596,-0.674,-0.6138,-0.5822,-0.5741,0.0,0.0,-0.5718,-0.5833,-0.6084,-0.6464,-0.6686,-0.7027,-0.7403,-0.7651,-0.7699,-0.7435,-0.7275,-0.7068,-0.6709,-0.6295,-0.5983,-0.5806,-0.5603,-0.5488,0.0,0.0,0.0,0.0,0.0,0.0,0.0,0.0,0.0,0.0,0.0,-1.0661,-1.0474,0.0,0.0,0.0,-0.9108,-0.8036,-0.7861,-0.6703,0.0,0.0,0.0,0.0,0.0,0.0,0.0,-1.2804,-1.3659,-1.4482,-1.5666,-1.5548,-1.575,-1.6847,-1.6513,-1.642,-1.7061,0.0,-1.6553,-1.6834,-1.6874,-1.6914,-1.7034,-1.7395,-1.7626,-1.7626,-1.7576,-1.7582,-1.7582,-1.7582,-1.7408,-1.6879,-1.5607,-1.4862,-1.5804,-1.5051,-1.4696,-1.5737,-1.6357,-1.6607,-1.662,-1.662,-1.6593,-0.2449,0.0,0.0,0.0,0.0,-0.4172,-0.5922,-0.6041,-0.6047,-0.5934,-0.5767,-0.5586,-0.4703,-0.3227,-0.1031,0.0,0.0,-0.5769,-0.6709,-0.6736,-0.6878,-0.7021,-0.7068,-0.7149,-0.6993,-0.6805,-0.6766,-0.6605,-0.6373,-0.6106,-0.6093,-0.6311,-0.5833,-0.5623,-0.5637,-0.5895,-0.6173,-0.6471,-0.6672,-0.688,-0.7086,-0.7409,-0.7416,-0.7073,-0.7249,-0.7129,-0.6702,-0.6532,-0.6254,-0.5833,-0.5935,-0.5741,-0.542,0.0,0.0,0.0,0.0,0.0,0.0,0.0,0.0,0.0,0.0,0.0,0.0,0.0,0.0,0.0,-0.8909,0.0,-0.8372,-0.7123,0.0,0.0,0.0,-0.7024,-0.8156,-0.9101,-1.0781,-1.3651,0.0,0.0,0.0,0.0,-1.6478,-1.6633,-1.6687,-1.6834,-1.7181,-1.6954,-1.6847,-1.7141,-1.7168,-1.7158,-1.7475,-1.7647,-1.7647,-1.7647,-1.7595,-1.7622,-1.7595,-1.7582,-1.7475,-1.7128,-1.5719,-1.4855,-1.5815,-1.3876,-1.3114,-1.5952,-1.6733,-1.7025,-1.7154,-1.7088,-1.6954,-0.2423,0.0,0.0,0.0,0.0,-0.1042,-0.2418,-0.3813,-0.4151,-0.421,-0.4238,-0.556,-0.4174,-0.0792,-0.0241,-0.1364,-0.3675,-0.5966,-0.7018,-0.7034,-0.7075,-0.717,-0.7305,-0.7197,-0.7048,-0.6878,-0.679,-0.6723,-0.6589,-0.6315,-0.6276,-0.6317,-0.6057,-0.5928,-0.5928,-0.5996,-0.6173,-0.6471,-0.6661,-0.6953,-0.7262,-0.7217,-0.7164,-0.7108,-0.7001,-0.6786,-0.6539,-0.639,-0.6152,-0.5827,-0.561,-0.5467,-0.5411,-0.5558,0.0,0.0,0.0,0.0,0.0,0.0,0.0,0.0,0.0,-1.1236,-1.1009,0.0,-1.0459,0.0,-0.9456,-0.8591,-0.7025,-0.6536,0.0,0.0,-0.6532,-0.6785,-0.719,-0.7722,-0.9218,-1.2445,-1.3152,-1.4001,-1.5602,-1.6116,-1.6299,-1.638,-1.6567,-1.6967,-1.7689,-1.7382,-1.7141,-1.7408,-1.7462,-1.7502,-1.7555,-1.7582,-1.7582,-1.7582,-1.7782,-1.7862,-1.7622,-1.7582,-1.7422,-1.6813,-1.4642,-1.3192,-1.3084,-1.1776,-1.1639,-1.3453,-1.4745,-1.6056,-1.7199,-1.7128,-1.6794,-0.3474,0.0,0.0,0.0,0.0,0.0,-0.0636,-0.1695,-0.1962,-0.2014,-0.2208,-0.5012,-0.3944,0.0,0.0,-0.1326,-0.368,-0.6031,-0.7128,-0.7136,-0.7143,-0.719,-0.7265,-0.7183,-0.7068,-0.6926,-0.6844,-0.6722,-0.6491,-0.6491,-0.6496,-0.6492,-0.6338,-0.6227,-0.622,-0.6098,-0.6247,-0.6668,-0.6824,-0.7021,-0.7258,-0.7115,-0.7074,-0.7048,-0.6847,-0.6666,-0.658,-0.643,-0.6247,-0.6023,-0.5757,-0.5544,-0.5584,-0.5747,-0.58,0.0,0.0,0.0,0.0,0.0,0.0,0.0,0.0,0.0,0.0,0.0,-1.0563,0.0,-0.8875,0.0,-0.7217,-0.677,-0.6476,-0.6559,-0.6709,-0.6831,-0.6919,-0.7687,-0.9058,-1.1171,-1.2503,-1.3918,-1.5591,-1.6088,-1.6326,-1.6446,-1.6714,-1.7088,-1.7515,-1.7448,-1.7395,-1.7555,-1.7582,-1.7582,-1.7582,-1.7582,-1.7582,-1.7595,-1.7729,-1.7782,-1.7609,-1.7475,-1.7235,-1.6592,-1.4348,-1.2312,-1.1903,-1.0465,-1.0004,-1.189,-1.2944,-1.439,-1.686,-1.7136,-1.6787,-0.4855,0.0,0.0,0.0,0.0,0.0,0.0,0.0,0.0,0.0,0.0,-0.3856,-0.3482,0.0,0.0,-0.1113,-0.3306,-0.586,-0.7149,-0.7143,-0.7149,-0.7143,-0.7143,-0.7143,-0.7061,-0.6932,-0.6932,-0.6759,-0.6363,-0.6612,-0.6702,-0.6778,-0.6627,-0.6485,-0.6485,-0.6207,-0.6335,-0.6892,-0.6967,-0.7149,-0.7163,-0.7121,-0.7094,-0.7095,-0.6739,-0.6661,-0.6641,-0.6519,-0.6376,-0.6247,-0.6041,-0.5918,-0.5901,-0.6096,-0.6276,0.0,-0.631,0.0,0.0,0.0,0.0,0.0,0.0,0.0,0.0,-1.1297,-1.0404,-0.8521,-0.7827,-0.7588,-0.7975,-0.7184,-0.6709,-0.6729,-0.6844,-0.6939,-0.6987,-0.8108,-0.934,-1.0315,-1.2128,-1.3826,-1.5494,-1.6059,-1.6313,-1.6513,-1.6834,-1.7048,-1.7128,-1.7368,-1.7569,-1.7582,-1.7582,-1.7582,-1.7582,-1.7582,-1.7582,-1.7582,-1.7595,-1.7582,-1.7595,-1.7315,-1.7007,-1.6539,-1.4501,-1.2558,-1.198,-0.9903,-0.9275,-1.1425,-1.1734,-1.2746,-1.6062,-1.6962,-1.6792,-0.4855,0.0,0.0,0.0,0.0,0.0,0.0,0.0,0.0,0.0,0.0,-0.0806,-0.0798,0.0,0.0,-0.0266,-0.0889,-0.5181,-0.7088,-0.7074,-0.7081,-0.7068,-0.7143,-0.7143,-0.6981,-0.6932,-0.6932,-0.6766,-0.6612,-0.6702,-0.6785,-0.7033,-0.6634,-0.6532,-0.6634,0.0,0.0,0.0,-0.7007,-0.7197,-0.7319,-0.7177,-0.7054,-0.6966,-0.6757,0.0,-0.6349,-0.6315,-0.6234,-0.6091,-0.6374,0.0,0.0,0.0,0.0,0.0,0.0,0.0,0.0,0.0,0.0,0.0,-0.9282,-0.9787,-0.9426,-0.8748,-0.7974,-0.716,-0.6957,-0.688,-0.6936,-0.6785,-0.6749,-0.6871,-0.6912,-0.7021,-0.7258,-0.7625,-0.8808,-1.113,-1.1929,-1.3058,-1.533,-1.5885,-1.5939,-1.6059,-1.646,-1.6767,-1.6807,-1.7261,-1.7569,-1.7582,-1.7582,-1.7582,-1.7582,-1.7582,-1.7582,-1.7582,-1.7582,-1.7582,-1.7555,-1.7128,-1.6807,-1.67,-1.4974,-1.3169,-1.2145,-1.0681,-1.0053,-1.1606,-1.1816,-1.2822,-1.6034,-1.6666,-1.6451,-0.2425,0.0,0.0,0.0,0.0,0.0,0.0,0.0,0.0,-0.1332,-0.3331,-0.1007,0.0,0.0,0.0,0.0,0.0,-0.2535,-0.4546,-0.6093,-0.6898,-0.7249,-0.7251,-0.7258,-0.7177,-0.7034,-0.6947,-0.6993,-0.6919,-0.6919,-0.7004,-0.709,-0.6853,-0.6736,-0.6803,-0.6593,-0.6552,-0.6702,-0.6993,-0.7177,-0.7244,-0.7291,-0.7215,-0.7027,0.0,0.0,0.0,0.0,0.0,0.0,0.0,0.0,0.0,0.0,0.0,-0.6318,-0.6546,-0.6749,-0.6919,-0.7714,-0.8,-0.7514,-0.7837,-0.8383,-0.8961,-0.8404,-0.7636,-0.7012,-0.677,-0.6759,-0.6912,-0.6919,-0.6946,-0.7027,-0.7102,-0.721,-0.7366,-0.757,-0.8482,-1.0373,-1.1047,-1.2155,-1.4555,-1.5491,-1.5856,-1.6059,-1.642,-1.6754,-1.6927,-1.7301,-1.7582,-1.7582,-1.7566,-1.7657,-1.766,-1.7582,-1.7582,-1.7582,-1.7582,-1.7582,-1.7582,-1.7101,-1.67,-1.656,-1.512,-1.3596,-1.2662,-1.1189,-1.052,-1.2112,-1.2745,-1.3588,-1.5939,-1.6259,-1.6059,0.0,0.0,0.0,0.0,0.0,0.0,0.0,-0.0101,0.0,0.0,0.0,-0.2956,-0.082,0.0,0.0,0.0,0.0,0.0,-0.1745,-0.4977,-0.6671,-0.7509,-0.7373,-0.74,-0.7319,-0.7143,-0.717,-0.7163,-0.7143,-0.7143,-0.7143,-0.7129,-0.7,-0.6912,-0.6885,-0.679,-0.6756,-0.679,-0.7014,-0.717,-0.7217,-0.7446,-0.7425,-0.7177,-0.6898,-0.679,-0.6885,-0.677,-0.6702,-0.6702,-0.6473,-0.6486,-0.6715,-0.6557,-0.6401,-0.6453,-0.6639,-0.6826,-0.7083,-0.7673,-0.7673,-0.6826,-0.6742,-0.7424,-0.9129,-0.856,-0.7804,-0.7168,-0.6953,-0.6934,-0.7163,-0.7183,-0.719,-0.7217,-0.7333,-0.7421,-0.7461,-0.7658,-0.8386,-0.9581,-1.0316,-1.1482,-1.3692,-1.5038,-1.584,-1.6192,-1.642,-1.6767,-1.7088,-1.7395,-1.7555,-1.7357,-1.7418,-1.7482,-1.7553,-1.7488,-1.7515,-1.7569,-1.7582,-1.7582,-1.7502,-1.7141,-1.6807,-1.6714,-1.5354,-1.4413,-1.3699,-1.1991,-1.1189,-1.3202,-1.3664,-1.422,-1.5758,-1.6032,-1.5872,0.0,0.0,0.0,0.0,0.0,0.0,0.0,0.0,-0.4287,-0.6524,-0.7058,-0.6441,-0.3868,0.0,0.0,0.0,0.0,0.0,-0.1544,0.0,-0.6777,-0.7703,-0.738,-0.7509,-0.7421,-0.7163,-0.7272,-0.7272,-0.7149,-0.7143,-0.7143,-0.7122,-0.7,-0.6865,-0.6749,-0.6844,-0.6959,-0.7075,-0.7122,-0.7272,-0.7522,-0.7576,-0.75,-0.7326,-0.7149,-0.6929,-0.6736,-0.6722,-0.6702,-0.6702,-0.6632,-0.6639,-0.6702,-0.6902,-0.6978,-0.6964,-0.7,-0.7069,-0.7083,-0.718,-0.7114,-0.6912,-0.6898,-0.7597,-0.9101,-0.7887,-0.7048,-0.7111,-0.7041,-0.717,-0.7312,-0.7333,-0.7387,-0.7509,-0.755,-0.7611,-0.7719,-0.778,-0.8348,-0.9633,-1.0288,-1.1385,-1.3199,-1.475,-1.5582,-1.5856,-1.6095,-1.6526,-1.7021,-1.7395,-1.733,-1.7028,-1.6949,-1.7168,-1.7495,-1.7324,-1.7341,-1.7542,-1.7582,-1.7582,-1.7582,-1.7288,-1.6994,-1.6754,-1.6223,-1.5667,-1.5248,-1.3363,-1.278,-1.4401,-1.4107,-1.4056,-1.5882,-1.6112,-1.5965,0.0,0.0,0.0,0.0,0.0,0.0,0.0,0.0,-0.3821,-0.6075,-0.7083,-0.7315,-0.531,-0.2002,-0.0553,0.0,0.0,0.0,-0.0662,-0.2093,-0.608,-0.7924,-0.7739,-0.7685,-0.7604,-0.74,-0.7373,-0.7333,-0.7272,-0.7265,-0.7265,-0.7258,-0.7197,-0.7054,-0.6851,-0.7054,-0.7163,-0.7143,-0.7224,-0.7373,-0.759,-0.7629,-0.7588,-0.7489,-0.7451,-0.7355,-0.719,-0.719,-0.7115,-0.6946,-0.6927,-0.6814,-0.6753,-0.7152,-0.725,-0.7155,-0.73,-0.7389,-0.7382,-0.7353,-0.7326,-0.7183,-0.717,-0.7496,-0.8218,-0.7325,-0.6873,-0.7041,-0.7272,-0.7382,-0.7366,-0.7448,-0.7522,-0.759,-0.7665,-0.774,-0.7807,-0.7889,-0.8153,-0.881,-0.9122,-0.96,-1.0617,-1.2467,-1.399,-1.4604,-1.559,-1.6446,-1.686,-1.7168,-1.7355,-1.7237,-1.6911,-1.6988,-1.7459,-1.7499,-1.7448,-1.7569,-1.7582,-1.7582,-1.7569,-1.7341,-1.7114,-1.6954,-1.6593,-1.5673,-1.446,-1.2932,-1.2715,-1.3248,-1.359,-1.3913,-1.5921,-1.6633,-1.65,0.0,0.0,0.0,0.0,0.0,0.0,0.0,0.0,-0.2872,-0.5266,-0.7139,-0.7491,-0.6423,-0.4285,-0.1322,0.0,0.0,0.0,0.0,0.0,-0.4868,-0.7365,-0.7959,-0.7855,-0.7767,-0.7611,-0.7509,-0.7455,-0.7428,-0.7421,-0.7428,-0.7421,-0.7394,-0.7272,-0.7088,-0.7272,-0.7346,-0.7299,-0.7414,-0.7529,-0.7638,-0.7645,-0.7645,-0.7645,-0.7645,-0.7638,-0.7604,-0.7597,-0.7489,-0.7265,-0.7171,-0.7125,-0.6926,-0.7299,-0.7513,-0.7336,-0.7536,-0.7698,-0.7597,-0.7597,-0.755,-0.7434,-0.7421,-0.7421,-0.74,-0.7128,-0.6946,-0.7238,-0.7451,-0.7533,-0.7489,-0.7577,-0.7658,-0.7692,-0.7794,-0.7862,-0.7875,-0.797,-0.8038,-0.8038,-0.8038,-0.8018,-0.8379,-0.9788,-1.1893,-1.4148,-1.5557,-1.646,-1.6687,-1.6967,-1.7248,-1.7422,-1.699,-1.6885,-1.7448,-1.7566,-1.7488,-1.7555,-1.7582,-1.7582,-1.7555,-1.7382,-1.7221,-1.7114,-1.6727,-1.5828,-1.3845,-1.2569,-1.2428,-1.2872,-1.2941,-1.3653,-1.6291,-1.7114,-1.7061,0.0,0.0,0.0,0.0,0.0,0.0,0.0,0.0,-0.2809,-0.5466,-0.7758,-0.761,-0.7361,-0.6567,-0.2187,0.0,0.0,0.0,0.0,0.0,-0.3033,-0.5689,-0.7868,-0.7963,-0.7868,-0.7651,-0.7808,-0.778,-0.7584,-0.7577,-0.7577,-0.7563,-0.7441,-0.7428,-0.7509,-0.7428,-0.7495,-0.7746,-0.7767,-0.7773,-0.7787,-0.7691,-0.7691,-0.7794,-0.789,-0.7828,-0.7624,-0.7597,-0.759,-0.7563,-0.7563,-0.747,-0.7343,-0.7369,-0.7577,-0.7872,-0.7792,-0.7698,-0.7604,-0.7597,-0.7604,-0.7584,-0.7577,-0.7577,-0.7577,-0.755,-0.7536,-0.7657,-0.757,-0.7631,-0.7746,-0.778,-0.7841,-0.7943,-0.7984,-0.8018,-0.8011,-0.8031,-0.8038,-0.8038,-0.8038,-0.8018,-0.8076,-0.8576,-1.0565,-1.4715,-1.5849,-1.6407,-1.666,-1.6954,-1.7208,-1.7422,-1.7328,-1.7298,-1.7482,-1.7427,-1.7459,-1.7542,-1.7582,-1.7582,-1.7569,-1.7542,-1.7475,-1.7235,-1.6914,-1.6373,-1.5369,-1.4102,-1.2584,-1.2586,-1.2832,-1.3561,-1.5986,-1.7168,-1.7315,-0.2821,0.0,0.0,0.0,0.0,0.0,0.0,0.0,-0.2814,-0.5513,-0.7799,-0.7805,-0.7641,-0.7401,-0.3912,-0.1573,0.0,0.0,0.0,0.0,-0.2783,-0.5372,-0.7793,-0.8018,-0.797,-0.7862,-0.7931,-0.7883,-0.7733,-0.7726,-0.7726,-0.7719,-0.7658,-0.7624,-0.7604,-0.7624,-0.7692,-0.7807,-0.7896,-0.795,-0.7943,-0.7845,-0.7845,-0.7943,-0.795,-0.7923,-0.7868,-0.7862,-0.7814,-0.7733,-0.7726,-0.7685,-0.7604,-0.7583,-0.7726,-0.7931,-0.7911,-0.7862,-0.7862,-0.7862,-0.7821,-0.7733,-0.7726,-0.7726,-0.7726,-0.763,-0.7664,-0.7834,-0.7876,-0.7849,-0.7814,-0.7889,-0.797,-0.8031,-0.8038,-0.8038,-0.8038,-0.8038,-0.8038,-0.8038,-0.8038,-0.8031,-0.8124,-0.877,-1.0834,-1.415,-1.5307,-1.5632,-1.6328,-1.6847,-1.7203,-1.723,-1.7338,-1.7513,-1.7526,-1.7513,-1.7462,-1.7542,-1.7582,-1.7582,-1.7582,-1.7582,-1.7528,-1.7408,-1.7141,-1.6432,-1.5155,-1.4558,-1.35,-1.2669,-1.3538,-1.4897,-1.6911,-1.7408,-1.7488,-0.5349,-0.1307,-0.0302,0.0,0.0,0.0,0.0,0.0,-0.2814,-0.5532,-0.7885,-0.7959,-0.7898,-0.7353,-0.5101,-0.2513,0.0,0.0,0.0,0.0,-0.2011,-0.4726,-0.7679,-0.7965,-0.8045,-0.8024,-0.8028,-0.7979,-0.7875,-0.7875,-0.7875,-0.7868,-0.7834,-0.778,-0.7733,-0.7794,-0.7834,-0.7882,-0.7991,-0.8038,-0.8045,-0.7979,-0.7979,-0.8045,-0.8038,-0.8038,-0.8038,-0.8038,-0.7991,-0.7882,-0.7875,-0.7828,-0.7835,-0.7821,-0.7875,-0.7986,-0.7977,-0.8038,-0.8038,-0.8038,-0.7991,-0.7889,-0.7875,-0.7875,-0.7868,-0.7771,-0.7818,-0.8004,-0.8041,-0.7973,-0.7889,-0.7977,-0.8031,-0.8038,-0.8038,-0.8038,-0.8038,-0.8038,-0.8038,-0.8038,-0.8038,-0.8038,-0.8158,-0.9284,-1.1355,-1.3713,-1.45,-1.5125,-1.6195,-1.6887,-1.7203,-1.7198,-1.7445,-1.7542,-1.7582,-1.7569,-1.7582,-1.7582,-1.7582,-1.7582,-1.7582,-1.7582,-1.7582,-1.7475,-1.7288,-1.7001,-1.6147,-1.5342,-1.341,-1.1002,-1.2037,-1.5316,-1.6668,-1.7225,-1.7635,-0.6348,-0.3516,-0.1008,0.0,0.0,0.0,0.0,-0.0202,-0.2714,-0.5432,-0.7779,-0.7959,-0.7945,-0.7753,-0.5327,-0.2615,0.0,0.0,0.0,0.0,0.0,-0.3017,-0.7785,-0.7979,-0.7959,-0.8038,-0.8024,-0.8011,-0.8018,-0.8024,-0.8031,-0.8018,-0.7889,-0.7882,-0.7963,-0.7875,-0.7889,-0.8004,-0.8045,-0.8045,-0.7965,-0.7978,-0.7985,-0.7979,-0.8045,-0.8058,-0.8052,-0.8045,-0.8038,-0.8031,-0.8018,-0.8018,-0.8011,-0.8018,-0.8018,-0.8024,-0.8031,-0.8038,-0.8038,-0.8038,-0.8031,-0.8024,-0.8011,-0.8024,-0.8004,-0.7905,-0.7918,-0.8038,-0.8024,-0.8011,-0.8011,-0.8024,-0.8038,-0.8038,-0.8038,-0.8038,-0.8038,-0.8038,-0.8038,-0.8038,-0.8052,-0.8079,-0.8065,-0.9603,-1.1364,-1.3137,-1.4356,-1.5196,-1.6215,-1.6896,-1.6924,-1.7186,-1.7305,-1.7582,-1.7582,-1.7582,-1.7582,-1.7582,-1.7582,-1.7582,-1.7582,-1.7582,-1.7582,-1.7542,-1.7368,-1.7211,-1.699,-1.5446,-1.2846,-1.1611,-1.249,-1.4741,-1.6187,-1.6983,-1.7543,-0.5445,-0.141,-0.0404,0.0,0.0,0.0,0.0,0.0,-0.1006,-0.3924,-0.7478,-0.7972,-0.7965,-0.7972,-0.7059,-0.4124,0.0,0.0,0.0,0.0,0.0,-0.1908,-0.5231,-0.7153,-0.7959,-0.8038,-0.8038,-0.8038,-0.8038,-0.8038,-0.8038,-0.8031,-0.7991,-0.7991,-0.8018,-0.7991,-0.7991,-0.8045,-0.8133,-0.8187,-0.8201,-0.8014,-0.8059,-0.8323,-0.8323,-0.8323,-0.8323,-0.8235,-0.8187,-0.8187,-0.8099,-0.8038,-0.8038,-0.8038,-0.8038,-0.8038,-0.8038,-0.8038,-0.8038,-0.8038,-0.8038,-0.8038,-0.8038,-0.8038,-0.8038,-0.8038,-0.8038,-0.8038,-0.8038,-0.8038,-0.8038,-0.8038,-0.8038,-0.8038,-0.8038,-0.8038,-0.8038,-0.8038,-0.8038,-0.8052,-0.8119,-0.8323,-0.8316,-0.8912,-1.0184,-1.2068,-1.2568,-1.3158,-1.4046,-1.4534,-1.4836,-1.5024,-1.6237,-1.7238,-1.6168,-1.7147,-1.7582,-1.7582,-1.7582,-1.7595,-1.7595,-1.7622,-1.7622,-1.7649,-1.7475,-1.7462,-1.716,-1.5128,-1.2549,-1.1783,-1.2891,-1.4265,-1.5666,-1.6429,-1.7245,-0.4128,0.0,0.0,0.0,0.0,0.0,0.0,0.0,0.0,-0.2513,-0.6247,-0.7566,-0.7972,-0.7965,-0.7985,-0.5641,-0.1408,0.0,0.0,0.0,0.0,-0.1408,-0.4117,-0.6748,-0.7965,-0.8052,-0.8092,-0.8092,-0.8052,-0.8092,-0.8085,-0.8045,-0.8038,-0.8038,-0.8038,-0.8038,-0.8058,-0.8119,-0.8221,-0.8289,-0.835,-0.8262,-0.8335,-0.856,-0.8601,-0.8574,-0.8492,-0.8391,-0.8316,-0.8262,-0.8167,-0.8092,-0.8045,-0.8038,-0.8038,-0.8038,-0.8038,-0.8038,-0.8038,-0.8038,-0.8038,-0.8038,-0.8038,-0.8038,-0.8045,-0.8079,-0.8085,-0.8065,-0.8092,-0.8113,-0.8113,-0.8119,-0.8092,-0.8052,-0.8038,-0.8038,-0.8038,-0.8038,-0.8065,-0.8133,-0.8459,-0.8481,-0.8367,-0.8615,-0.9647,-1.1283,-1.1173,-1.1496,-1.2656,-1.2976,-1.3204,-1.327,-1.529,-1.6211,-1.6271,-1.7213,-1.7636,-1.7689,-1.7782,-1.7742,-1.7689,-1.7689,-1.7729,-1.7729,-1.7729,-1.7729,-1.6693,-1.4663,-1.3186,-1.1955,-1.2376,-1.3729,-1.482,-1.5761,-1.693,-0.2611,0.0,0.0,0.0,0.0,0.0,0.0,0.0,0.0,-0.1708,-0.4622,-0.6848,-0.7965,-0.7952,-0.7979,-0.6453,-0.3616,-0.1109,0.0,0.0,0.0,-0.1611,-0.4117,-0.6753,-0.7985,-0.7965,-0.8194,-0.8187,-0.8099,-0.8201,-0.8201,-0.8072,-0.8065,-0.8058,-0.8038,-0.8058,-0.8126,-0.8235,-0.8289,-0.8364,-0.8486,-0.8521,-0.8602,-0.8723,-0.8838,-0.8777,-0.852,-0.8492,-0.8431,-0.8316,-0.8282,-0.8194,-0.8085,-0.8045,-0.8045,-0.7959,-0.8052,-0.8045,-0.8065,-0.8072,-0.8092,-0.8065,-0.8052,-0.8065,-0.8085,-0.816,-0.818,-0.8113,-0.8174,-0.8255,-0.8255,-0.8262,-0.8221,-0.8085,-0.8092,-0.8092,-0.8079,-0.8058,-0.8106,-0.8269,-0.8619,-0.8696,-0.8632,-0.8648,-0.9377,-1.0345,-1.0675,-1.0957,-1.2144,-1.2313,-1.2763,-1.3227,-1.3778,-1.424,-1.5888,-1.7426,-1.7655,-1.7956,-1.7983,-1.8023,-1.7929,-1.7916,-1.8023,-1.8036,-1.7915,-1.7915,-1.7564,-1.5608,-1.3826,-1.2793,-1.3213,-1.3483,-1.4375,-1.5588,-1.696,-0.4121,0.0,0.0,0.0,0.0,0.0,0.0,0.0,0.0,0.0,-0.4221,-0.6853,-0.7965,-0.7952,-0.7972,-0.6553,-0.3917,0.0,0.0,0.0,-0.1819,-0.3128,-0.4325,-0.6759,-0.8026,-0.7985,-0.8241,-0.8405,-0.8557,-0.8495,-0.8336,-0.8119,-0.8099,-0.814,-0.8058,-0.814,-0.8228,-0.8282,-0.8472,-0.8594,-0.8648,-0.8682,-0.8756,-0.8872,-0.8913,-0.8886,-0.8798,-0.8696,-0.8621,-0.8567,-0.8472,-0.835,-0.8214,-0.8099,-0.7992,-0.7978,-0.8093,-0.8248,-0.833,-0.8336,-0.8289,-0.8228,-0.8201,-0.8201,-0.818,-0.8153,-0.816,-0.818,-0.8248,-0.8269,-0.8282,-0.8364,-0.8391,-0.835,-0.8343,-0.833,-0.8323,-0.8233,-0.8314,-0.854,-0.8721,-0.879,-0.8771,-0.8852,-0.9064,-0.9392,-0.9618,-1.0006,-1.0342,-1.0683,-1.0412,-1.0736,-1.1377,-1.273,-1.453,-1.6648,-1.8013,-1.822,-1.8343,-1.8277,-1.8183,-1.821,-1.8303,-1.8343,-1.822,-1.8097,-1.7728,-1.6906,-1.5188,-1.3625,-1.3432,-1.3857,-1.4417,-1.5503,-1.6854,-0.6042,-0.2814,-0.0804,0.0,0.0,0.0,0.0,0.0,0.0,0.0,-0.4121,-0.6859,-0.7972,-0.7952,-0.7972,-0.6453,-0.3817,0.0,0.0,0.0,-0.2737,-0.395,-0.4358,-0.6816,-0.8119,-0.813,-0.83,-0.8556,-0.8912,-0.8646,-0.8492,-0.837,-0.835,-0.8309,-0.8214,-0.8296,-0.837,-0.8459,-0.8669,-0.8818,-0.8893,-0.9022,-0.899,-0.9096,-0.9049,-0.9049,-0.9076,-0.8906,-0.8764,-0.8696,-0.8567,-0.8438,-0.835,-0.8262,-0.8146,-0.811,-0.8247,-0.8495,-0.8577,-0.857,-0.8452,-0.837,-0.835,-0.835,-0.8343,-0.8282,-0.833,-0.8336,-0.8411,-0.8431,-0.8452,-0.8506,-0.8587,-0.8648,-0.8533,-0.8492,-0.8486,-0.8428,-0.8481,-0.8575,-0.8757,-0.8838,-0.8906,-0.894,-0.894,-0.894,-0.8988,-0.9035,-0.9144,-0.9312,-0.9313,-0.975,-1.0917,-1.2347,-1.35,-1.5687,-1.8097,-1.8551,-1.8771,-1.8584,-1.8424,-1.8544,-1.8651,-1.8637,-1.8526,-1.8651,-1.8401,-1.8282,-1.7216,-1.5738,-1.4443,-1.495,-1.5759,-1.5729,-1.6763,-0.7972,-0.7359,-0.2613,0.0,0.0,0.0,0.0,0.0,0.0,-0.1511,-0.4121,-0.6859,-0.7972,-0.7952,-0.7972,-0.6553,-0.3817,0.0,0.0,0.0,-0.2666,-0.4191,-0.5064,-0.725,-0.8267,-0.8421,-0.8541,-0.8776,-0.8976,-0.8824,-0.8769,-0.8765,-0.8618,-0.8479,-0.8452,-0.8479,-0.8554,-0.8676,-0.8859,-0.9008,-0.9236,-0.9273,-0.9238,-0.9347,-0.9239,-0.9218,-0.9279,-0.911,-0.8906,-0.875,-0.8628,-0.8652,-0.8513,-0.8604,-0.8459,-0.8164,-0.8387,-0.8625,-0.873,-0.8666,-0.8533,-0.8499,-0.8499,-0.8492,-0.8394,-0.8434,-0.8554,-0.8618,-0.8601,-0.8682,-0.8676,-0.8716,-0.8777,-0.8866,-0.8703,-0.8567,-0.8533,-0.8541,-0.8615,-0.8649,-0.8845,-0.894,-0.894,-0.8947,-0.896,-0.8967,-0.9062,-0.9164,-0.9211,-0.9313,-0.9449,-0.9994,-1.0768,-1.1811,-1.3095,-1.3159,-1.5601,-1.8034,-1.848,-1.8646,-1.8805,-1.9025,-1.9078,-1.9052,-1.8924,-1.9025,-1.9025,-1.8858,-1.8871,-1.8018,-1.7265,-1.7053,-1.6774,-1.669,-1.7161,-0.7959,-0.7772,-0.6448,-0.3616,0.0,0.0,0.0,0.0,0.0,-0.1511,-0.4221,-0.6859,-0.7972,-0.7945,-0.7972,-0.6553,-0.4021,0.0,0.0,0.0,-0.3021,-0.553,-0.6962,-0.802,-0.8567,-0.8682,-0.8756,-0.8974,-0.9243,-0.9167,-0.8954,-0.8927,-0.8817,-0.8601,-0.8513,-0.8601,-0.8662,-0.8635,-0.8974,-0.9229,-0.9412,-0.9435,-0.9381,-0.9374,-0.9463,-0.9456,-0.9381,-0.9313,-0.9198,-0.9042,-0.8899,-0.8818,-0.8804,-0.8855,-0.8687,-0.8548,-0.8562,-0.871,-0.8907,-0.8818,-0.8771,-0.8662,-0.8669,-0.8655,-0.8642,-0.8581,-0.8587,-0.8621,-0.8696,-0.8716,-0.873,-0.8811,-0.8893,-0.892,-0.8838,-0.8791,-0.8804,-0.8845,-0.8769,-0.8886,-0.892,-0.8947,-0.8967,-0.9028,-0.9055,-0.9028,-0.915,-0.932,-0.9347,-0.9449,-0.9598,-0.972,-1.0286,-1.1468,-1.2167,-1.1856,-1.326,-1.6652,-1.795,-1.8596,-1.9089,-1.9693,-1.9693,-1.9653,-1.9404,-1.9508,-1.943,-1.9312,-1.9378,-1.9548,-1.8669,-1.766,-1.7494,-1.7385,-1.8106,-0.8045,-0.7959,-0.7965,-0.6242,-0.3115,-0.1006,0.0,0.0,0.0,-0.1511,-0.4121,-0.6859,-0.7979,-0.7959,-0.7979,-0.7172,-0.5345,-0.1729,0.0,0.0,-0.3107,-0.592,-0.7999,-0.8655,-0.8804,-0.9015,-0.9096,-0.9218,-0.9334,-0.9286,-0.9171,-0.9035,-0.894,-0.8818,-0.8703,-0.875,-0.8838,-0.8927,-0.913,-0.9273,-0.947,-0.9607,-0.9557,-0.9551,-0.9634,-0.958,-0.9408,-0.9496,-0.9469,-0.9286,-0.9171,-0.901,-0.9117,-0.9078,-0.9016,-0.8876,-0.8994,-0.9042,-0.9103,-0.9123,-0.9055,-0.8933,-0.8893,-0.8859,-0.8811,-0.8716,-0.873,-0.8791,-0.8804,-0.8804,-0.8818,-0.8893,-0.8933,-0.8933,-0.894,-0.894,-0.894,-0.8927,-0.8933,-0.8947,-0.8988,-0.9028,-0.9147,-0.927,-0.9191,-0.9198,-0.9334,-0.9435,-0.9496,-0.9618,-0.9741,-0.9856,-0.9834,-1.0776,-1.1393,-1.1217,-1.2465,-1.5535,-1.8225,-1.8803,-1.9229,-1.9945,-2.0107,-1.9933,-1.9905,-1.9837,-1.9811,-1.9879,-1.9933,-1.9747,-1.8879,-1.8638,-1.8567,-1.8411,-1.9145,-0.8038,-0.8038,-0.7959,-0.7972,-0.7054,-0.3015,0.0,0.0,0.0,-0.2115,-0.4726,-0.6965,-0.7979,-0.7972,-0.7366,-0.7384,-0.6995,-0.2053,0.0,0.0,-0.3064,-0.6102,-0.8749,-0.8906,-0.9042,-0.9211,-0.9347,-0.9415,-0.9456,-0.9435,-0.932,-0.9205,-0.9171,-0.9076,-0.894,-0.896,-0.9049,-0.913,-0.9185,-0.9332,-0.9557,-0.9686,-0.9754,-0.9754,-0.9727,-0.9751,-0.9591,-0.968,-0.9734,-0.9496,-0.9319,-0.9388,-0.9395,-0.9265,-0.9231,-0.9211,-0.9306,-0.9327,-0.9483,-0.9334,-0.9313,-0.9184,-0.9164,-0.9117,-0.8994,-0.894,-0.894,-0.8954,-0.896,-0.8974,-0.9008,-0.9001,-0.9022,-0.9035,-0.9015,-0.8994,-0.8981,-0.896,-0.894,-0.8967,-0.9083,-0.9257,-0.9446,-0.9415,-0.9395,-0.93,-0.9449,-0.9564,-0.9639,-0.9741,-0.9863,-0.9985,-0.9948,-1.0035,-1.0417,-1.0677,-1.2434,-1.4857,-1.7987,-1.9374,-1.9385,-1.9827,-2.0117,-2.0239,-2.0358,-2.0385,-2.0468,-2.0537,-2.0456,-2.0294,-1.9659,-1.9902,-2.0051,-1.9814,-2.0191,-0.8038,-0.8038,-0.8045,-0.7959,-0.7766,-0.6748,-0.5027,-0.3213,-0.3115,-0.4626,-0.6748,-0.7772,-0.7965,-0.7846,-0.6237,-0.4826,-0.4642,0.0,0.0,0.0,-0.3102,-0.6205,-0.8633,-0.9123,-0.9259,-0.9442,-0.953,-0.9612,-0.9673,-0.971,-0.96,-0.9354,-0.932,-0.9205,-0.9015,-0.9157,-0.9225,-0.9225,-0.9298,-0.9557,-0.9632,-0.9761,-0.9842,-0.9856,-0.991,-0.9937,-0.9924,-0.9964,-1.0025,-0.9992,-0.9895,-0.9598,-0.9564,-0.9586,-0.9538,-0.9415,-0.9401,-0.9395,-0.9388,-0.9408,-0.9374,-0.9347,-0.9327,-0.9273,-0.913,-0.9103,-0.911,-0.911,-0.911,-0.915,-0.9232,-0.9158,-0.9138,-0.9245,-0.9252,-0.9259,-0.9245,-0.9083,-0.891,-0.897,-0.903,-0.9312,-0.968,-0.9586,-0.9503,-0.9449,-0.9537,-0.9686,-0.9781,-0.9863,-0.9985,-1.0114,-1.0102,-1.0189,-1.029,-1.0658,-1.1682,-1.385,-1.6997,-1.8855,-1.8998,-2.0125,-2.0557,-2.0722,-2.0828,-2.094,-2.0859,-2.0668,-2.0575,-2.0575,-2.0575,-2.0575,-2.0615,-2.0748,-1.9901,-0.8038,-0.8038,-0.8038,-0.8045,-0.7959,-0.7972,-0.7153,-0.6037,-0.5842,-0.6648,-0.7766,-0.7972,-0.7965,-0.7952,-0.6437,-0.4826,-0.2226,0.0,0.0,0.0,-0.191,-0.411,-0.7201,-0.8659,-0.9483,-0.9618,-0.968,-0.9754,-0.9781,-0.9741,-0.9751,-0.9621,-0.949,-0.9374,-0.9178,-0.9306,-0.9374,-0.9401,-0.9392,-0.9513,-0.972,-0.9849,-0.9854,-1.0025,-1.0114,-1.0154,-1.0154,-1.0154,-1.0202,-1.0202,-1.0184,-1.0005,-0.9802,-0.9799,-0.9717,-0.9585,-0.9591,-0.9585,-0.9591,-0.9585,-0.9564,-0.9496,-0.949,-0.9401,-0.9306,-0.9138,-0.9138,-0.9259,-0.938,-0.9415,-0.9367,-0.9374,-0.9381,-0.9381,-0.9381,-0.9381,-0.9361,-0.9239,-0.9051,-0.9023,-0.9211,-0.9401,-0.9628,-0.9737,-0.9666,-0.9632,-0.9652,-0.9795,-0.9903,-0.9992,-1.0127,-1.0256,-1.025,-1.035,-1.0431,-1.0622,-1.0892,-1.3093,-1.5683,-1.6883,-1.7374,-1.9054,-2.1015,-2.1015,-2.0989,-2.1029,-2.0962,-2.077,-2.0717,-2.0855,-2.0869,-2.0882,-2.0631,-2.0281,-1.903,-0.8038,-0.8038,-0.8038,-0.8038,-0.8045,-0.7959,-0.7965,-0.7865,-0.7979,-0.7766,-0.7972,-0.7965,-0.7965,-0.7965,-0.7872,-0.4834,0.0,0.0,0.0,0.0,0.0,0.0,-0.5268,-0.7965,-0.9506,-0.9526,-0.9747,-0.9815,-0.9815,-0.9808,-0.972,-0.9751,-0.9758,-0.9517,-0.9408,-0.9442,-0.9503,-0.9564,-0.9546,-0.9633,-0.9741,-0.9875,-1.0009,-1.0215,-1.029,-1.031,-1.031,-1.031,-1.0331,-1.0344,-1.031,-1.0222,-1.012,-0.9854,-0.9767,-0.989,-0.989,-0.989,-0.989,-0.9883,-0.9836,-0.9693,-0.968,-0.9585,-0.9469,-0.9292,-0.9292,-0.9429,-0.9559,-0.971,-0.9449,-0.949,-0.9483,-0.9469,-0.9462,-0.9449,-0.9449,-0.9449,-0.9325,-0.9065,-0.9235,-0.9537,-0.9751,-0.9727,-0.9781,-0.9829,-0.9849,-0.9897,-1.0005,-1.0134,-1.027,-1.0378,-1.0364,-1.0437,-1.0643,-1.0677,-1.0955,-1.215,-1.4502,-1.5593,-1.6525,-1.9253,-2.1107,-2.1122,-2.1082,-2.1122,-2.1122,-2.1029,-2.1029,-2.1096,-2.1082,-2.1015,-2.0511,-1.9801,-1.8396,-0.8038,-0.8038,-0.8038,-0.8038,-0.8038,-0.8045,-0.8045,-0.7945,-0.7952,-0.7945,-0.8045,-0.8045,-0.7945,-0.7952,-0.7965,-0.5006,0.0,0.0,0.0,0.0,0.0,0.0,-0.5518,-0.8272,-0.9707,-0.9774,-0.9815,-0.9822,-0.9822,-0.9815,-0.9754,-0.9786,-0.972,-0.9652,-0.9544,-0.9598,-0.9666,-0.9666,-0.9802,-0.9808,-0.9881,-1.0148,-1.0263,-1.0331,-1.0412,-1.0453,-1.046,-1.0466,-1.0514,-1.0609,-1.0412,-1.0358,-1.0358,-1.0009,-0.9943,-1.0035,-1.0029,-1.0015,-1.0022,-1.0175,-1.0114,-1.0019,-0.9964,-0.9822,-0.9652,-0.9578,-0.9585,-0.9598,-0.9659,-0.9734,-0.9747,-0.9707,-0.9734,-0.9741,-0.972,-0.972,-0.9734,-0.9707,-0.956,-0.938,-0.9513,-0.9666,-0.9768,-0.9842,-0.9883,-0.9944,-0.9992,-1.0032,-1.0114,-1.0263,-1.0419,-1.0514,-1.0595,-1.0656,-1.0711,-1.0717,-1.0871,-1.1563,-1.3434,-1.5252,-1.6765,-1.9735,-2.1176,-2.0786,-2.1001,-2.1243,-2.1216,-2.1203,-2.1216,-2.1309,-2.1216,-2.1122,-2.0706,-2.0259,-1.8875,-0.9015,-0.8924,-0.8336,-0.8038,-0.8038,-0.8038,-0.8038,-0.8038,-0.8038,-0.8038,-0.8038,-0.8038,-0.8038,-0.8045,-0.7952,-0.5639,-0.2739,-0.0426,-0.174,-0.3698,-0.5066,-0.5602,-0.7189,-0.9161,-0.964,-0.9815,-0.9822,-0.9822,-0.9822,-0.9822,-0.9788,-0.9761,-0.9795,-0.9741,-0.9666,-0.9734,-0.9781,-0.9774,-0.9869,-0.9992,-1.008,-1.0397,-1.0541,-1.0514,-1.0555,-1.0602,-1.0609,-1.0609,-1.0643,-1.0677,-1.0588,-1.0561,-1.0568,-1.0411,-1.0174,-1.0196,-1.0163,-1.0283,-1.0283,-1.0276,-1.0202,-1.008,-1.0114,-1.0019,-0.9836,-0.9774,-0.9788,-0.9754,-0.9754,-0.9822,-0.9808,-0.9829,-0.9856,-0.9903,-0.9883,-0.9876,-0.9897,-0.9869,-0.9714,-0.9559,-0.9667,-0.9822,-1.0033,-1.0095,-0.9992,-1.0046,-1.012,-1.0181,-1.0236,-1.0378,-1.0534,-1.0609,-1.0677,-1.0717,-1.0778,-1.096,-1.0967,-1.139,-1.2807,-1.4504,-1.6047,-1.8619,-1.9784,-1.9998,-2.0383,-2.1162,-2.1434,-2.15,-2.1447,-2.1368,-2.1443,-2.1416,-2.1212,-2.0566,-1.9326,-1.0386,-1.0288,-0.8924,-0.8428,-0.8329,-0.8137,-0.8038,-0.8038,-0.8038,-0.7959,-0.7979,-0.7952,-0.7959,-0.7985,-0.7818,-0.6691,-0.4239,-0.192,-0.3711,-0.6522,-0.8493,-0.9449,-0.951,-0.968,-0.9842,-0.9822,-0.9883,-0.9849,-0.9822,-0.9822,-0.9842,-0.9869,-0.9869,-0.989,-0.9917,-0.9951,-0.9917,-0.9917,-0.9951,-1.0156,-1.0468,-1.0677,-1.0726,-1.0704,-1.0717,-1.0711,-1.0704,-1.0751,-1.0765,-1.0778,-1.0765,-1.0645,-1.0799,-1.0778,-1.0518,-1.0323,-1.0392,-1.0371,-1.0378,-1.0385,-1.0351,-1.0215,-1.027,-1.0154,-1.0019,-0.9848,-0.9854,-0.9897,-0.9876,-0.991,-0.9951,-0.9924,-0.9985,-1.0032,-1.0005,-0.9951,-1.0025,-0.9915,-0.9901,-0.9868,-0.9828,-0.9992,-1.0211,-1.0232,-1.0127,-1.0175,-1.0249,-1.0317,-1.0385,-1.048,-1.0609,-1.0683,-1.0744,-1.0778,-1.098,-1.1226,-1.1104,-1.1267,-1.2877,-1.4782,-1.5767,-1.6909,-1.7966,-1.9364,-2.027,-2.1073,-2.1447,-2.1859,-2.1844,-2.175,-2.1697,-2.1697,-2.1593,-2.1202,-2.0223,-1.1658,-1.156,-1.0288,-0.9805,-0.9608,-0.8528,-0.8038,-0.8038,-0.8038,-0.8019,-0.8004,-0.8012,-0.8019,-0.8113,-0.835,-0.7291,-0.5725,-0.4744,-0.4607,-0.6522,-0.8359,-0.9559,-0.9469,-0.972,-0.9836,-0.9863,-0.9964,-0.993,-0.9876,-0.9842,-0.991,-1.0122,-1.0019,-1.0073,-1.0154,-1.0154,-1.0229,-1.0236,-1.0331,-1.0453,-1.0575,-1.0649,-1.069,-1.0711,-1.0731,-1.0744,-1.0772,-1.0846,-1.0914,-1.0921,-1.0779,-1.0846,-1.092,-1.0839,-1.0657,-1.0699,-1.0625,-1.0663,-1.0643,-1.0616,-1.0548,-1.0419,-1.0446,-1.0371,-1.0243,-1.01,-1.0059,-1.0039,-1.0025,-1.0066,-1.0148,-1.0328,-1.0236,-1.0229,-1.0202,-1.0195,-1.0236,-1.0168,-1.0029,-0.9956,-1.0049,-1.0209,-1.0276,-1.0397,-1.0397,-1.0317,-1.0378,-1.0453,-1.0514,-1.0595,-1.069,-1.0632,-1.0692,-1.0867,-1.1097,-1.1337,-1.1427,-1.1165,-1.2688,-1.4526,-1.4885,-1.5643,-1.783,-1.9111,-2.0027,-2.1109,-2.1797,-2.2031,-2.2098,-2.2149,-2.2017,-2.1977,-2.1951,-2.1411,-2.0882,-1.4112,-1.3966,-1.1863,-1.1072,-1.0877,-0.9706,-0.9114,-0.9023,-0.8336,-0.8019,-0.8031,-0.8106,-0.8248,-0.835,-0.8433,-0.8099,-0.7416,-0.697,-0.6947,-0.6969,-0.8558,-0.9422,-0.9476,-0.9686,-0.9849,-0.9951,-1.0005,-1.0019,-0.9964,-0.9971,-1.0032,-1.0266,-1.01,-1.0114,-1.0297,-1.0283,-1.0276,-1.031,-1.0405,-1.0514,-1.0595,-1.067,-1.0717,-1.0724,-1.0799,-1.0839,-1.088,-1.0989,-1.1063,-1.107,-1.1063,-1.0953,-1.0993,-1.1097,-1.1056,-1.0853,-1.3046,-1.3068,-1.115,-1.0864,-1.0643,-1.0575,-1.0555,-1.0548,-1.0412,-1.027,-1.0181,-1.0049,-1.0181,-1.0229,-1.027,-1.0276,-1.0337,-1.0358,-1.0358,-1.0371,-1.0365,-1.0297,-1.0149,-1.021,-1.027,-1.0426,-1.0439,-1.0419,-1.0439,-1.0507,-1.0541,-1.0582,-1.0622,-1.0663,-1.0625,-1.0719,-1.0772,-1.0826,-1.1221,-1.1483,-1.1495,-1.1423,-1.1558,-1.313,-1.3551,-1.4633,-1.6509,-1.8545,-1.9645,-2.0742,-2.1897,-2.2427,-2.2579,-2.2458,-2.2352,-2.2392,-2.2432,-2.2125,-2.1494,-1.5777,-1.5556,-1.3329,-1.2425,-1.2231,-1.0965,-1.0288,-0.9805,-0.8916,-0.8341,-0.8193,-0.8253,-0.8425,-0.8465,-0.8549,-0.8533,-0.8615,-0.8791,-0.8872,-0.9035,-0.9232,-0.9381,-0.9476,-0.9673,-0.9903,-1.0059,-1.0107,-1.0114,-1.0252,-1.0154,-1.0215,-1.0276,-1.0175,-1.0243,-1.0351,-1.0419,-1.0426,-1.0439,-1.0514,-1.0568,-1.0595,-1.067,-1.0711,-1.0765,-1.0853,-1.0955,-1.0975,-1.1138,-1.1212,-1.1219,-1.1219,-1.1246,-1.1294,-1.1372,-1.3165,-1.425,-1.7254,-1.6651,-1.4182,-1.2555,-1.1372,-1.0802,-1.0622,-1.0636,-1.0493,-1.0385,-1.0337,-1.0331,-1.0331,-1.0351,-1.0385,-1.0405,-1.0466,-1.0493,-1.048,-1.05,-1.0507,-1.046,-1.0446,-1.0507,-1.0431,-1.0588,-1.0595,-1.0575,-1.0609,-1.0683,-1.0717,-1.0717,-1.0738,-1.0744,-1.0699,-1.0799,-1.094,-1.1,-1.1233,-1.1502,-1.166,-1.166,-1.1803,-1.2079,-1.2784,-1.3378,-1.4809,-1.6736,-1.8852,-2.0911,-2.2256,-2.2662,-2.3086,-2.3046,-2.3006,-2.2979,-2.2939,-2.2752,-2.162,-1.5832,-1.5642,-1.4364,-1.3776,-1.3692,-1.2328,-1.117,-1.0386,-0.9903,-0.9198,-0.8334,-0.8481,-0.8581,-0.8547,-0.8608,-0.8662,-0.873,-0.8859,-0.8913,-0.9035,-0.9218,-0.9347,-0.9469,-0.9666,-0.991,-1.0073,-1.0195,-1.0263,-1.029,-1.0351,-1.0344,-1.029,-1.0276,-1.0446,-1.0568,-1.0609,-1.0616,-1.0622,-1.0663,-1.0677,-1.0677,-1.0711,-1.0724,-1.0772,-1.1008,-1.1097,-1.0975,-1.1233,-1.1416,-1.1423,-1.1416,-1.1477,-1.1531,-1.1571,-1.3817,-1.9273,-2.0828,-2.0036,-1.7612,-1.454,-1.2657,-1.1404,-1.0806,-1.069,-1.0678,-1.0507,-1.048,-1.061,-1.048,-1.0534,-1.0609,-1.0683,-1.0643,-1.0629,-1.0602,-1.0616,-1.0636,-1.0643,-1.0643,-1.0683,-1.0697,-1.069,-1.0683,-1.0649,-1.0643,-1.0711,-1.0724,-1.0731,-1.0799,-1.0833,-1.0779,-1.09,-1.0961,-1.1201,-1.1402,-1.1552,-1.1748,-1.1864,-1.1979,-1.2121,-1.2416,-1.313,-1.3679,-1.5351,-1.7624,-2.0196,-2.2331,-2.2637,-2.2989,-2.3417,-2.3647,-2.346,-2.338,-2.326,-2.1732,-1.5832,-1.5724,-1.5235,-1.5045,-1.4949,-1.3692,-1.2813,-1.2134,-1.0681,-0.9408,-0.8492,-0.8635,-0.873,-0.8743,-0.881,-0.8771,-0.8845,-0.8899,-0.8933,-0.8994,-0.9137,-0.9279,-0.9435,-0.968,-0.9944,-1.0168,-1.0331,-1.0541,-1.0555,-1.0487,-1.0596,-1.0555,-1.0405,-1.0527,-1.0656,-1.0717,-1.0717,-1.0717,-1.0717,-1.0717,-1.0717,-1.0724,-1.0765,-1.0867,-1.1002,-1.1324,-1.1348,-1.1463,-1.1626,-1.1721,-1.1687,-1.1603,-1.1663,-1.1687,-1.5947,-2.238,-2.3479,-2.2205,-1.9692,-1.6284,-1.3078,-1.1482,-1.088,-1.0799,-1.0663,-1.0636,-1.0629,-1.0636,-1.0636,-1.0683,-1.0697,-1.0717,-1.0704,-1.0717,-1.0724,-1.0738,-1.0717,-1.0717,-1.0717,-1.0711,-1.0711,-1.0711,-1.0711,-1.0711,-1.0711,-1.0717,-1.0731,-1.0751,-1.0833,-1.0941,-1.09,-1.1034,-1.1235,-1.1538,-1.1749,-1.1942,-1.2148,-1.2074,-1.2149,-1.2305,-1.244,-1.258,-1.3304,-1.4694,-1.6366,-1.887,-2.0934,-2.2264,-2.3044,-2.3733,-2.4018,-2.3883,-2.3843,-2.387,-2.23,-1.5832,-1.5832,-1.5832,-1.5832,-1.5629,-1.4854,-1.4268,-1.3596,-1.2109,-1.0483,-0.9173,-0.899,-0.8907,-0.8872,-0.8955,-0.8941,-0.8906,-0.8933,-0.8933,-0.9015,-0.9144,-0.9266,-0.9462,-0.972,-1.0032,-1.0263,-1.0412,-1.0487,-1.0616,-1.0664,-1.0658,-1.0644,-1.0678,-1.0636,-1.0683,-1.0717,-1.0717,-1.0717,-1.0717,-1.0717,-1.0717,-1.0724,-1.0792,-1.0934,-1.107,-1.1294,-1.1504,-1.1647,-1.1789,-1.1911,-1.1952,-1.1804,-1.1817,-1.3022,-1.6608,-2.1207,-2.4115,-2.3001,-2.0757,-1.6977,-1.3675,-1.2278,-1.1152,-1.0948,-1.0739,-1.0678,-1.0652,-1.0652,-1.0792,-1.0792,-1.0792,-1.0846,-1.0846,-1.086,-1.0833,-1.0819,-1.0744,-1.0717,-1.0717,-1.0717,-1.0724,-1.0744,-1.0846,-1.0853,-1.0806,-1.0806,-1.0812,-1.0846,-1.0914,-1.1036,-1.1054,-1.1201,-1.1382,-1.1681,-1.2108,-1.2148,-1.2306,-1.2223,-1.2318,-1.2488,-1.2589,-1.2589,-1.2786,-1.3923,-1.5604,-1.7827,-1.9432,-2.0887,-2.2645,-2.4209,-2.4286,-2.4286,-2.4354,-2.4235,-2.3484,-1.5832,-1.5832,-1.5832,-1.5832,-1.5818,-1.5724,-1.5045,-1.4112,-1.3728,-1.2476,-1.0551,-0.9348,-0.8798,-0.8906,-0.8906,-0.892,-0.8927,-0.894,-0.894,-0.8994,-0.9171,-0.9327,-0.9517,-0.9768,-1.0039,-1.0256,-1.0392,-1.046,-1.076,-1.0713,-1.0713,-1.0713,-1.0629,-1.0697,-1.0717,-1.0717,-1.0717,-1.0717,-1.0717,-1.0717,-1.0717,-1.0724,-1.0806,-1.0982,-1.1234,-1.1454,-1.1647,-1.1748,-1.1898,-1.2094,-1.2094,-1.2088,-1.2108,-1.2275,-1.648,-2.3439,-2.3931,-2.3745,-2.3158,-1.7744,-1.5008,-1.3465,-1.2204,-1.1165,-1.0842,-1.0763,-1.0812,-1.0819,-1.0941,-1.1083,-1.0989,-1.1036,-1.1002,-1.0982,-1.0955,-1.09,-1.0826,-1.0772,-1.0785,-1.0751,-1.0751,-1.0785,-1.0928,-1.1009,-1.0934,-1.0914,-1.0907,-1.0948,-1.1023,-1.1179,-1.1214,-1.1395,-1.1576,-1.2052,-1.2359,-1.2484,-1.2457,-1.2372,-1.2481,-1.2644,-1.2766,-1.2807,-1.3013,-1.3401,-1.4584,-1.632,-1.8106,-1.9754,-2.2253,-2.477,-2.4676,-2.4663,-2.4878,-2.4703,-2.4074,-1.5832,-1.5832,-1.5832,-1.5832,-1.5832,-1.5832,-1.5534,-1.4904,-1.3577,-1.2108,-1.0771,-0.9348,-0.8798,-0.8899,-0.894,-0.894,-0.894,-0.894,-0.894,-0.8967,-0.9164,-0.9279,-0.9462,-0.9727,-0.9992,-1.0134,-1.0276,-1.0555,-1.076,-1.0706,-1.0761,-1.0649,-1.0683,-1.0711,-1.0717,-1.0717,-1.0717,-1.0717,-1.0717,-1.0717,-1.0717,-1.0731,-1.0833,-1.1063,-1.1283,-1.1537,-1.1823,-1.1877,-1.1999,-1.225,-1.2264,-1.225,-1.2298,-1.2505,-1.6187,-2.1452,-2.2238,-1.9572,-1.9779,-1.7477,-1.6402,-1.4694,-1.2775,-1.143,-1.1181,-1.0994,-1.1054,-1.1124,-1.1262,-1.1255,-1.1118,-1.1131,-1.1111,-1.1104,-1.107,-1.1009,-1.0941,-1.09,-1.0873,-1.0812,-1.0785,-1.1063,-1.1214,-1.1179,-1.1138,-1.1111,-1.1118,-1.1158,-1.1226,-1.1389,-1.1572,-1.161,-1.1791,-1.2285,-1.2602,-1.256,-1.2704,-1.2657,-1.2705,-1.2786,-1.2888,-1.2983,-1.3192,-1.3394,-1.3924,-1.4758,-1.7861,-2.0659,-2.3409,-2.5259,-2.5304,-2.5117,-2.5214,-2.5173,-2.4767,-1.5832,-1.5832,-1.5832,-1.5832,-1.5845,-1.5939,-1.6086,-1.5758,-1.3579,-1.2113,-1.138,-0.97,-0.8798,-0.8899,-0.894,-0.894,-0.894,-0.894,-0.894,-0.8967,-0.915,-0.9286,-0.9469,-0.972,-1.0005,-1.012,-1.0229,-1.05,-1.0706,-1.0658,-1.0713,-1.0677,-1.0717,-1.0717,-1.0717,-1.0717,-1.0717,-1.0717,-1.0717,-1.0717,-1.0717,-1.0758,-1.0867,-1.1207,-1.1379,-1.1719,-1.1997,-1.204,-1.2088,-1.2352,-1.2447,-1.2433,-1.2501,-1.3406,-1.5429,-1.7693,-1.8968,-1.7264,-1.8299,-1.7586,-1.6232,-1.5394,-1.3133,-1.1887,-1.1606,-1.1389,-1.1477,-1.1409,-1.1489,-1.1475,-1.1328,-1.1328,-1.1341,-1.1341,-1.1246,-1.1185,-1.1084,-1.1043,-1.1009,-1.0806,-1.0812,-1.1228,-1.1511,-1.144,-1.1348,-1.1341,-1.1328,-1.1375,-1.1423,-1.1579,-1.1735,-1.175,-1.1958,-1.2464,-1.2628,-1.2766,-1.2917,-1.2929,-1.2956,-1.2949,-1.3044,-1.3139,-1.318,-1.32,-1.3753,-1.5105,-1.8888,-2.1905,-2.4519,-2.5723,-2.5892,-2.5692,-2.559,-2.5317,-2.5237,-1.5832,-1.5832,-1.5832,-1.5832,-1.5872,-1.6112,-1.654,-1.6817,-1.3992,-1.2914,-1.2999,-1.0031,-0.9015,-0.8913,-0.894,-0.894,-0.894,-0.894,-0.894,-0.9008,-0.9178,-0.9306,-0.9496,-0.9768,-0.9964,-1.0154,-1.027,-1.0472,-1.0636,-1.074,-1.0754,-1.069,-1.0717,-1.0717,-1.0717,-1.0717,-1.0717,-1.0717,-1.0717,-1.0717,-1.0717,-1.0731,-1.0887,-1.1207,-1.1351,-1.1653,-1.1997,-1.206,-1.223,-1.2406,-1.2515,-1.261,-1.261,-1.2663,-1.2773,-1.3654,-1.5789,-1.7345,-1.7511,-1.6294,-1.5852,-1.4975,-1.3442,-1.2477,-1.1999,-1.185,-1.1762,-1.1873,-1.1976,-1.1798,-1.1633,-1.166,-1.1687,-1.1599,-1.1484,-1.1375,-1.1246,-1.1192,-1.1172,-1.1013,-1.1034,-1.1141,-1.1436,-1.1518,-1.1586,-1.1579,-1.1565,-1.1558,-1.1619,-1.1728,-1.187,-1.1979,-1.221,-1.2622,-1.2793,-1.2931,-1.3089,-1.3091,-1.3098,-1.3112,-1.3207,-1.3275,-1.3295,-1.3288,-1.3568,-1.561,-1.9902,-2.2981,-2.5309,-2.6186,-2.6199,-2.6039,-2.5718,-2.5598,-2.5531,-1.5832,-1.5832,-1.5832,-1.5832,-1.5872,-1.6139,-1.638,-1.6289,-1.4501,-1.3529,-1.281,-1.1061,-0.9753,-0.8933,-0.894,-0.894,-0.894,-0.894,-0.894,-0.9028,-0.9164,-0.9279,-0.9442,-0.9652,-0.9822,-0.9964,-1.0218,-1.0376,-1.0426,-1.0644,-1.0656,-1.0717,-1.0717,-1.0717,-1.0717,-1.0717,-1.0717,-1.0717,-1.0717,-1.0717,-1.0717,-1.0717,-1.0907,-1.1077,-1.1441,-1.1653,-1.2052,-1.2067,-1.2271,-1.2576,-1.2651,-1.2739,-1.2695,-1.282,-1.3034,-1.3193,-1.5082,-1.6634,-1.5297,-1.5589,-1.5439,-1.4396,-1.3075,-1.2752,-1.2406,-1.2368,-1.2223,-1.2189,-1.2268,-1.2065,-1.2045,-1.1918,-1.1918,-1.183,-1.1735,-1.166,-1.1538,-1.1477,-1.1443,-1.1335,-1.1214,-1.1504,-1.1798,-1.1775,-1.1837,-1.1677,-1.1657,-1.1782,-1.1809,-1.1918,-1.2026,-1.2142,-1.2372,-1.2657,-1.2951,-1.3089,-1.3085,-1.322,-1.322,-1.3247,-1.3329,-1.3383,-1.3397,-1.3735,-1.4563,-1.7448,-2.1585,-2.3927,-2.5353,-2.6201,-2.6346,-2.6199,-2.6039,-2.5919,-2.5825,-1.5832,-1.5832,-1.5832,-1.5832,-1.5858,-1.6019,-1.6099,-1.5932,-1.4924,-1.379,-1.2581,-1.1318,-1.0146,-0.8948,-0.8899,-0.894,-0.894,-0.894,-0.894,-0.8988,-0.9137,-0.9279,-0.9422,-0.9591,-0.9802,-0.9903,-1.0019,-1.0188,-1.0365,-1.0568,-1.0717,-1.0717,-1.0717,-1.0717,-1.0717,-1.0717,-1.0717,-1.0717,-1.0717,-1.0717,-1.0724,-1.0731,-1.0907,-1.1234,-1.1441,-1.181,-1.1986,-1.2088,-1.2366,-1.2684,-1.2759,-1.2888,-1.303,-1.3085,-1.3071,-1.3246,-1.4297,-1.4761,-1.3987,-1.4512,-1.415,-1.3612,-1.3078,-1.2949,-1.2745,-1.2535,-1.2427,-1.2498,-1.2388,-1.2456,-1.2306,-1.2149,-1.2101,-1.2054,-1.2013,-1.1965,-1.1884,-1.1809,-1.1681,-1.1538,-1.1592,-1.1887,-1.2024,-1.2148,-1.2047,-1.2134,-1.1972,-1.1999,-1.202,-1.2101,-1.2216,-1.2325,-1.2589,-1.2861,-1.2969,-1.3226,-1.3207,-1.3308,-1.3315,-1.3356,-1.3444,-1.3505,-1.3539,-1.4579,-1.5957,-1.8697,-2.109,-2.3156,-2.4726,-2.5757,-2.6653,-2.66,-2.6453,-2.6239,-2.6159,-1.5805,-1.5832,-1.5832,-1.5832,-1.5832,-1.5845,-1.5845,-1.5695,-1.5035,-1.3881,-1.2505,-1.137,-1.0198,-0.8981,-0.8866,-0.8933,-0.894,-0.894,-0.8967,-0.8967,-0.9178,-0.9334,-0.9483,-0.9659,-0.9795,-0.9828,-0.9982,-1.0116,-1.048,-1.0643,-1.0717,-1.0717,-1.0717,-1.0717,-1.0717,-1.0717,-1.0717,-1.0717,-1.0717,-1.0717,-1.0731,-1.0765,-1.0867,-1.1111,-1.1552,-1.1782,-1.21,-1.2237,-1.244,-1.2691,-1.2895,-1.3044,-1.3186,-1.3281,-1.3261,-1.3315,-1.3915,-1.3957,-1.3617,-1.3978,-1.3798,-1.3556,-1.3281,-1.3193,-1.3017,-1.2883,-1.2738,-1.2535,-1.258,-1.2484,-1.2457,-1.2298,-1.2271,-1.2237,-1.2196,-1.2142,-1.2074,-1.1993,-1.1884,-1.1796,-1.187,-1.2148,-1.2324,-1.2285,-1.2196,-1.2278,-1.2292,-1.2196,-1.225,-1.2305,-1.2406,-1.2528,-1.2608,-1.2836,-1.3098,-1.32,-1.3315,-1.3383,-1.3383,-1.3451,-1.3532,-1.3614,-1.3695,-1.4894,-1.6092,-1.7457,-1.9609,-2.2002,-2.454,-2.6346,-2.7108,-2.7068,-2.6894,-2.6653,-2.6493,-1.5846,-1.5832,-1.5832,-1.5832,-1.5832,-1.5832,-1.5832,-1.5832,-1.5569,-1.4288,-1.2597,-1.2106,-1.092,-0.9033,-0.8866,-0.894,-0.894,-0.8967,-0.9008,-0.9076,-0.9225,-0.9401,-0.9517,-0.9652,-0.9774,-0.9787,-0.985,-1.0101,-1.0588,-1.0697,-1.0717,-1.0717,-1.0717,-1.0717,-1.0717,-1.0717,-1.0717,-1.0717,-1.0717,-1.0731,-1.0751,-1.0725,-1.0853,-1.1192,-1.165,-1.1935,-1.2189,-1.2325,-1.2596,-1.2868,-1.3037,-1.3193,-1.3342,-1.3383,-1.3444,-1.3351,-1.3593,-1.3654,-1.3844,-1.3837,-1.3634,-1.3559,-1.3451,-1.3383,-1.3207,-1.304,-1.2848,-1.2821,-1.2603,-1.2515,-1.2454,-1.2447,-1.2454,-1.242,-1.2379,-1.2318,-1.225,-1.2162,-1.2074,-1.2101,-1.2155,-1.2182,-1.2347,-1.2388,-1.2298,-1.2345,-1.2386,-1.2433,-1.2474,-1.2535,-1.2623,-1.2752,-1.2775,-1.2963,-1.322,-1.3281,-1.337,-1.3417,-1.3417,-1.3505,-1.362,-1.3756,-1.4043,-1.5027,-1.6212,-1.7103,-1.8666,-2.1547,-2.3937,-2.6364,-2.6961,-2.6704,-2.7131,-2.7094,-2.6921,-1.5792,-1.5818,-1.5832,-1.5439,-1.514,-1.5534,-1.5832,-1.5832,-1.5832,-1.4737,-1.3062,-1.2557,-1.144,-0.9503,-0.9159,-0.894,-0.8954,-0.9015,-0.9069,-0.9144,-0.9293,-0.9456,-0.9578,-0.9673,-0.9822,-0.9841,-1.0102,-1.0357,-1.069,-1.0717,-1.0717,-1.0717,-1.0717,-1.0717,-1.0717,-1.0717,-1.0717,-1.0717,-1.0724,-1.0765,-1.0806,-1.0786,-1.0933,-1.1267,-1.1796,-1.2081,-1.2237,-1.2386,-1.2698,-1.2996,-1.3214,-1.3383,-1.3512,-1.358,-1.3432,-1.3485,-1.3722,-1.3981,-1.4138,-1.3961,-1.377,-1.3702,-1.3587,-1.3505,-1.3451,-1.3308,-1.3068,-1.2861,-1.2712,-1.2454,-1.261,-1.2759,-1.2678,-1.2684,-1.2603,-1.2522,-1.2433,-1.2345,-1.2257,-1.2203,-1.2257,-1.2311,-1.2477,-1.2505,-1.2406,-1.2447,-1.2508,-1.2596,-1.2657,-1.2759,-1.2847,-1.2949,-1.2956,-1.3063,-1.3308,-1.3349,-1.3383,-1.3417,-1.3471,-1.3641,-1.381,-1.3953,-1.4395,-1.506,-1.5399,-1.5594,-1.7673,-1.9875,-2.3948,-2.6825,-2.6826,-2.63,-2.69,-2.7522,-2.7415,-1.5549,-1.5317,-1.5235,-1.4758,-1.4172,-1.5045,-1.5629,-1.5832,-1.5832,-1.5235,-1.4075,-1.293,-1.1653,-1.0468,-0.9435,-0.9099,-0.896,-0.9015,-0.9089,-0.9252,-0.9435,-0.9551,-0.9652,-0.9761,-0.9903,-1.008,-1.031,-1.0521,-1.0711,-1.0717,-1.0717,-1.0717,-1.0717,-1.0717,-1.0717,-1.0724,-1.0731,-1.0772,-1.0806,-1.0873,-1.0792,-1.0853,-1.1013,-1.1348,-1.1736,-1.2102,-1.2271,-1.2474,-1.2793,-1.3057,-1.3171,-1.3372,-1.3654,-1.3729,-1.3579,-1.3619,-1.3899,-1.4084,-1.4228,-1.4125,-1.3933,-1.3871,-1.3736,-1.3634,-1.3573,-1.3431,-1.3193,-1.3003,-1.2695,-1.2608,-1.2766,-1.2937,-1.2854,-1.2895,-1.2793,-1.2718,-1.263,-1.2535,-1.244,-1.2352,-1.2379,-1.244,-1.2474,-1.2501,-1.2522,-1.2562,-1.2623,-1.2712,-1.2813,-1.2949,-1.3064,-1.3139,-1.3247,-1.3342,-1.341,-1.3437,-1.3464,-1.3553,-1.3641,-1.3824,-1.398,-1.4095,-1.4183,-1.4238,-1.4583,-1.4892,-1.5213,-1.6752,-2.1211,-2.5677,-2.6223,-2.5818,-2.7341,-2.7816,-2.7869,-1.4532,-1.2597,-1.2684,-1.3102,-1.3776,-1.416,-1.4841,-1.5724,-1.5724,-1.5629,-1.4896,-1.3179,-1.1681,-1.036,-0.9334,-0.8933,-0.8954,-0.9022,-0.9178,-0.9347,-0.9462,-0.9605,-0.9734,-0.9829,-0.9998,-1.0175,-1.0337,-1.0473,-1.0677,-1.0717,-1.0717,-1.0717,-1.0717,-1.0724,-1.0724,-1.0744,-1.0792,-1.0853,-1.0934,-1.1009,-1.1179,-1.1226,-1.1226,-1.1463,-1.1775,-1.1938,-1.2203,-1.263,-1.2854,-1.3085,-1.3211,-1.3472,-1.379,-1.4036,-1.3892,-1.3933,-1.4048,-1.4075,-1.4249,-1.4256,-1.4055,-1.4027,-1.3892,-1.3763,-1.3695,-1.362,-1.3397,-1.3349,-1.3051,-1.2956,-1.3102,-1.2922,-1.2963,-1.2963,-1.2901,-1.2888,-1.284,-1.2745,-1.2494,-1.2583,-1.2556,-1.261,-1.2657,-1.2671,-1.2664,-1.2705,-1.2752,-1.2847,-1.2996,-1.3139,-1.3268,-1.3336,-1.3397,-1.3471,-1.3553,-1.3559,-1.3587,-1.3688,-1.379,-1.3933,-1.4068,-1.419,-1.4272,-1.4292,-1.4299,-1.4441,-1.4773,-1.5096,-1.7347,-2.1384,-2.4006,-2.5325,-2.7032,-2.8043,-2.8043]}]]